GEFSNGP_prec_meanprecacc_174.txt.gz
Total_Precipitation_Accumulation
0.10 0.12 0.19 0.37 0.49 0.40 0.29 0.26 0.34 0.35 0.35 0.38 0.46 0.56 0.54 0.48 0.43 0.41 0.42 0.39 0.38 0.38 0.36 0.35 0.35 0.37 0.46 0.59 0.75 0.94 1.17 1.17 1.02 0.94 0.86 0.72 0.66 0.64 0.61 0.64 0.61 0.63 0.73 0.83
0.04 0.05 0.09 0.18 0.22 0.17 0.10 0.13 0.24 0.30 0.36 0.41 0.47 0.54 0.51 0.43 0.35 0.28 0.26 0.26 0.26 0.24 0.22 0.17 0.16 0.18 0.20 0.29 0.46 0.64 0.81 0.90 0.87 0.78 0.67 0.63 0.62 0.60 0.56 0.55 0.51 0.50 0.54 0.61
0.04 0.04 0.06 0.13 0.13 0.13 0.16 0.15 0.16 0.26 0.38 0.46 0.58 0.76 0.67 0.50 0.41 0.28 0.21 0.20 0.19 0.20 0.20 0.18 0.17 0.16 0.17 0.21 0.27 0.38 0.51 0.62 0.62 0.56 0.49 0.45 0.49 0.49 0.46 0.41 0.42 0.39 0.39 0.39
0.09 0.11 0.22 0.25 0.19 0.27 0.34 0.26 0.22 0.29 0.37 0.50 0.83 1.03 0.66 0.43 0.38 0.32 0.21 0.18 0.18 0.18 0.16 0.15 0.14 0.13 0.14 0.16 0.19 0.21 0.26 0.31 0.32 0.33 0.33 0.33 0.35 0.35 0.34 0.33 0.31 0.31 0.38 0.45
0.13 0.17 0.41 0.36 0.19 0.31 0.36 0.31 0.24 0.32 0.37 0.40 0.46 0.41 0.25 0.15 0.16 0.18 0.13 0.10 0.09 0.08 0.07 0.05 0.05 0.05 0.06 0.06 0.08 0.08 0.09 0.11 0.13 0.16 0.19 0.22 0.22 0.24 0.31 0.34 0.35 0.38 0.49 0.56
0.09 0.12 0.26 0.27 0.10 0.17 0.26 0.31 0.13 0.14 0.16 0.11 0.07 0.08 0.11 0.10 0.07 0.05 0.03 0.02 0.02 0.02 0.02 0.01 0.01 0.01 0.01 0.01 0.02 0.03 0.02 0.03 0.04 0.05 0.06 0.09 0.13 0.16 0.21 0.25 0.32 0.39 0.41 0.39
0.04 0.06 0.08 0.05 0.05 0.11 0.25 0.28 0.07 0.04 0.03 0.01 0.01 0.01 0.05 0.10 0.06 0.03 0.01 0.00 0.00 0.00 0.00 0.00 0.00 0.00 0.00 0.01 0.01 0.02 0.03 0.04 0.04 0.04 0.03 0.04 0.05 0.06 0.10 0.14 0.17 0.19 0.21 0.25
0.02 0.03 0.04 0.02 0.05 0.11 0.11 0.05 0.02 0.01 0.01 0.00 0.00 0.00 0.02 0.05 0.03 0.02 0.01 0.00 0.00 0.01 0.00 0.00 0.00 0.00 0.00 0.00 0.01 0.01 0.02 0.04 0.04 0.03 0.03 0.03 0.03 0.04 0.04 0.06 0.10 0.13 0.16 0.21
0.02 0.02 0.02 0.02 0.03 0.03 0.03 0.02 0.00 0.00 0.00 0.01 0.00 0.00 0.00 0.01 0.02 0.01 0.00 0.00 0.00 0.01 0.01 0.00 0.01 0.01 0.01 0.01 0.01 0.01 0.02 0.04 0.04 0.04 0.03 0.02 0.03 0.03 0.03 0.04 0.07 0.10 0.14 0.21
0.01 0.01 0.01 0.01 0.01 0.01 0.01 0.01 0.00 0.00 0.01 0.01 0.00 0.00 0.00 0.00 0.01 0.01 0.00 0.00 0.00 0.00 0.01 0.01 0.01 0.01 0.01 0.01 0.02 0.02 0.02 0.02 0.03 0.04 0.04 0.04 0.04 0.04 0.04 0.04 0.07 0.11 0.18 0.24
0.01 0.01 0.00 0.01 0.01 0.00 0.01 0.01 0.00 0.00 0.00 0.00 0.00 0.00 0.00 0.00 0.01 0.01 0.00 0.00 0.00 0.00 0.01 0.01 0.01 0.01 0.01 0.01 0.01 0.01 0.01 0.02 0.03 0.04 0.05 0.04 0.03 0.04 0.05 0.05 0.07 0.13 0.17 0.20
0.01 0.01 0.00 0.00 0.00 0.00 0.01 0.00 0.00 0.00 0.00 0.00 0.00 0.00 0.00 0.00 0.00 0.00 0.00 0.00 0.00 0.00 0.00 0.01 0.01 0.01 0.01 0.01 0.01 0.01 0.01 0.01 0.02 0.03 0.03 0.04 0.05 0.04 0.04 0.04 0.05 0.06 0.08 0.11
0.01 0.01 0.01 0.00 0.00 0.01 0.02 0.01 0.00 0.00 0.00 0.00 0.00 0.00 0.00 0.00 0.00 0.00 0.00 0.00 0.00 0.00 0.00 0.01 0.01 0.01 0.01 0.02 0.02 0.01 0.01 0.01 0.01 0.02 0.02 0.03 0.06 0.10 0.11 0.08 0.04 0.03 0.04 0.08
0.01 0.00 0.01 0.01 0.00 0.01 0.01 0.00 0.00 0.00 0.00 0.00 0.00 0.00 0.00 0.00 0.00 0.00 0.00 0.00 0.00 0.00 0.00 0.01 0.01 0.01 0.01 0.01 0.01 0.01 0.02 0.01 0.02 0.03 0.03 0.03 0.04 0.10 0.21 0.26 0.21 0.10 0.06 0.07
0.01 0.00 0.00 0.00 0.00 0.00 0.00 0.00 0.00 0.00 0.00 0.00 0.00 0.00 0.00 0.00 0.00 0.00 0.00 0.00 0.00 0.00 0.00 0.01 0.01 0.01 0.01 0.01 0.01 0.01 0.02 0.02 0.05 0.07 0.05 0.04 0.05 0.13 0.19 0.12 0.11 0.13 0.12 0.09
0.00 0.00 0.00 0.00 0.00 0.00 0.01 0.01 0.00 0.00 0.00 0.00 0.00 0.00 0.00 0.00 0.00 0.00 0.00 0.00 0.00 0.00 0.00 0.00 0.01 0.00 0.00 0.00 0.00 0.01 0.01 0.02 0.04 0.09 0.09 0.05 0.07 0.11 0.10 0.09 0.11 0.13 0.14 0.13
0.00 0.00 0.00 0.00 0.01 0.01 0.01 0.01 0.01 0.00 0.00 0.00 0.00 0.00 0.00 0.00 0.00 0.00 0.00 0.00 0.00 0.00 0.00 0.00 0.00 0.00 0.00 0.00 0.00 0.00 0.01 0.01 0.02 0.05 0.08 0.06 0.06 0.08 0.07 0.08 0.10 0.12 0.12 0.12
0.01 0.01 0.01 0.01 0.01 0.00 0.00 0.00 0.00 0.00 0.00 0.00 0.00 0.00 0.00 0.00 0.00 0.00 0.00 0.00 0.00 0.00 0.00 0.00 0.00 0.00 0.00 0.00 0.01 0.01 0.01 0.02 0.02 0.05 0.06 0.04 0.04 0.07 0.09 0.08 0.08 0.10 0.12 0.12
0.02 0.01 0.01 0.01 0.01 0.00 0.00 0.00 0.00 0.00 0.00 0.00 0.00 0.00 0.00 0.00 0.00 0.00 0.00 0.00 0.00 0.00 0.00 0.00 0.01 0.00 0.00 0.01 0.02 0.02 0.03 0.03 0.04 0.05 0.07 0.05 0.05 0.06 0.10 0.12 0.11 0.12 0.14 0.13
0.02 0.02 0.01 0.01 0.00 0.00 0.00 0.00 0.00 0.00 0.00 0.00 0.00 0.00 0.00 0.00 0.00 0.00 0.01 0.00 0.00 0.00 0.00 0.01 0.01 0.01 0.01 0.01 0.02 0.03 0.03 0.03 0.04 0.06 0.07 0.07 0.07 0.08 0.09 0.10 0.13 0.16 0.17 0.16
0.03 0.02 0.02 0.01 0.01 0.01 0.00 0.00 0.00 0.00 0.00 0.00 0.00 0.00 0.00 0.00 0.01 0.01 0.01 0.01 0.01 0.01 0.02 0.02 0.02 0.02 0.03 0.04 0.05 0.05 0.05 0.05 0.06 0.08 0.10 0.11 0.11 0.12 0.12 0.13 0.16 0.20 0.18 0.18
0.02 0.02 0.02 0.01 0.01 0.01 0.00 0.01 0.01 0.01 0.00 0.00 0.00 0.01 0.01 0.01 0.01 0.02 0.02 0.02 0.02 0.04 0.04 0.04 0.04 0.06 0.08 0.11 0.08 0.07 0.08 0.08 0.10 0.11 0.13 0.15 0.16 0.17 0.17 0.18 0.19 0.19 0.19 0.20
0.02 0.01 0.01 0.01 0.01 0.00 0.01 0.01 0.01 0.01 0.01 0.01 0.01 0.01 0.01 0.01 0.01 0.02 0.02 0.03 0.04 0.06 0.07 0.07 0.08 0.11 0.14 0.11 0.09 0.09 0.10 0.11 0.13 0.13 0.16 0.20 0.22 0.23 0.24 0.25 0.24 0.22 0.22 0.24
0.02 0.02 0.02 0.02 0.01 0.01 0.01 0.01 0.01 0.01 0.01 0.01 0.01 0.01 0.02 0.03 0.03 0.03 0.03 0.04 0.05 0.07 0.08 0.09 0.11 0.15 0.17 0.12 0.11 0.11 0.12 0.13 0.14 0.15 0.19 0.23 0.26 0.26 0.26 0.26 0.25 0.25 0.25 0.26
0.03 0.03 0.03 0.03 0.03 0.03 0.02 0.02 0.02 0.02 0.02 0.02 0.03 0.03 0.04 0.04 0.05 0.06 0.06 0.07 0.08 0.09 0.10 0.11 0.14 0.16 0.14 0.14 0.15 0.15 0.16 0.17 0.20 0.21 0.22 0.23 0.26 0.27 0.28 0.28 0.30 0.31 0.30 0.30
0.04 0.05 0.05 0.05 0.05 0.05 0.04 0.04 0.04 0.04 0.05 0.05 0.06 0.07 0.07 0.07 0.07 0.07 0.09 0.11 0.13 0.14 0.15 0.16 0.19 0.20 0.19 0.19 0.20 0.21 0.21 0.22 0.24 0.25 0.25 0.27 0.28 0.29 0.30 0.30 0.31 0.33 0.35 0.36
0.08 0.07 0.07 0.08 0.08 0.08 0.08 0.08 0.08 0.08 0.08 0.08 0.08 0.09 0.10 0.11 0.12 0.11 0.12 0.14 0.16 0.19 0.19 0.20 0.22 0.25 0.27 0.28 0.29 0.28 0.26 0.26 0.26 0.27 0.29 0.31 0.32 0.33 0.33 0.33 0.33 0.34 0.36 0.37

GEFSNGP_prec_meanprecacc_180.txt.gz
Total_Precipitation_Accumulation
0.10 0.12 0.20 0.38 0.49 0.41 0.30 0.27 0.35 0.36 0.35 0.39 0.47 0.57 0.55 0.49 0.43 0.41 0.42 0.40 0.39 0.38 0.36 0.35 0.35 0.37 0.46 0.59 0.75 0.95 1.17 1.17 1.03 0.95 0.86 0.73 0.66 0.64 0.61 0.64 0.61 0.63 0.73 0.83
0.05 0.05 0.09 0.19 0.22 0.17 0.10 0.13 0.25 0.31 0.37 0.41 0.47 0.54 0.52 0.44 0.36 0.28 0.27 0.26 0.26 0.24 0.22 0.17 0.16 0.18 0.20 0.29 0.47 0.64 0.81 0.91 0.88 0.78 0.68 0.64 0.62 0.60 0.56 0.55 0.51 0.50 0.54 0.61
0.04 0.04 0.06 0.14 0.13 0.13 0.16 0.15 0.17 0.27 0.38 0.46 0.59 0.77 0.68 0.51 0.42 0.29 0.22 0.20 0.20 0.20 0.20 0.18 0.17 0.16 0.17 0.22 0.28 0.38 0.51 0.62 0.62 0.56 0.49 0.45 0.49 0.49 0.46 0.41 0.42 0.39 0.39 0.39
0.10 0.11 0.23 0.25 0.20 0.27 0.34 0.26 0.22 0.29 0.37 0.50 0.84 1.04 0.66 0.43 0.39 0.32 0.22 0.19 0.18 0.18 0.16 0.15 0.14 0.13 0.14 0.17 0.19 0.21 0.27 0.31 0.32 0.33 0.33 0.33 0.35 0.35 0.35 0.33 0.31 0.31 0.38 0.45
0.14 0.17 0.42 0.37 0.19 0.31 0.36 0.31 0.25 0.32 0.37 0.40 0.46 0.41 0.25 0.15 0.16 0.18 0.13 0.10 0.09 0.08 0.07 0.05 0.05 0.05 0.06 0.07 0.08 0.09 0.09 0.11 0.13 0.16 0.19 0.22 0.23 0.25 0.32 0.35 0.35 0.38 0.49 0.56
0.10 0.13 0.27 0.28 0.11 0.17 0.26 0.31 0.13 0.14 0.16 0.11 0.07 0.09 0.11 0.10 0.07 0.06 0.03 0.02 0.02 0.02 0.02 0.01 0.01 0.01 0.02 0.03 0.03 0.04 0.05 0.05 0.06 0.06 0.07 0.10 0.14 0.17 0.21 0.26 0.32 0.40 0.42 0.39
0.06 0.07 0.08 0.06 0.05 0.11 0.26 0.28 0.07 0.04 0.03 0.01 0.01 0.01 0.05 0.10 0.06 0.03 0.01 0.00 0.00 0.01 0.01 0.00 0.00 0.00 0.01 0.01 0.01 0.03 0.05 0.06 0.06 0.06 0.05 0.05 0.06 0.07 0.10 0.15 0.17 0.20 0.21 0.26
0.02 0.04 0.04 0.02 0.05 0.11 0.11 0.05 0.02 0.01 0.01 0.00 0.01 0.00 0.02 0.05 0.03 0.02 0.01 0.00 0.00 0.01 0.00 0.00 0.01 0.01 0.01 0.01 0.01 0.02 0.03 0.05 0.05 0.04 0.04 0.03 0.03 0.04 0.04 0.07 0.10 0.13 0.17 0.23
0.03 0.03 0.03 0.02 0.04 0.03 0.03 0.02 0.00 0.00 0.00 0.01 0.00 0.00 0.00 0.01 0.02 0.01 0.00 0.00 0.00 0.01 0.01 0.01 0.01 0.01 0.01 0.02 0.02 0.02 0.03 0.05 0.05 0.05 0.06 0.04 0.04 0.04 0.03 0.05 0.08 0.10 0.14 0.21
0.03 0.02 0.03 0.03 0.02 0.01 0.01 0.01 0.00 0.00 0.01 0.01 0.00 0.00 0.00 0.01 0.01 0.01 0.00 0.00 0.00 0.01 0.01 0.01 0.01 0.01 0.02 0.03 0.03 0.04 0.03 0.03 0.04 0.05 0.07 0.05 0.05 0.05 0.04 0.04 0.07 0.11 0.18 0.24
0.03 0.02 0.03 0.03 0.02 0.01 0.01 0.01 0.00 0.00 0.00 0.00 0.00 0.00 0.00 0.00 0.01 0.01 0.00 0.00 0.00 0.00 0.01 0.01 0.01 0.01 0.02 0.02 0.02 0.02 0.03 0.03 0.04 0.06 0.07 0.05 0.04 0.04 0.05 0.05 0.07 0.13 0.17 0.20
0.03 0.03 0.03 0.02 0.02 0.01 0.01 0.01 0.00 0.00 0.00 0.00 0.00 0.00 0.00 0.00 0.00 0.00 0.00 0.00 0.00 0.00 0.00 0.01 0.01 0.01 0.01 0.02 0.02 0.02 0.03 0.03 0.04 0.05 0.05 0.05 0.06 0.05 0.04 0.04 0.05 0.06 0.08 0.11
0.03 0.03 0.03 0.02 0.02 0.02 0.02 0.01 0.00 0.00 0.00 0.00 0.00 0.00 0.00 0.00 0.00 0.00 0.00 0.00 0.00 0.00 0.00 0.01 0.01 0.01 0.02 0.02 0.02 0.02 0.03 0.03 0.03 0.03 0.03 0.04 0.06 0.10 0.12 0.08 0.04 0.03 0.04 0.08
0.02 0.02 0.03 0.03 0.02 0.01 0.01 0.01 0.00 0.00 0.00 0.00 0.00 0.00 0.00 0.00 0.00 0.00 0.00 0.00 0.00 0.00 0.00 0.01 0.01 0.01 0.01 0.01 0.02 0.02 0.02 0.02 0.02 0.03 0.04 0.04 0.05 0.10 0.21 0.27 0.21 0.10 0.06 0.07
0.01 0.02 0.03 0.03 0.02 0.01 0.01 0.00 0.00 0.00 0.00 0.00 0.00 0.00 0.00 0.00 0.00 0.00 0.00 0.00 0.00 0.00 0.00 0.01 0.01 0.01 0.01 0.01 0.01 0.02 0.02 0.03 0.05 0.08 0.06 0.05 0.06 0.14 0.19 0.13 0.11 0.13 0.12 0.09
0.01 0.01 0.02 0.03 0.02 0.01 0.01 0.01 0.01 0.00 0.00 0.00 0.00 0.00 0.00 0.00 0.01 0.00 0.00 0.00 0.00 0.00 0.00 0.00 0.01 0.00 0.00 0.00 0.00 0.01 0.01 0.02 0.04 0.10 0.10 0.06 0.07 0.11 0.10 0.09 0.11 0.13 0.14 0.13
0.01 0.01 0.01 0.03 0.03 0.01 0.01 0.01 0.01 0.00 0.00 0.00 0.00 0.00 0.00 0.00 0.00 0.00 0.00 0.00 0.00 0.00 0.00 0.00 0.00 0.01 0.00 0.00 0.00 0.01 0.01 0.01 0.02 0.05 0.08 0.06 0.07 0.08 0.07 0.08 0.10 0.12 0.12 0.12
0.01 0.01 0.02 0.03 0.03 0.01 0.01 0.00 0.00 0.00 0.00 0.00 0.00 0.00 0.00 0.00 0.00 0.00 0.00 0.00 0.00 0.00 0.00 0.00 0.00 0.01 0.00 0.00 0.01 0.01 0.01 0.02 0.03 0.05 0.06 0.04 0.05 0.07 0.09 0.08 0.08 0.11 0.12 0.13
0.02 0.02 0.01 0.02 0.02 0.01 0.00 0.00 0.00 0.00 0.00 0.00 0.00 0.00 0.00 0.00 0.00 0.00 0.00 0.00 0.00 0.00 0.00 0.00 0.01 0.00 0.00 0.01 0.02 0.02 0.03 0.03 0.04 0.05 0.07 0.05 0.05 0.06 0.10 0.12 0.11 0.12 0.14 0.14
0.02 0.02 0.01 0.01 0.01 0.01 0.00 0.00 0.00 0.00 0.00 0.00 0.00 0.00 0.00 0.00 0.00 0.00 0.01 0.00 0.00 0.01 0.01 0.01 0.01 0.01 0.01 0.01 0.02 0.03 0.03 0.03 0.04 0.06 0.07 0.07 0.07 0.08 0.09 0.10 0.13 0.16 0.17 0.16
0.03 0.02 0.02 0.01 0.01 0.01 0.00 0.00 0.00 0.00 0.00 0.00 0.00 0.00 0.01 0.01 0.01 0.01 0.01 0.01 0.01 0.01 0.02 0.02 0.02 0.02 0.03 0.04 0.05 0.05 0.05 0.05 0.06 0.08 0.11 0.12 0.12 0.13 0.13 0.13 0.16 0.20 0.19 0.19
0.02 0.02 0.02 0.01 0.01 0.01 0.01 0.01 0.01 0.01 0.01 0.00 0.00 0.01 0.01 0.01 0.01 0.02 0.02 0.02 0.02 0.04 0.04 0.04 0.05 0.06 0.09 0.11 0.08 0.08 0.08 0.09 0.11 0.12 0.14 0.16 0.17 0.18 0.18 0.18 0.20 0.19 0.19 0.21
0.02 0.01 0.01 0.01 0.01 0.01 0.01 0.01 0.01 0.01 0.01 0.01 0.01 0.01 0.01 0.01 0.01 0.02 0.03 0.03 0.04 0.06 0.07 0.07 0.08 0.11 0.15 0.11 0.10 0.11 0.12 0.13 0.14 0.15 0.17 0.21 0.23 0.24 0.25 0.25 0.25 0.23 0.23 0.25
0.02 0.02 0.02 0.02 0.01 0.01 0.01 0.01 0.01 0.01 0.01 0.01 0.01 0.01 0.02 0.03 0.03 0.03 0.03 0.04 0.05 0.07 0.08 0.09 0.11 0.15 0.17 0.12 0.11 0.12 0.13 0.14 0.14 0.16 0.19 0.24 0.26 0.27 0.27 0.27 0.26 0.25 0.26 0.27
0.03 0.03 0.03 0.03 0.03 0.03 0.02 0.02 0.02 0.02 0.02 0.03 0.03 0.03 0.04 0.04 0.05 0.06 0.07 0.07 0.08 0.09 0.10 0.11 0.14 0.16 0.15 0.14 0.15 0.15 0.16 0.18 0.20 0.22 0.22 0.24 0.26 0.28 0.28 0.29 0.30 0.31 0.31 0.31
0.04 0.05 0.05 0.05 0.05 0.05 0.04 0.04 0.04 0.05 0.05 0.06 0.06 0.07 0.07 0.07 0.07 0.08 0.09 0.11 0.13 0.14 0.15 0.17 0.19 0.20 0.19 0.19 0.20 0.21 0.21 0.23 0.24 0.25 0.25 0.27 0.29 0.29 0.30 0.30 0.31 0.33 0.35 0.36
0.08 0.07 0.07 0.08 0.08 0.08 0.08 0.08 0.09 0.08 0.08 0.09 0.09 0.09 0.10 0.12 0.12 0.12 0.12 0.14 0.17 0.19 0.19 0.20 0.22 0.25 0.27 0.28 0.29 0.28 0.26 0.26 0.26 0.27 0.29 0.31 0.32 0.33 0.33 0.33 0.33 0.34 0.37 0.38

GEFSNGP_prec_meanprecacc_186.txt.gz
Total_Precipitation_Accumulation
0.10 0.13 0.20 0.38 0.49 0.41 0.30 0.27 0.35 0.36 0.35 0.39 0.47 0.57 0.55 0.49 0.43 0.41 0.42 0.40 0.39 0.39 0.36 0.35 0.36 0.37 0.46 0.60 0.76 0.95 1.17 1.18 1.03 0.95 0.86 0.73 0.66 0.64 0.61 0.64 0.61 0.63 0.73 0.84
0.05 0.06 0.09 0.19 0.22 0.17 0.10 0.13 0.25 0.31 0.37 0.41 0.47 0.54 0.52 0.44 0.36 0.28 0.27 0.27 0.26 0.25 0.23 0.17 0.16 0.19 0.21 0.30 0.47 0.65 0.82 0.91 0.88 0.78 0.68 0.64 0.63 0.60 0.56 0.55 0.51 0.50 0.54 0.61
0.05 0.04 0.07 0.14 0.13 0.13 0.16 0.15 0.17 0.27 0.38 0.46 0.59 0.77 0.68 0.51 0.42 0.29 0.22 0.21 0.21 0.21 0.20 0.19 0.18 0.17 0.18 0.22 0.28 0.38 0.52 0.62 0.62 0.56 0.50 0.46 0.49 0.49 0.46 0.41 0.42 0.40 0.39 0.39
0.10 0.12 0.23 0.25 0.20 0.27 0.34 0.26 0.22 0.29 0.37 0.50 0.84 1.04 0.66 0.43 0.39 0.32 0.22 0.20 0.19 0.19 0.17 0.15 0.15 0.13 0.15 0.17 0.20 0.21 0.27 0.31 0.33 0.34 0.33 0.34 0.36 0.36 0.36 0.35 0.33 0.31 0.38 0.45
0.15 0.18 0.42 0.37 0.19 0.31 0.37 0.31 0.25 0.32 0.37 0.40 0.46 0.41 0.25 0.15 0.16 0.18 0.13 0.10 0.10 0.09 0.08 0.06 0.06 0.06 0.07 0.08 0.09 0.10 0.10 0.12 0.14 0.17 0.21 0.25 0.26 0.29 0.36 0.38 0.37 0.39 0.50 0.57
0.11 0.14 0.27 0.28 0.11 0.17 0.26 0.31 0.13 0.14 0.16 0.11 0.07 0.09 0.11 0.10 0.07 0.06 0.03 0.03 0.03 0.03 0.02 0.01 0.01 0.02 0.02 0.03 0.04 0.05 0.05 0.06 0.08 0.10 0.12 0.15 0.19 0.22 0.24 0.27 0.33 0.40 0.42 0.40
0.06 0.08 0.08 0.06 0.06 0.11 0.26 0.29 0.08 0.04 0.03 0.01 0.01 0.01 0.06 0.10 0.06 0.03 0.02 0.01 0.01 0.01 0.01 0.01 0.01 0.01 0.01 0.02 0.02 0.03 0.05 0.08 0.10 0.11 0.10 0.10 0.09 0.08 0.11 0.16 0.18 0.20 0.22 0.27
0.03 0.05 0.04 0.03 0.06 0.11 0.11 0.05 0.03 0.01 0.01 0.00 0.01 0.00 0.02 0.05 0.03 0.02 0.01 0.01 0.01 0.01 0.01 0.00 0.01 0.01 0.01 0.02 0.02 0.02 0.04 0.07 0.08 0.07 0.06 0.06 0.06 0.05 0.05 0.08 0.11 0.14 0.17 0.23
0.04 0.04 0.03 0.03 0.04 0.04 0.03 0.02 0.01 0.00 0.01 0.01 0.00 0.00 0.00 0.02 0.02 0.01 0.00 0.00 0.01 0.01 0.01 0.01 0.01 0.01 0.02 0.02 0.02 0.03 0.04 0.05 0.06 0.06 0.07 0.05 0.05 0.05 0.05 0.06 0.08 0.10 0.15 0.22
0.03 0.02 0.03 0.03 0.03 0.02 0.01 0.01 0.01 0.01 0.01 0.01 0.00 0.00 0.00 0.01 0.02 0.01 0.00 0.00 0.00 0.01 0.01 0.01 0.01 0.01 0.02 0.03 0.03 0.04 0.04 0.05 0.06 0.06 0.08 0.06 0.06 0.06 0.06 0.05 0.08 0.12 0.19 0.25
0.03 0.02 0.03 0.03 0.02 0.01 0.01 0.01 0.00 0.00 0.00 0.00 0.00 0.00 0.00 0.01 0.01 0.01 0.00 0.00 0.00 0.00 0.01 0.01 0.01 0.01 0.02 0.02 0.02 0.02 0.03 0.05 0.05 0.07 0.08 0.05 0.05 0.05 0.05 0.06 0.08 0.14 0.17 0.21
0.03 0.03 0.03 0.02 0.02 0.02 0.02 0.01 0.00 0.00 0.00 0.00 0.00 0.00 0.00 0.00 0.00 0.00 0.00 0.00 0.00 0.00 0.01 0.01 0.01 0.01 0.02 0.03 0.03 0.03 0.03 0.04 0.05 0.05 0.05 0.05 0.06 0.05 0.04 0.04 0.05 0.07 0.08 0.12
0.03 0.03 0.03 0.02 0.02 0.02 0.03 0.01 0.00 0.00 0.00 0.00 0.00 0.00 0.01 0.00 0.00 0.00 0.00 0.00 0.00 0.00 0.00 0.01 0.02 0.02 0.03 0.03 0.03 0.03 0.03 0.04 0.04 0.04 0.04 0.04 0.07 0.11 0.12 0.08 0.05 0.04 0.05 0.08
0.02 0.03 0.03 0.03 0.02 0.02 0.02 0.01 0.01 0.01 0.00 0.00 0.00 0.00 0.01 0.01 0.01 0.00 0.00 0.00 0.00 0.00 0.00 0.01 0.01 0.01 0.02 0.02 0.02 0.02 0.02 0.02 0.03 0.05 0.05 0.05 0.06 0.11 0.22 0.27 0.21 0.10 0.07 0.08
0.01 0.02 0.03 0.03 0.02 0.02 0.02 0.01 0.01 0.01 0.01 0.01 0.00 0.00 0.01 0.01 0.01 0.01 0.00 0.01 0.00 0.00 0.00 0.01 0.01 0.01 0.01 0.01 0.02 0.02 0.02 0.03 0.06 0.09 0.08 0.06 0.07 0.14 0.20 0.13 0.12 0.14 0.12 0.09
0.01 0.01 0.02 0.03 0.03 0.03 0.03 0.02 0.01 0.01 0.01 0.01 0.01 0.01 0.01 0.01 0.01 0.01 0.00 0.01 0.01 0.00 0.00 0.01 0.01 0.01 0.00 0.00 0.00 0.01 0.02 0.03 0.05 0.11 0.12 0.07 0.08 0.11 0.10 0.09 0.11 0.14 0.15 0.14
0.01 0.01 0.01 0.03 0.03 0.03 0.03 0.02 0.01 0.01 0.01 0.01 0.01 0.01 0.01 0.01 0.00 0.00 0.00 0.00 0.01 0.01 0.01 0.00 0.01 0.01 0.01 0.01 0.01 0.01 0.01 0.01 0.02 0.06 0.09 0.07 0.07 0.09 0.07 0.08 0.11 0.12 0.13 0.13
0.02 0.01 0.02 0.03 0.03 0.03 0.03 0.02 0.01 0.01 0.01 0.01 0.01 0.01 0.01 0.01 0.00 0.00 0.01 0.00 0.00 0.00 0.01 0.01 0.01 0.01 0.01 0.01 0.01 0.01 0.01 0.02 0.03 0.05 0.06 0.05 0.05 0.08 0.10 0.08 0.09 0.11 0.13 0.13
0.02 0.02 0.01 0.02 0.03 0.03 0.03 0.02 0.01 0.01 0.01 0.01 0.01 0.01 0.01 0.01 0.00 0.01 0.01 0.01 0.01 0.01 0.00 0.01 0.01 0.01 0.01 0.01 0.02 0.02 0.03 0.04 0.04 0.05 0.07 0.06 0.06 0.07 0.11 0.13 0.12 0.13 0.14 0.14
0.02 0.02 0.01 0.01 0.02 0.02 0.02 0.02 0.02 0.02 0.01 0.01 0.01 0.01 0.01 0.01 0.00 0.01 0.01 0.01 0.01 0.01 0.01 0.01 0.02 0.01 0.01 0.01 0.03 0.03 0.04 0.04 0.04 0.06 0.07 0.08 0.08 0.09 0.10 0.11 0.14 0.18 0.18 0.17
0.03 0.02 0.02 0.01 0.01 0.02 0.02 0.02 0.02 0.02 0.02 0.01 0.01 0.01 0.01 0.01 0.01 0.01 0.01 0.02 0.01 0.02 0.02 0.03 0.03 0.03 0.03 0.05 0.06 0.06 0.05 0.05 0.06 0.08 0.11 0.12 0.13 0.14 0.14 0.14 0.18 0.22 0.20 0.19
0.02 0.02 0.02 0.01 0.01 0.02 0.02 0.02 0.02 0.02 0.01 0.01 0.01 0.01 0.01 0.01 0.02 0.02 0.02 0.03 0.03 0.04 0.05 0.05 0.05 0.07 0.10 0.12 0.09 0.08 0.09 0.10 0.11 0.13 0.15 0.17 0.18 0.19 0.19 0.19 0.20 0.20 0.20 0.22
0.02 0.01 0.01 0.01 0.01 0.01 0.02 0.02 0.02 0.02 0.02 0.01 0.01 0.01 0.01 0.01 0.02 0.02 0.03 0.03 0.05 0.07 0.07 0.07 0.09 0.12 0.15 0.12 0.10 0.11 0.12 0.14 0.15 0.16 0.18 0.22 0.24 0.25 0.25 0.26 0.25 0.23 0.24 0.25
0.03 0.02 0.02 0.02 0.02 0.02 0.03 0.03 0.02 0.02 0.02 0.02 0.01 0.01 0.02 0.03 0.03 0.03 0.03 0.04 0.05 0.07 0.08 0.09 0.11 0.16 0.17 0.13 0.12 0.12 0.14 0.15 0.16 0.17 0.21 0.24 0.27 0.27 0.27 0.27 0.26 0.25 0.26 0.27
0.04 0.04 0.03 0.03 0.03 0.03 0.03 0.03 0.03 0.03 0.03 0.03 0.03 0.03 0.04 0.04 0.05 0.06 0.07 0.07 0.08 0.10 0.10 0.12 0.14 0.16 0.15 0.15 0.15 0.16 0.17 0.19 0.21 0.23 0.23 0.25 0.27 0.29 0.29 0.29 0.30 0.31 0.31 0.31
0.05 0.05 0.05 0.05 0.05 0.05 0.05 0.05 0.05 0.05 0.06 0.06 0.07 0.07 0.07 0.07 0.07 0.08 0.10 0.11 0.13 0.14 0.15 0.17 0.19 0.20 0.19 0.20 0.20 0.21 0.22 0.23 0.25 0.25 0.26 0.28 0.29 0.30 0.30 0.31 0.31 0.33 0.35 0.36
0.08 0.07 0.07 0.08 0.08 0.08 0.09 0.09 0.10 0.09 0.09 0.09 0.09 0.10 0.11 0.12 0.13 0.12 0.12 0.14 0.17 0.19 0.19 0.20 0.23 0.26 0.28 0.29 0.29 0.28 0.27 0.26 0.26 0.27 0.29 0.31 0.32 0.33 0.33 0.33 0.34 0.35 0.37 0.38

GEFSNGP_prec_meanprecacc_192.txt.gz
Total_Precipitation_Accumulation
0.11 0.13 0.20 0.38 0.49 0.41 0.30 0.28 0.36 0.36 0.35 0.39 0.47 0.57 0.55 0.49 0.43 0.41 0.42 0.40 0.39 0.39 0.36 0.35 0.36 0.37 0.46 0.60 0.76 0.95 1.17 1.18 1.03 0.95 0.87 0.73 0.66 0.65 0.61 0.64 0.61 0.63 0.73 0.84
0.05 0.06 0.09 0.19 0.22 0.17 0.10 0.13 0.25 0.31 0.37 0.41 0.48 0.54 0.52 0.44 0.36 0.29 0.27 0.27 0.27 0.25 0.23 0.18 0.16 0.19 0.21 0.30 0.47 0.65 0.82 0.91 0.88 0.79 0.68 0.64 0.63 0.60 0.57 0.55 0.51 0.50 0.54 0.61
0.05 0.04 0.07 0.14 0.13 0.13 0.16 0.15 0.17 0.27 0.38 0.46 0.59 0.77 0.68 0.51 0.42 0.29 0.22 0.22 0.21 0.21 0.21 0.19 0.18 0.17 0.18 0.23 0.28 0.38 0.52 0.62 0.62 0.57 0.50 0.46 0.50 0.49 0.47 0.42 0.43 0.41 0.40 0.40
0.10 0.12 0.24 0.26 0.20 0.27 0.34 0.26 0.22 0.29 0.37 0.50 0.84 1.04 0.66 0.43 0.39 0.32 0.22 0.20 0.20 0.20 0.18 0.16 0.15 0.14 0.15 0.18 0.20 0.22 0.27 0.32 0.33 0.34 0.34 0.34 0.36 0.37 0.37 0.36 0.35 0.34 0.40 0.46
0.15 0.18 0.42 0.37 0.19 0.31 0.37 0.31 0.25 0.32 0.37 0.40 0.46 0.41 0.25 0.15 0.16 0.18 0.13 0.11 0.10 0.10 0.09 0.07 0.06 0.06 0.07 0.08 0.09 0.10 0.11 0.13 0.15 0.18 0.22 0.27 0.29 0.33 0.41 0.43 0.40 0.41 0.51 0.57
0.12 0.14 0.27 0.28 0.11 0.17 0.26 0.31 0.14 0.14 0.16 0.11 0.07 0.09 0.11 0.10 0.07 0.06 0.04 0.03 0.03 0.03 0.02 0.02 0.02 0.02 0.02 0.03 0.04 0.05 0.06 0.06 0.09 0.11 0.13 0.17 0.23 0.26 0.27 0.29 0.34 0.41 0.43 0.40
0.07 0.08 0.09 0.06 0.06 0.11 0.26 0.29 0.08 0.04 0.03 0.01 0.01 0.01 0.06 0.10 0.06 0.03 0.02 0.01 0.01 0.01 0.01 0.01 0.01 0.01 0.01 0.02 0.03 0.03 0.05 0.08 0.10 0.11 0.11 0.12 0.10 0.09 0.11 0.17 0.19 0.20 0.22 0.27
0.04 0.05 0.04 0.03 0.06 0.12 0.11 0.05 0.03 0.01 0.01 0.01 0.01 0.01 0.02 0.05 0.04 0.02 0.01 0.01 0.01 0.01 0.01 0.01 0.01 0.01 0.02 0.02 0.02 0.02 0.04 0.07 0.08 0.07 0.06 0.06 0.07 0.06 0.06 0.09 0.11 0.14 0.17 0.23
0.04 0.04 0.03 0.03 0.04 0.04 0.03 0.02 0.01 0.01 0.01 0.01 0.01 0.00 0.00 0.02 0.02 0.01 0.00 0.01 0.01 0.01 0.01 0.01 0.01 0.02 0.02 0.02 0.02 0.03 0.04 0.06 0.06 0.06 0.07 0.06 0.05 0.05 0.05 0.06 0.08 0.10 0.15 0.22
0.03 0.03 0.03 0.03 0.03 0.02 0.02 0.02 0.01 0.01 0.01 0.01 0.01 0.00 0.00 0.01 0.02 0.01 0.00 0.00 0.01 0.01 0.01 0.02 0.02 0.02 0.03 0.03 0.03 0.04 0.04 0.05 0.06 0.07 0.08 0.06 0.06 0.07 0.06 0.06 0.08 0.12 0.19 0.25
0.03 0.02 0.03 0.03 0.02 0.01 0.01 0.01 0.00 0.00 0.00 0.00 0.00 0.00 0.00 0.01 0.01 0.01 0.01 0.01 0.00 0.01 0.01 0.02 0.02 0.02 0.02 0.03 0.02 0.02 0.04 0.05 0.06 0.08 0.08 0.06 0.05 0.06 0.06 0.06 0.09 0.14 0.18 0.22
0.03 0.03 0.03 0.02 0.02 0.02 0.02 0.01 0.01 0.01 0.00 0.00 0.00 0.00 0.01 0.00 0.01 0.01 0.01 0.01 0.01 0.01 0.01 0.02 0.03 0.02 0.02 0.03 0.03 0.03 0.03 0.04 0.05 0.06 0.05 0.06 0.06 0.05 0.04 0.05 0.06 0.07 0.08 0.12
0.03 0.04 0.03 0.02 0.02 0.03 0.03 0.01 0.01 0.01 0.00 0.00 0.00 0.01 0.01 0.01 0.01 0.01 0.00 0.00 0.01 0.01 0.01 0.02 0.03 0.03 0.03 0.04 0.03 0.03 0.03 0.04 0.04 0.04 0.04 0.05 0.07 0.11 0.12 0.09 0.05 0.04 0.05 0.09
0.02 0.03 0.03 0.03 0.02 0.03 0.03 0.01 0.01 0.01 0.01 0.00 0.00 0.00 0.01 0.01 0.01 0.01 0.00 0.00 0.01 0.01 0.01 0.01 0.02 0.02 0.02 0.02 0.02 0.02 0.02 0.03 0.04 0.05 0.05 0.05 0.06 0.11 0.22 0.27 0.22 0.11 0.07 0.08
0.01 0.02 0.03 0.03 0.02 0.02 0.02 0.01 0.01 0.01 0.01 0.01 0.01 0.00 0.01 0.01 0.01 0.01 0.01 0.01 0.01 0.00 0.01 0.01 0.01 0.01 0.01 0.02 0.02 0.02 0.03 0.03 0.06 0.09 0.08 0.06 0.07 0.15 0.20 0.14 0.12 0.14 0.13 0.10
0.01 0.01 0.02 0.03 0.03 0.03 0.03 0.02 0.01 0.01 0.01 0.01 0.01 0.01 0.01 0.01 0.01 0.02 0.02 0.02 0.01 0.00 0.00 0.01 0.01 0.01 0.01 0.01 0.01 0.01 0.02 0.03 0.06 0.12 0.12 0.07 0.08 0.12 0.11 0.10 0.12 0.14 0.15 0.14
0.01 0.01 0.02 0.03 0.03 0.03 0.03 0.02 0.01 0.01 0.01 0.01 0.01 0.01 0.01 0.01 0.01 0.01 0.01 0.02 0.01 0.01 0.01 0.01 0.01 0.01 0.01 0.01 0.01 0.01 0.01 0.02 0.03 0.06 0.09 0.07 0.08 0.09 0.08 0.09 0.11 0.12 0.13 0.13
0.02 0.02 0.02 0.03 0.03 0.03 0.03 0.02 0.01 0.01 0.01 0.01 0.01 0.01 0.01 0.01 0.01 0.01 0.02 0.01 0.01 0.01 0.01 0.01 0.01 0.01 0.01 0.01 0.01 0.01 0.02 0.02 0.03 0.05 0.07 0.06 0.07 0.09 0.11 0.09 0.09 0.11 0.13 0.14
0.02 0.02 0.02 0.02 0.03 0.03 0.03 0.02 0.01 0.01 0.01 0.01 0.01 0.01 0.01 0.01 0.01 0.01 0.02 0.02 0.01 0.01 0.01 0.01 0.01 0.01 0.01 0.01 0.02 0.02 0.03 0.04 0.04 0.05 0.07 0.06 0.06 0.08 0.12 0.14 0.13 0.14 0.15 0.15
0.02 0.02 0.02 0.01 0.02 0.02 0.02 0.02 0.02 0.02 0.01 0.01 0.01 0.01 0.01 0.02 0.01 0.01 0.02 0.02 0.01 0.01 0.02 0.02 0.02 0.01 0.01 0.01 0.03 0.03 0.04 0.04 0.04 0.06 0.07 0.08 0.08 0.09 0.10 0.12 0.15 0.18 0.18 0.17
0.03 0.03 0.02 0.02 0.01 0.02 0.02 0.02 0.02 0.02 0.02 0.02 0.02 0.01 0.02 0.02 0.02 0.02 0.02 0.02 0.02 0.02 0.03 0.03 0.03 0.03 0.04 0.05 0.06 0.06 0.05 0.06 0.06 0.08 0.11 0.12 0.13 0.14 0.14 0.15 0.18 0.22 0.20 0.20
0.02 0.02 0.02 0.01 0.01 0.02 0.02 0.02 0.02 0.02 0.02 0.01 0.01 0.02 0.02 0.02 0.03 0.03 0.03 0.03 0.03 0.05 0.05 0.05 0.05 0.07 0.10 0.12 0.09 0.08 0.09 0.10 0.12 0.13 0.15 0.17 0.18 0.19 0.19 0.19 0.20 0.20 0.20 0.22
0.02 0.02 0.01 0.01 0.01 0.01 0.02 0.02 0.02 0.02 0.02 0.02 0.01 0.01 0.02 0.02 0.03 0.04 0.04 0.04 0.05 0.07 0.07 0.08 0.09 0.12 0.16 0.13 0.11 0.12 0.13 0.14 0.16 0.16 0.19 0.22 0.24 0.25 0.26 0.26 0.26 0.24 0.24 0.26
0.03 0.03 0.03 0.03 0.02 0.03 0.03 0.03 0.03 0.02 0.02 0.02 0.02 0.02 0.02 0.03 0.04 0.05 0.05 0.05 0.06 0.08 0.08 0.09 0.12 0.16 0.18 0.13 0.12 0.13 0.14 0.16 0.17 0.18 0.21 0.25 0.27 0.28 0.28 0.27 0.26 0.26 0.26 0.27
0.05 0.05 0.06 0.06 0.05 0.05 0.05 0.05 0.04 0.04 0.04 0.04 0.04 0.04 0.04 0.05 0.07 0.08 0.09 0.09 0.09 0.10 0.11 0.12 0.15 0.16 0.15 0.15 0.15 0.16 0.17 0.19 0.22 0.24 0.24 0.26 0.28 0.30 0.30 0.30 0.31 0.32 0.31 0.31
0.06 0.06 0.06 0.06 0.06 0.07 0.06 0.07 0.07 0.07 0.07 0.07 0.08 0.08 0.08 0.08 0.09 0.10 0.11 0.13 0.14 0.15 0.15 0.17 0.19 0.20 0.20 0.20 0.21 0.21 0.22 0.23 0.25 0.26 0.27 0.29 0.31 0.32 0.32 0.32 0.32 0.34 0.35 0.37
0.10 0.08 0.08 0.09 0.09 0.10 0.10 0.11 0.12 0.11 0.11 0.11 0.10 0.11 0.12 0.13 0.14 0.14 0.14 0.15 0.17 0.20 0.20 0.21 0.23 0.26 0.28 0.29 0.30 0.29 0.27 0.27 0.27 0.29 0.31 0.33 0.34 0.35 0.35 0.35 0.35 0.36 0.38 0.39

GEFSNGP_prec_meanprecacc_198.txt.gz
Total_Precipitation_Accumulation
0.11 0.14 0.20 0.38 0.50 0.41 0.31 0.28 0.36 0.36 0.36 0.40 0.47 0.58 0.56 0.49 0.44 0.42 0.42 0.40 0.40 0.39 0.36 0.36 0.37 0.38 0.47 0.61 0.76 0.96 1.17 1.18 1.03 0.95 0.87 0.74 0.68 0.66 0.62 0.65 0.61 0.63 0.73 0.84
0.05 0.06 0.10 0.19 0.22 0.17 0.10 0.14 0.25 0.31 0.38 0.42 0.48 0.55 0.52 0.44 0.36 0.29 0.27 0.27 0.27 0.25 0.23 0.18 0.17 0.19 0.21 0.31 0.48 0.65 0.82 0.91 0.88 0.79 0.68 0.65 0.63 0.60 0.57 0.55 0.51 0.51 0.55 0.62
0.06 0.05 0.07 0.14 0.13 0.13 0.16 0.15 0.17 0.27 0.39 0.46 0.59 0.77 0.68 0.51 0.42 0.29 0.22 0.22 0.22 0.21 0.21 0.19 0.18 0.18 0.18 0.23 0.29 0.39 0.52 0.62 0.63 0.57 0.50 0.47 0.50 0.50 0.47 0.42 0.44 0.42 0.42 0.42
0.12 0.13 0.25 0.26 0.20 0.27 0.34 0.26 0.22 0.29 0.37 0.50 0.84 1.04 0.66 0.43 0.39 0.32 0.22 0.20 0.20 0.20 0.19 0.16 0.15 0.14 0.16 0.18 0.20 0.22 0.27 0.32 0.34 0.35 0.35 0.35 0.37 0.37 0.37 0.37 0.37 0.36 0.41 0.47
0.17 0.20 0.43 0.37 0.19 0.31 0.37 0.31 0.25 0.32 0.37 0.40 0.46 0.41 0.25 0.15 0.16 0.18 0.13 0.11 0.10 0.10 0.09 0.07 0.07 0.07 0.08 0.09 0.10 0.10 0.11 0.14 0.16 0.19 0.22 0.27 0.29 0.33 0.42 0.44 0.41 0.41 0.51 0.57
0.13 0.16 0.28 0.28 0.11 0.17 0.26 0.32 0.14 0.14 0.16 0.11 0.07 0.09 0.11 0.10 0.07 0.06 0.04 0.03 0.03 0.03 0.03 0.02 0.02 0.03 0.03 0.04 0.05 0.06 0.06 0.07 0.09 0.11 0.13 0.18 0.23 0.26 0.27 0.29 0.34 0.41 0.43 0.40
0.08 0.10 0.10 0.06 0.06 0.11 0.26 0.29 0.08 0.04 0.03 0.01 0.01 0.01 0.06 0.10 0.06 0.03 0.02 0.01 0.01 0.01 0.01 0.01 0.01 0.02 0.02 0.02 0.03 0.04 0.06 0.08 0.11 0.11 0.11 0.12 0.11 0.09 0.12 0.17 0.19 0.21 0.22 0.27
0.05 0.07 0.05 0.03 0.06 0.12 0.11 0.06 0.03 0.02 0.01 0.01 0.01 0.01 0.02 0.05 0.04 0.02 0.01 0.01 0.01 0.01 0.01 0.01 0.01 0.01 0.02 0.02 0.03 0.03 0.05 0.07 0.08 0.07 0.06 0.07 0.07 0.06 0.07 0.10 0.12 0.15 0.17 0.23
0.04 0.05 0.04 0.03 0.05 0.04 0.03 0.02 0.01 0.01 0.01 0.01 0.01 0.00 0.00 0.02 0.02 0.01 0.00 0.01 0.01 0.01 0.02 0.01 0.02 0.02 0.02 0.03 0.03 0.03 0.04 0.06 0.06 0.06 0.07 0.06 0.05 0.06 0.06 0.07 0.09 0.11 0.16 0.22
0.04 0.03 0.03 0.03 0.03 0.02 0.02 0.02 0.01 0.01 0.01 0.01 0.01 0.00 0.00 0.01 0.02 0.01 0.00 0.01 0.01 0.01 0.02 0.02 0.02 0.03 0.03 0.04 0.04 0.05 0.05 0.05 0.07 0.07 0.08 0.07 0.06 0.07 0.06 0.06 0.08 0.12 0.19 0.26
0.03 0.03 0.03 0.03 0.02 0.01 0.01 0.01 0.00 0.01 0.01 0.00 0.00 0.00 0.00 0.01 0.01 0.01 0.01 0.01 0.01 0.01 0.01 0.02 0.03 0.03 0.03 0.04 0.03 0.03 0.04 0.06 0.06 0.08 0.09 0.06 0.05 0.06 0.06 0.06 0.09 0.14 0.18 0.22
0.04 0.03 0.03 0.03 0.02 0.02 0.02 0.01 0.01 0.01 0.01 0.01 0.00 0.01 0.01 0.00 0.01 0.01 0.01 0.01 0.01 0.01 0.01 0.02 0.03 0.03 0.04 0.04 0.04 0.03 0.04 0.05 0.06 0.06 0.06 0.06 0.07 0.06 0.05 0.05 0.06 0.07 0.08 0.12
0.03 0.04 0.03 0.02 0.02 0.03 0.03 0.01 0.01 0.01 0.01 0.01 0.01 0.01 0.01 0.01 0.01 0.01 0.01 0.01 0.01 0.01 0.01 0.02 0.04 0.03 0.04 0.05 0.05 0.04 0.04 0.05 0.05 0.04 0.04 0.05 0.07 0.11 0.12 0.09 0.05 0.04 0.05 0.09
0.02 0.03 0.03 0.03 0.02 0.03 0.03 0.01 0.01 0.01 0.01 0.00 0.01 0.01 0.01 0.01 0.01 0.01 0.00 0.00 0.01 0.01 0.01 0.02 0.03 0.03 0.03 0.03 0.03 0.04 0.04 0.03 0.04 0.05 0.05 0.06 0.06 0.11 0.22 0.27 0.22 0.11 0.07 0.08
0.01 0.02 0.03 0.03 0.02 0.02 0.02 0.01 0.01 0.01 0.01 0.01 0.01 0.01 0.01 0.01 0.01 0.01 0.01 0.01 0.01 0.01 0.01 0.02 0.02 0.03 0.03 0.03 0.03 0.03 0.04 0.04 0.07 0.10 0.09 0.07 0.07 0.15 0.20 0.14 0.13 0.15 0.13 0.10
0.01 0.01 0.02 0.03 0.03 0.03 0.03 0.02 0.01 0.01 0.01 0.01 0.01 0.01 0.01 0.01 0.02 0.02 0.02 0.02 0.01 0.01 0.01 0.02 0.02 0.02 0.03 0.03 0.02 0.02 0.02 0.04 0.06 0.12 0.13 0.07 0.08 0.12 0.11 0.10 0.12 0.14 0.15 0.15
0.01 0.01 0.02 0.03 0.04 0.03 0.03 0.02 0.01 0.01 0.01 0.01 0.01 0.01 0.01 0.01 0.01 0.02 0.02 0.02 0.02 0.01 0.01 0.02 0.02 0.02 0.03 0.04 0.03 0.03 0.02 0.03 0.04 0.07 0.09 0.08 0.08 0.10 0.08 0.09 0.12 0.13 0.13 0.14
0.02 0.02 0.02 0.03 0.04 0.03 0.03 0.02 0.01 0.01 0.01 0.01 0.01 0.01 0.01 0.01 0.01 0.01 0.02 0.02 0.01 0.01 0.01 0.02 0.02 0.03 0.03 0.04 0.04 0.03 0.03 0.03 0.03 0.05 0.07 0.06 0.07 0.10 0.11 0.10 0.10 0.12 0.14 0.14
0.02 0.02 0.02 0.02 0.03 0.03 0.03 0.02 0.02 0.01 0.01 0.01 0.01 0.01 0.01 0.01 0.01 0.01 0.02 0.02 0.01 0.01 0.01 0.02 0.02 0.02 0.03 0.04 0.05 0.04 0.04 0.04 0.04 0.05 0.07 0.06 0.06 0.08 0.12 0.14 0.13 0.14 0.15 0.15
0.02 0.02 0.02 0.02 0.02 0.03 0.03 0.02 0.02 0.02 0.02 0.02 0.01 0.01 0.01 0.02 0.01 0.01 0.02 0.02 0.01 0.02 0.02 0.03 0.03 0.03 0.04 0.04 0.05 0.05 0.04 0.04 0.05 0.06 0.07 0.08 0.08 0.09 0.10 0.12 0.15 0.18 0.19 0.18
0.03 0.03 0.02 0.02 0.02 0.02 0.03 0.02 0.02 0.02 0.02 0.02 0.02 0.02 0.02 0.02 0.02 0.02 0.02 0.02 0.02 0.03 0.03 0.04 0.04 0.04 0.05 0.07 0.08 0.07 0.06 0.06 0.07 0.08 0.11 0.12 0.13 0.14 0.14 0.15 0.18 0.22 0.20 0.20
0.03 0.02 0.02 0.02 0.01 0.02 0.02 0.02 0.02 0.03 0.02 0.02 0.02 0.02 0.02 0.02 0.03 0.03 0.03 0.04 0.04 0.05 0.06 0.07 0.06 0.07 0.11 0.14 0.11 0.09 0.09 0.10 0.12 0.13 0.16 0.18 0.19 0.19 0.19 0.19 0.21 0.21 0.20 0.22
0.02 0.02 0.01 0.01 0.01 0.02 0.02 0.02 0.03 0.02 0.02 0.02 0.02 0.02 0.02 0.02 0.03 0.04 0.04 0.04 0.06 0.08 0.08 0.09 0.10 0.13 0.18 0.14 0.12 0.13 0.13 0.14 0.16 0.17 0.19 0.22 0.24 0.25 0.26 0.26 0.26 0.24 0.24 0.26
0.03 0.03 0.03 0.03 0.03 0.04 0.04 0.04 0.04 0.03 0.03 0.03 0.02 0.02 0.03 0.04 0.04 0.05 0.05 0.06 0.07 0.09 0.09 0.11 0.14 0.17 0.19 0.14 0.13 0.13 0.15 0.16 0.17 0.18 0.21 0.25 0.28 0.28 0.28 0.28 0.27 0.26 0.27 0.28
0.05 0.05 0.06 0.06 0.05 0.05 0.05 0.05 0.05 0.05 0.04 0.04 0.04 0.04 0.05 0.05 0.07 0.08 0.09 0.09 0.10 0.11 0.12 0.14 0.16 0.17 0.16 0.15 0.16 0.16 0.18 0.20 0.22 0.24 0.25 0.26 0.28 0.30 0.30 0.31 0.32 0.33 0.32 0.33
0.07 0.07 0.07 0.07 0.07 0.07 0.07 0.07 0.08 0.07 0.08 0.08 0.08 0.08 0.09 0.09 0.09 0.10 0.12 0.14 0.16 0.17 0.17 0.19 0.21 0.21 0.20 0.20 0.21 0.22 0.22 0.24 0.26 0.26 0.27 0.29 0.31 0.32 0.33 0.34 0.34 0.36 0.38 0.39
0.11 0.10 0.10 0.09 0.09 0.10 0.11 0.11 0.12 0.12 0.12 0.12 0.11 0.11 0.12 0.14 0.14 0.14 0.15 0.17 0.20 0.22 0.22 0.23 0.25 0.27 0.28 0.29 0.30 0.29 0.28 0.27 0.28 0.29 0.31 0.34 0.35 0.36 0.36 0.37 0.37 0.38 0.40 0.41

GEFSNGP_prec_meanprecacc_204.txt.gz
Total_Precipitation_Accumulation
0.12 0.14 0.21 0.38 0.50 0.41 0.31 0.29 0.37 0.37 0.36 0.40 0.48 0.58 0.56 0.50 0.48 0.47 0.46 0.42 0.41 0.40 0.38 0.38 0.38 0.39 0.48 0.62 0.78 0.96 1.18 1.18 1.03 0.96 0.88 0.74 0.68 0.67 0.62 0.65 0.62 0.64 0.74 0.85
0.06 0.07 0.10 0.20 0.23 0.17 0.11 0.15 0.26 0.31 0.38 0.42 0.49 0.56 0.52 0.44 0.37 0.31 0.29 0.28 0.28 0.26 0.24 0.19 0.18 0.20 0.22 0.31 0.49 0.66 0.83 0.92 0.89 0.79 0.69 0.65 0.64 0.61 0.57 0.56 0.52 0.51 0.56 0.63
0.07 0.06 0.08 0.15 0.14 0.13 0.16 0.16 0.17 0.27 0.39 0.47 0.59 0.77 0.68 0.51 0.42 0.30 0.23 0.23 0.22 0.22 0.21 0.20 0.18 0.18 0.19 0.24 0.30 0.40 0.54 0.64 0.64 0.58 0.51 0.47 0.50 0.50 0.47 0.43 0.44 0.42 0.42 0.42
0.13 0.15 0.26 0.26 0.20 0.27 0.35 0.26 0.22 0.29 0.37 0.51 0.84 1.04 0.67 0.44 0.40 0.33 0.23 0.21 0.21 0.21 0.19 0.17 0.16 0.15 0.16 0.19 0.22 0.23 0.29 0.34 0.36 0.36 0.36 0.36 0.37 0.37 0.37 0.37 0.37 0.36 0.41 0.47
0.19 0.22 0.44 0.37 0.19 0.31 0.37 0.31 0.25 0.32 0.37 0.40 0.46 0.42 0.25 0.15 0.16 0.18 0.13 0.11 0.10 0.11 0.10 0.08 0.07 0.07 0.08 0.10 0.12 0.12 0.12 0.15 0.17 0.19 0.23 0.27 0.29 0.33 0.42 0.44 0.41 0.41 0.51 0.58
0.16 0.19 0.30 0.29 0.11 0.17 0.26 0.32 0.14 0.15 0.16 0.11 0.07 0.09 0.12 0.11 0.07 0.06 0.04 0.03 0.03 0.03 0.03 0.02 0.03 0.04 0.03 0.05 0.06 0.07 0.07 0.08 0.10 0.12 0.14 0.18 0.24 0.26 0.27 0.29 0.34 0.41 0.44 0.41
0.11 0.13 0.13 0.08 0.07 0.12 0.26 0.29 0.08 0.04 0.04 0.01 0.01 0.01 0.06 0.10 0.06 0.03 0.02 0.02 0.01 0.01 0.01 0.02 0.02 0.02 0.02 0.03 0.05 0.06 0.08 0.10 0.12 0.12 0.12 0.13 0.11 0.09 0.12 0.17 0.20 0.21 0.24 0.28
0.07 0.10 0.09 0.05 0.07 0.12 0.12 0.06 0.03 0.02 0.01 0.01 0.01 0.01 0.02 0.05 0.04 0.02 0.01 0.01 0.01 0.01 0.02 0.02 0.02 0.02 0.02 0.03 0.04 0.05 0.07 0.09 0.10 0.08 0.07 0.07 0.07 0.07 0.07 0.10 0.13 0.16 0.19 0.25
0.07 0.07 0.07 0.06 0.05 0.05 0.03 0.02 0.01 0.02 0.01 0.01 0.01 0.01 0.01 0.02 0.02 0.01 0.00 0.01 0.01 0.01 0.02 0.02 0.02 0.02 0.03 0.04 0.05 0.06 0.06 0.08 0.08 0.07 0.08 0.07 0.06 0.06 0.07 0.08 0.10 0.12 0.16 0.24
0.06 0.04 0.05 0.05 0.03 0.02 0.02 0.02 0.01 0.02 0.01 0.01 0.01 0.01 0.00 0.01 0.02 0.01 0.01 0.01 0.01 0.02 0.02 0.03 0.03 0.03 0.04 0.05 0.05 0.06 0.06 0.07 0.08 0.09 0.09 0.08 0.07 0.08 0.07 0.07 0.09 0.12 0.19 0.26
0.06 0.04 0.04 0.04 0.03 0.02 0.01 0.01 0.01 0.01 0.01 0.00 0.01 0.01 0.01 0.01 0.01 0.01 0.01 0.01 0.01 0.01 0.02 0.03 0.04 0.03 0.04 0.04 0.04 0.04 0.05 0.07 0.08 0.10 0.10 0.07 0.06 0.07 0.07 0.07 0.10 0.15 0.19 0.22
0.06 0.04 0.03 0.03 0.03 0.02 0.02 0.01 0.01 0.01 0.01 0.01 0.00 0.01 0.01 0.01 0.01 0.01 0.01 0.01 0.01 0.01 0.01 0.03 0.03 0.04 0.04 0.05 0.05 0.04 0.05 0.06 0.07 0.07 0.07 0.07 0.08 0.07 0.06 0.07 0.07 0.08 0.09 0.13
0.05 0.05 0.04 0.03 0.02 0.03 0.03 0.02 0.01 0.01 0.01 0.01 0.01 0.01 0.01 0.01 0.01 0.01 0.01 0.01 0.01 0.01 0.01 0.03 0.04 0.04 0.06 0.06 0.05 0.04 0.04 0.05 0.06 0.06 0.05 0.06 0.08 0.13 0.14 0.11 0.06 0.05 0.06 0.10
0.03 0.04 0.05 0.03 0.02 0.03 0.03 0.02 0.01 0.01 0.01 0.01 0.01 0.01 0.01 0.01 0.01 0.01 0.01 0.01 0.01 0.01 0.01 0.02 0.03 0.04 0.04 0.04 0.04 0.04 0.05 0.04 0.05 0.07 0.07 0.07 0.08 0.13 0.24 0.29 0.23 0.12 0.08 0.09
0.02 0.02 0.04 0.04 0.03 0.03 0.02 0.01 0.01 0.01 0.01 0.01 0.01 0.01 0.01 0.01 0.01 0.02 0.01 0.01 0.01 0.01 0.01 0.02 0.03 0.04 0.04 0.03 0.03 0.03 0.05 0.06 0.08 0.11 0.10 0.08 0.09 0.16 0.22 0.16 0.15 0.16 0.15 0.11
0.01 0.02 0.03 0.04 0.04 0.03 0.03 0.02 0.01 0.01 0.01 0.01 0.01 0.01 0.01 0.02 0.02 0.02 0.02 0.02 0.01 0.01 0.01 0.02 0.02 0.03 0.03 0.03 0.02 0.02 0.03 0.05 0.08 0.14 0.14 0.09 0.10 0.14 0.13 0.12 0.14 0.16 0.16 0.16
0.01 0.01 0.02 0.04 0.04 0.04 0.03 0.02 0.02 0.01 0.01 0.01 0.01 0.01 0.01 0.01 0.01 0.02 0.02 0.02 0.02 0.01 0.01 0.02 0.02 0.03 0.04 0.04 0.04 0.03 0.03 0.04 0.06 0.09 0.13 0.11 0.12 0.13 0.12 0.12 0.14 0.14 0.14 0.15
0.02 0.02 0.02 0.03 0.04 0.03 0.03 0.02 0.02 0.01 0.01 0.01 0.01 0.01 0.01 0.01 0.01 0.02 0.02 0.02 0.01 0.01 0.02 0.02 0.02 0.03 0.03 0.04 0.04 0.04 0.04 0.04 0.05 0.08 0.10 0.10 0.11 0.13 0.14 0.13 0.12 0.13 0.14 0.15
0.03 0.03 0.02 0.03 0.03 0.04 0.03 0.02 0.02 0.01 0.01 0.01 0.01 0.01 0.01 0.01 0.01 0.01 0.02 0.02 0.01 0.01 0.01 0.02 0.03 0.03 0.03 0.05 0.06 0.06 0.05 0.05 0.06 0.07 0.09 0.08 0.08 0.10 0.13 0.15 0.14 0.15 0.16 0.16
0.04 0.03 0.02 0.02 0.02 0.03 0.03 0.02 0.02 0.02 0.02 0.02 0.02 0.01 0.02 0.02 0.01 0.01 0.02 0.02 0.01 0.02 0.03 0.03 0.03 0.03 0.04 0.05 0.07 0.07 0.06 0.06 0.06 0.07 0.09 0.09 0.10 0.10 0.12 0.13 0.16 0.19 0.20 0.19
0.06 0.05 0.03 0.02 0.02 0.03 0.03 0.02 0.03 0.03 0.02 0.02 0.02 0.02 0.02 0.02 0.02 0.02 0.02 0.03 0.02 0.03 0.04 0.05 0.04 0.04 0.06 0.08 0.10 0.09 0.08 0.08 0.08 0.10 0.12 0.13 0.15 0.16 0.15 0.16 0.19 0.22 0.21 0.21
0.07 0.06 0.04 0.03 0.02 0.03 0.03 0.03 0.03 0.03 0.03 0.03 0.02 0.02 0.02 0.02 0.03 0.03 0.03 0.04 0.04 0.06 0.07 0.07 0.06 0.08 0.12 0.15 0.12 0.12 0.12 0.13 0.14 0.15 0.17 0.19 0.20 0.20 0.21 0.21 0.21 0.21 0.21 0.23
0.05 0.04 0.04 0.03 0.03 0.03 0.04 0.04 0.03 0.03 0.03 0.03 0.02 0.02 0.02 0.02 0.03 0.04 0.04 0.05 0.06 0.08 0.09 0.10 0.10 0.13 0.19 0.16 0.14 0.14 0.16 0.18 0.18 0.18 0.20 0.24 0.26 0.27 0.27 0.28 0.27 0.25 0.25 0.27
0.05 0.04 0.05 0.05 0.05 0.06 0.07 0.06 0.05 0.04 0.04 0.03 0.02 0.02 0.03 0.04 0.05 0.05 0.06 0.06 0.07 0.09 0.10 0.11 0.14 0.18 0.20 0.16 0.15 0.15 0.16 0.19 0.20 0.20 0.23 0.27 0.29 0.29 0.29 0.29 0.28 0.27 0.28 0.29
0.06 0.06 0.07 0.07 0.07 0.08 0.08 0.07 0.07 0.06 0.06 0.06 0.05 0.05 0.05 0.06 0.07 0.08 0.09 0.10 0.11 0.12 0.12 0.14 0.17 0.18 0.17 0.17 0.18 0.18 0.19 0.21 0.25 0.27 0.27 0.28 0.30 0.31 0.31 0.32 0.33 0.34 0.34 0.34
0.08 0.08 0.08 0.08 0.08 0.09 0.08 0.09 0.09 0.09 0.10 0.10 0.10 0.09 0.09 0.10 0.10 0.11 0.13 0.15 0.17 0.18 0.18 0.20 0.22 0.22 0.21 0.22 0.22 0.23 0.23 0.25 0.27 0.29 0.30 0.31 0.32 0.33 0.34 0.35 0.36 0.38 0.39 0.41
0.13 0.11 0.10 0.10 0.10 0.11 0.12 0.13 0.14 0.14 0.14 0.15 0.13 0.12 0.13 0.15 0.16 0.16 0.16 0.18 0.21 0.23 0.23 0.24 0.26 0.28 0.29 0.31 0.31 0.30 0.29 0.29 0.29 0.31 0.33 0.35 0.36 0.37 0.37 0.38 0.38 0.40 0.41 0.42

GEFSNGP_prec_meanprecacc_210.txt.gz
Total_Precipitation_Accumulation
0.12 0.15 0.21 0.39 0.50 0.42 0.31 0.29 0.37 0.37 0.36 0.40 0.48 0.58 0.56 0.50 0.48 0.48 0.46 0.42 0.41 0.41 0.39 0.39 0.39 0.39 0.49 0.63 0.78 0.97 1.18 1.19 1.04 0.96 0.89 0.76 0.70 0.69 0.66 0.70 0.66 0.68 0.77 0.87
0.06 0.07 0.11 0.20 0.24 0.19 0.12 0.16 0.26 0.32 0.38 0.42 0.49 0.56 0.52 0.44 0.37 0.31 0.29 0.28 0.28 0.26 0.24 0.20 0.19 0.21 0.22 0.32 0.50 0.67 0.84 0.93 0.90 0.80 0.70 0.66 0.65 0.62 0.59 0.58 0.54 0.53 0.57 0.64
0.07 0.06 0.08 0.16 0.15 0.16 0.18 0.16 0.17 0.27 0.39 0.47 0.59 0.78 0.69 0.51 0.42 0.30 0.23 0.23 0.22 0.22 0.22 0.20 0.20 0.19 0.20 0.24 0.32 0.42 0.56 0.66 0.66 0.61 0.53 0.50 0.53 0.52 0.48 0.43 0.44 0.42 0.42 0.42
0.14 0.15 0.27 0.27 0.21 0.28 0.36 0.27 0.23 0.30 0.38 0.51 0.84 1.04 0.67 0.44 0.40 0.33 0.23 0.21 0.21 0.21 0.19 0.17 0.17 0.16 0.18 0.20 0.22 0.25 0.31 0.37 0.39 0.39 0.38 0.38 0.39 0.39 0.38 0.38 0.37 0.36 0.41 0.47
0.20 0.23 0.45 0.37 0.19 0.32 0.38 0.31 0.25 0.33 0.38 0.40 0.46 0.42 0.25 0.15 0.16 0.19 0.14 0.11 0.11 0.11 0.10 0.08 0.08 0.09 0.10 0.11 0.13 0.14 0.14 0.16 0.19 0.21 0.24 0.28 0.30 0.34 0.43 0.44 0.42 0.41 0.51 0.58
0.17 0.20 0.31 0.29 0.11 0.18 0.27 0.32 0.14 0.15 0.16 0.11 0.07 0.09 0.12 0.11 0.07 0.06 0.04 0.04 0.04 0.03 0.03 0.02 0.03 0.04 0.04 0.06 0.07 0.08 0.08 0.09 0.11 0.13 0.15 0.20 0.25 0.28 0.29 0.30 0.35 0.42 0.44 0.41
0.12 0.14 0.13 0.08 0.08 0.12 0.27 0.30 0.09 0.05 0.04 0.01 0.01 0.01 0.06 0.11 0.06 0.04 0.03 0.02 0.02 0.02 0.02 0.02 0.02 0.02 0.02 0.04 0.05 0.07 0.08 0.11 0.13 0.13 0.13 0.14 0.12 0.11 0.13 0.18 0.21 0.22 0.24 0.29
0.09 0.12 0.11 0.06 0.09 0.13 0.13 0.07 0.04 0.03 0.02 0.01 0.01 0.01 0.03 0.06 0.04 0.03 0.02 0.02 0.02 0.01 0.02 0.02 0.02 0.02 0.03 0.03 0.05 0.06 0.07 0.09 0.10 0.09 0.08 0.08 0.08 0.08 0.08 0.11 0.14 0.16 0.19 0.25
0.10 0.11 0.10 0.08 0.07 0.05 0.04 0.03 0.02 0.02 0.01 0.01 0.01 0.01 0.01 0.02 0.02 0.01 0.01 0.02 0.02 0.02 0.02 0.03 0.03 0.03 0.03 0.04 0.06 0.07 0.07 0.09 0.10 0.09 0.09 0.07 0.06 0.07 0.08 0.09 0.10 0.12 0.16 0.24
0.11 0.08 0.07 0.07 0.05 0.03 0.02 0.02 0.02 0.02 0.01 0.01 0.01 0.01 0.01 0.01 0.02 0.01 0.01 0.02 0.03 0.03 0.03 0.04 0.04 0.04 0.04 0.05 0.06 0.07 0.07 0.08 0.09 0.10 0.11 0.08 0.08 0.08 0.08 0.07 0.09 0.13 0.20 0.26
0.09 0.06 0.05 0.05 0.04 0.02 0.02 0.01 0.01 0.02 0.01 0.01 0.01 0.01 0.01 0.01 0.01 0.01 0.01 0.01 0.02 0.02 0.03 0.04 0.04 0.04 0.05 0.06 0.05 0.05 0.06 0.08 0.09 0.11 0.11 0.08 0.07 0.07 0.08 0.08 0.11 0.16 0.20 0.23
0.07 0.05 0.04 0.04 0.03 0.02 0.02 0.01 0.02 0.02 0.02 0.01 0.01 0.01 0.01 0.01 0.01 0.01 0.01 0.01 0.02 0.02 0.02 0.04 0.04 0.04 0.05 0.05 0.05 0.05 0.05 0.07 0.08 0.08 0.08 0.08 0.09 0.07 0.07 0.07 0.08 0.10 0.11 0.14
0.05 0.06 0.05 0.03 0.03 0.03 0.04 0.02 0.01 0.02 0.02 0.01 0.01 0.01 0.01 0.01 0.01 0.01 0.01 0.01 0.02 0.02 0.02 0.04 0.04 0.05 0.06 0.06 0.05 0.05 0.05 0.06 0.06 0.06 0.06 0.06 0.09 0.13 0.14 0.11 0.08 0.06 0.07 0.11
0.03 0.05 0.06 0.04 0.03 0.03 0.03 0.03 0.02 0.01 0.01 0.01 0.01 0.01 0.01 0.01 0.01 0.01 0.01 0.01 0.02 0.02 0.02 0.03 0.04 0.05 0.05 0.05 0.04 0.05 0.05 0.05 0.06 0.08 0.08 0.08 0.08 0.13 0.24 0.30 0.25 0.13 0.10 0.10
0.02 0.03 0.05 0.06 0.04 0.04 0.03 0.02 0.02 0.01 0.01 0.01 0.01 0.01 0.01 0.01 0.01 0.02 0.01 0.02 0.02 0.02 0.02 0.03 0.04 0.04 0.04 0.04 0.04 0.04 0.05 0.06 0.09 0.12 0.11 0.09 0.10 0.17 0.23 0.17 0.16 0.18 0.16 0.13
0.02 0.02 0.03 0.06 0.05 0.05 0.04 0.03 0.02 0.01 0.01 0.01 0.01 0.01 0.01 0.02 0.02 0.02 0.02 0.02 0.02 0.02 0.02 0.03 0.04 0.05 0.05 0.04 0.03 0.03 0.03 0.06 0.09 0.15 0.15 0.10 0.11 0.15 0.14 0.13 0.16 0.18 0.18 0.18
0.02 0.02 0.03 0.05 0.05 0.05 0.04 0.03 0.02 0.01 0.01 0.01 0.01 0.01 0.01 0.02 0.02 0.02 0.02 0.02 0.02 0.02 0.02 0.02 0.02 0.04 0.05 0.05 0.04 0.04 0.04 0.05 0.07 0.10 0.14 0.12 0.12 0.14 0.13 0.14 0.16 0.17 0.16 0.17
0.02 0.02 0.03 0.04 0.05 0.04 0.04 0.03 0.02 0.01 0.01 0.01 0.01 0.01 0.01 0.02 0.02 0.02 0.03 0.02 0.02 0.01 0.02 0.03 0.04 0.04 0.04 0.05 0.05 0.04 0.04 0.05 0.06 0.09 0.11 0.11 0.12 0.14 0.16 0.14 0.13 0.15 0.16 0.17
0.03 0.03 0.03 0.04 0.05 0.05 0.04 0.03 0.02 0.02 0.01 0.02 0.02 0.01 0.02 0.02 0.01 0.02 0.03 0.02 0.02 0.01 0.02 0.02 0.03 0.03 0.04 0.05 0.06 0.06 0.05 0.06 0.06 0.08 0.09 0.09 0.09 0.10 0.15 0.16 0.15 0.16 0.17 0.17
0.05 0.05 0.04 0.04 0.04 0.05 0.04 0.03 0.03 0.02 0.02 0.02 0.02 0.02 0.02 0.02 0.02 0.02 0.02 0.02 0.02 0.02 0.03 0.03 0.04 0.04 0.04 0.05 0.07 0.07 0.06 0.06 0.06 0.08 0.09 0.09 0.10 0.11 0.12 0.14 0.17 0.21 0.21 0.20
0.09 0.07 0.06 0.04 0.05 0.05 0.04 0.04 0.03 0.03 0.03 0.03 0.03 0.03 0.02 0.02 0.03 0.02 0.02 0.03 0.03 0.03 0.04 0.05 0.04 0.04 0.06 0.08 0.10 0.09 0.08 0.08 0.08 0.10 0.12 0.13 0.15 0.16 0.16 0.17 0.20 0.24 0.23 0.23
0.10 0.08 0.07 0.05 0.05 0.05 0.05 0.05 0.04 0.04 0.04 0.04 0.03 0.03 0.03 0.03 0.03 0.04 0.04 0.04 0.04 0.06 0.07 0.07 0.07 0.08 0.13 0.15 0.12 0.12 0.12 0.13 0.14 0.15 0.17 0.19 0.20 0.21 0.22 0.22 0.23 0.23 0.23 0.25
0.07 0.07 0.07 0.05 0.05 0.06 0.07 0.06 0.06 0.05 0.05 0.05 0.04 0.03 0.03 0.03 0.04 0.05 0.05 0.05 0.06 0.08 0.09 0.10 0.11 0.14 0.19 0.17 0.14 0.15 0.16 0.18 0.18 0.18 0.20 0.24 0.26 0.28 0.28 0.29 0.29 0.26 0.27 0.28
0.07 0.07 0.07 0.08 0.08 0.09 0.10 0.08 0.07 0.06 0.06 0.06 0.04 0.04 0.04 0.05 0.06 0.06 0.06 0.07 0.08 0.10 0.10 0.12 0.15 0.18 0.21 0.17 0.16 0.15 0.17 0.19 0.20 0.20 0.23 0.27 0.30 0.30 0.30 0.30 0.30 0.29 0.29 0.31
0.09 0.09 0.09 0.11 0.12 0.11 0.10 0.10 0.09 0.08 0.08 0.08 0.07 0.06 0.06 0.07 0.08 0.09 0.10 0.11 0.12 0.13 0.13 0.15 0.18 0.19 0.18 0.18 0.19 0.18 0.19 0.22 0.25 0.27 0.27 0.28 0.30 0.31 0.32 0.33 0.34 0.36 0.35 0.36
0.12 0.11 0.11 0.12 0.13 0.14 0.13 0.14 0.14 0.12 0.12 0.12 0.11 0.10 0.10 0.10 0.10 0.11 0.13 0.16 0.18 0.19 0.18 0.20 0.22 0.23 0.22 0.22 0.23 0.23 0.24 0.26 0.28 0.29 0.30 0.32 0.33 0.34 0.34 0.36 0.37 0.39 0.41 0.42
0.15 0.14 0.14 0.15 0.16 0.16 0.17 0.18 0.18 0.18 0.17 0.16 0.14 0.13 0.14 0.15 0.16 0.16 0.16 0.19 0.22 0.24 0.24 0.24 0.26 0.28 0.30 0.31 0.32 0.30 0.29 0.29 0.29 0.31 0.34 0.36 0.38 0.38 0.38 0.38 0.39 0.41 0.43 0.44

GEFSNGP_prec_meanprecacc_216.txt.gz
Total_Precipitation_Accumulation
0.13 0.15 0.22 0.40 0.52 0.43 0.32 0.30 0.38 0.37 0.36 0.40 0.48 0.58 0.56 0.50 0.48 0.48 0.47 0.42 0.41 0.41 0.39 0.39 0.39 0.39 0.49 0.63 0.78 0.97 1.19 1.19 1.04 0.96 0.89 0.76 0.70 0.70 0.67 0.71 0.68 0.70 0.79 0.89
0.06 0.08 0.11 0.21 0.25 0.20 0.14 0.17 0.26 0.32 0.38 0.42 0.49 0.56 0.52 0.44 0.37 0.31 0.29 0.29 0.28 0.26 0.24 0.20 0.19 0.21 0.22 0.32 0.50 0.67 0.84 0.93 0.90 0.81 0.71 0.67 0.66 0.63 0.60 0.59 0.55 0.55 0.58 0.65
0.07 0.06 0.09 0.17 0.16 0.17 0.20 0.18 0.19 0.28 0.40 0.47 0.59 0.78 0.69 0.51 0.43 0.30 0.24 0.23 0.23 0.22 0.22 0.20 0.20 0.19 0.20 0.25 0.32 0.42 0.56 0.67 0.67 0.61 0.54 0.51 0.54 0.53 0.49 0.44 0.45 0.43 0.43 0.43
0.14 0.15 0.27 0.27 0.21 0.29 0.38 0.30 0.25 0.32 0.39 0.51 0.84 1.04 0.67 0.44 0.40 0.33 0.24 0.22 0.21 0.21 0.19 0.18 0.17 0.17 0.18 0.21 0.23 0.25 0.32 0.39 0.41 0.40 0.38 0.38 0.39 0.40 0.39 0.38 0.37 0.36 0.42 0.48
0.20 0.23 0.45 0.38 0.20 0.32 0.39 0.34 0.26 0.34 0.39 0.41 0.46 0.42 0.25 0.15 0.16 0.19 0.14 0.12 0.11 0.11 0.10 0.08 0.08 0.09 0.11 0.12 0.13 0.14 0.15 0.18 0.20 0.21 0.25 0.29 0.31 0.35 0.43 0.45 0.42 0.42 0.51 0.58
0.17 0.21 0.31 0.29 0.11 0.18 0.27 0.34 0.15 0.15 0.17 0.12 0.08 0.09 0.12 0.11 0.07 0.06 0.05 0.05 0.05 0.04 0.03 0.02 0.03 0.04 0.05 0.07 0.08 0.09 0.09 0.10 0.12 0.14 0.17 0.21 0.25 0.28 0.29 0.30 0.35 0.42 0.44 0.42
0.12 0.15 0.14 0.08 0.08 0.12 0.28 0.31 0.10 0.06 0.05 0.02 0.02 0.02 0.07 0.11 0.06 0.04 0.03 0.03 0.03 0.02 0.02 0.02 0.02 0.03 0.03 0.05 0.06 0.08 0.10 0.12 0.14 0.14 0.15 0.16 0.14 0.11 0.14 0.19 0.21 0.22 0.24 0.29
0.09 0.13 0.11 0.06 0.09 0.14 0.14 0.08 0.05 0.04 0.03 0.02 0.01 0.01 0.03 0.06 0.04 0.03 0.02 0.02 0.02 0.02 0.03 0.03 0.02 0.03 0.03 0.04 0.06 0.08 0.09 0.10 0.11 0.10 0.09 0.09 0.09 0.08 0.09 0.12 0.14 0.17 0.20 0.26
0.11 0.11 0.11 0.08 0.08 0.06 0.04 0.04 0.03 0.03 0.02 0.02 0.02 0.01 0.01 0.02 0.02 0.01 0.02 0.03 0.03 0.04 0.06 0.06 0.03 0.03 0.04 0.05 0.08 0.08 0.09 0.10 0.10 0.09 0.10 0.08 0.07 0.07 0.08 0.09 0.11 0.13 0.17 0.24
0.11 0.08 0.07 0.07 0.05 0.03 0.02 0.02 0.02 0.03 0.02 0.01 0.01 0.01 0.01 0.01 0.02 0.01 0.01 0.03 0.04 0.07 0.10 0.10 0.05 0.05 0.05 0.06 0.07 0.09 0.09 0.09 0.10 0.10 0.11 0.09 0.08 0.08 0.08 0.07 0.10 0.13 0.20 0.27
0.09 0.06 0.05 0.05 0.04 0.02 0.02 0.01 0.02 0.02 0.01 0.01 0.01 0.01 0.01 0.01 0.01 0.01 0.01 0.02 0.04 0.08 0.09 0.09 0.08 0.07 0.07 0.07 0.06 0.06 0.07 0.09 0.09 0.12 0.12 0.09 0.07 0.07 0.08 0.08 0.11 0.16 0.20 0.24
0.07 0.05 0.05 0.04 0.03 0.02 0.02 0.02 0.02 0.03 0.02 0.01 0.01 0.01 0.01 0.01 0.01 0.01 0.01 0.01 0.02 0.04 0.05 0.07 0.08 0.07 0.07 0.07 0.06 0.05 0.06 0.07 0.08 0.08 0.08 0.08 0.09 0.08 0.08 0.08 0.09 0.11 0.11 0.14
0.05 0.06 0.05 0.04 0.03 0.03 0.04 0.02 0.01 0.02 0.03 0.02 0.01 0.01 0.01 0.01 0.01 0.01 0.01 0.01 0.02 0.02 0.03 0.04 0.06 0.06 0.07 0.06 0.06 0.05 0.05 0.06 0.06 0.06 0.06 0.07 0.09 0.13 0.14 0.12 0.09 0.07 0.08 0.12
0.03 0.05 0.06 0.05 0.03 0.03 0.03 0.03 0.02 0.02 0.02 0.02 0.01 0.01 0.01 0.01 0.01 0.01 0.01 0.01 0.02 0.02 0.02 0.03 0.04 0.05 0.05 0.05 0.04 0.05 0.05 0.05 0.06 0.08 0.08 0.08 0.09 0.14 0.25 0.31 0.25 0.14 0.11 0.12
0.03 0.03 0.05 0.06 0.05 0.04 0.03 0.03 0.02 0.02 0.02 0.01 0.01 0.01 0.01 0.01 0.02 0.02 0.02 0.02 0.02 0.02 0.02 0.03 0.04 0.05 0.05 0.04 0.04 0.04 0.05 0.06 0.09 0.12 0.12 0.10 0.11 0.18 0.24 0.19 0.17 0.19 0.17 0.14
0.02 0.02 0.03 0.06 0.06 0.05 0.05 0.04 0.03 0.02 0.02 0.01 0.01 0.01 0.02 0.02 0.02 0.03 0.02 0.02 0.02 0.02 0.02 0.03 0.04 0.05 0.06 0.05 0.03 0.03 0.03 0.06 0.09 0.15 0.16 0.11 0.12 0.16 0.15 0.14 0.17 0.19 0.19 0.18
0.02 0.02 0.03 0.06 0.06 0.06 0.06 0.05 0.04 0.02 0.02 0.02 0.01 0.02 0.02 0.02 0.02 0.03 0.03 0.03 0.02 0.02 0.03 0.03 0.03 0.05 0.06 0.07 0.05 0.04 0.04 0.05 0.07 0.11 0.14 0.12 0.13 0.15 0.14 0.15 0.17 0.17 0.17 0.18
0.03 0.03 0.03 0.05 0.07 0.07 0.06 0.05 0.04 0.02 0.02 0.02 0.02 0.02 0.02 0.02 0.02 0.03 0.03 0.03 0.03 0.02 0.03 0.04 0.05 0.05 0.06 0.06 0.06 0.05 0.05 0.06 0.07 0.10 0.12 0.12 0.13 0.15 0.17 0.15 0.14 0.16 0.17 0.18
0.04 0.04 0.04 0.06 0.08 0.08 0.06 0.05 0.04 0.03 0.02 0.02 0.03 0.02 0.02 0.02 0.02 0.02 0.04 0.03 0.02 0.02 0.02 0.03 0.05 0.04 0.05 0.06 0.07 0.07 0.06 0.07 0.07 0.08 0.10 0.09 0.09 0.11 0.15 0.17 0.16 0.17 0.18 0.18
0.06 0.06 0.06 0.07 0.08 0.07 0.06 0.04 0.04 0.04 0.03 0.03 0.03 0.03 0.03 0.03 0.02 0.02 0.03 0.03 0.03 0.03 0.03 0.04 0.04 0.05 0.05 0.05 0.07 0.08 0.07 0.06 0.07 0.08 0.09 0.10 0.10 0.11 0.13 0.14 0.18 0.21 0.22 0.21
0.10 0.09 0.08 0.07 0.07 0.07 0.06 0.05 0.05 0.05 0.04 0.04 0.04 0.03 0.03 0.03 0.03 0.03 0.03 0.04 0.04 0.04 0.05 0.06 0.05 0.05 0.07 0.09 0.10 0.10 0.09 0.09 0.09 0.10 0.13 0.14 0.15 0.17 0.17 0.17 0.21 0.25 0.23 0.23
0.11 0.10 0.09 0.08 0.08 0.08 0.07 0.06 0.06 0.06 0.06 0.05 0.04 0.04 0.04 0.04 0.05 0.05 0.05 0.06 0.06 0.08 0.08 0.08 0.07 0.09 0.13 0.16 0.13 0.12 0.13 0.14 0.14 0.15 0.17 0.19 0.20 0.21 0.23 0.23 0.24 0.23 0.23 0.25
0.10 0.10 0.10 0.09 0.08 0.08 0.09 0.08 0.07 0.07 0.07 0.06 0.05 0.05 0.05 0.05 0.06 0.07 0.06 0.07 0.08 0.10 0.10 0.11 0.12 0.15 0.20 0.17 0.15 0.15 0.16 0.18 0.19 0.19 0.21 0.24 0.27 0.28 0.29 0.30 0.29 0.27 0.27 0.29
0.10 0.10 0.12 0.11 0.10 0.11 0.12 0.10 0.08 0.08 0.08 0.07 0.06 0.06 0.07 0.08 0.08 0.09 0.09 0.10 0.10 0.11 0.11 0.13 0.16 0.19 0.22 0.18 0.16 0.16 0.17 0.19 0.21 0.21 0.24 0.27 0.30 0.30 0.30 0.31 0.31 0.30 0.30 0.31
0.12 0.12 0.13 0.14 0.14 0.15 0.13 0.12 0.11 0.10 0.10 0.09 0.08 0.08 0.08 0.10 0.11 0.13 0.14 0.15 0.15 0.15 0.14 0.16 0.19 0.20 0.19 0.19 0.19 0.19 0.20 0.22 0.26 0.28 0.28 0.29 0.31 0.32 0.33 0.34 0.35 0.36 0.36 0.36
0.14 0.14 0.14 0.14 0.16 0.17 0.17 0.17 0.18 0.15 0.15 0.14 0.13 0.11 0.12 0.12 0.12 0.13 0.15 0.18 0.19 0.20 0.19 0.21 0.23 0.24 0.23 0.23 0.23 0.24 0.24 0.26 0.28 0.29 0.30 0.33 0.33 0.34 0.35 0.36 0.37 0.40 0.41 0.42
0.17 0.16 0.16 0.17 0.18 0.20 0.22 0.22 0.23 0.21 0.20 0.19 0.17 0.16 0.16 0.18 0.18 0.18 0.18 0.20 0.23 0.24 0.24 0.25 0.26 0.28 0.30 0.32 0.32 0.31 0.30 0.30 0.30 0.32 0.34 0.37 0.38 0.39 0.39 0.39 0.40 0.41 0.43 0.44

GEFSNGP_prec_meanprecacc_222.txt.gz
Total_Precipitation_Accumulation
0.13 0.16 0.23 0.42 0.53 0.43 0.33 0.31 0.39 0.38 0.37 0.41 0.48 0.58 0.56 0.50 0.48 0.48 0.47 0.42 0.42 0.41 0.39 0.40 0.39 0.40 0.49 0.63 0.78 0.97 1.20 1.20 1.04 0.97 0.90 0.77 0.71 0.70 0.67 0.71 0.69 0.71 0.80 0.89
0.07 0.08 0.12 0.22 0.26 0.22 0.15 0.18 0.27 0.33 0.39 0.42 0.49 0.56 0.52 0.44 0.37 0.31 0.29 0.29 0.28 0.26 0.25 0.21 0.20 0.22 0.23 0.32 0.51 0.68 0.85 0.93 0.90 0.81 0.71 0.67 0.66 0.64 0.60 0.59 0.56 0.55 0.59 0.65
0.07 0.06 0.10 0.17 0.17 0.17 0.21 0.19 0.20 0.30 0.41 0.47 0.59 0.78 0.69 0.52 0.43 0.30 0.24 0.23 0.23 0.23 0.22 0.21 0.21 0.20 0.20 0.25 0.32 0.43 0.57 0.67 0.67 0.62 0.55 0.52 0.55 0.53 0.49 0.44 0.45 0.43 0.43 0.44
0.14 0.16 0.28 0.27 0.21 0.29 0.38 0.31 0.25 0.33 0.40 0.51 0.84 1.04 0.67 0.44 0.40 0.33 0.24 0.22 0.22 0.22 0.20 0.18 0.17 0.17 0.19 0.21 0.24 0.26 0.32 0.39 0.41 0.40 0.39 0.39 0.40 0.40 0.40 0.38 0.38 0.36 0.42 0.48
0.21 0.23 0.45 0.38 0.20 0.33 0.39 0.35 0.26 0.34 0.40 0.42 0.47 0.42 0.25 0.15 0.17 0.19 0.15 0.13 0.12 0.12 0.10 0.08 0.08 0.10 0.11 0.13 0.14 0.15 0.16 0.18 0.20 0.22 0.26 0.30 0.32 0.35 0.44 0.45 0.42 0.42 0.51 0.58
0.18 0.21 0.32 0.29 0.11 0.18 0.28 0.34 0.15 0.16 0.18 0.13 0.08 0.09 0.12 0.11 0.07 0.07 0.05 0.05 0.05 0.04 0.04 0.03 0.04 0.05 0.05 0.07 0.09 0.09 0.10 0.10 0.13 0.15 0.17 0.21 0.26 0.29 0.30 0.31 0.36 0.42 0.44 0.42
0.13 0.15 0.14 0.08 0.08 0.12 0.28 0.31 0.10 0.07 0.05 0.03 0.02 0.02 0.07 0.11 0.07 0.04 0.03 0.03 0.03 0.02 0.02 0.03 0.03 0.03 0.03 0.05 0.06 0.08 0.11 0.12 0.14 0.15 0.15 0.16 0.14 0.12 0.14 0.19 0.21 0.23 0.24 0.30
0.10 0.14 0.11 0.06 0.09 0.14 0.14 0.08 0.05 0.04 0.03 0.03 0.02 0.01 0.03 0.06 0.05 0.03 0.02 0.02 0.03 0.03 0.03 0.03 0.03 0.04 0.04 0.04 0.07 0.08 0.10 0.11 0.13 0.11 0.10 0.10 0.10 0.09 0.09 0.12 0.15 0.18 0.21 0.26
0.11 0.12 0.11 0.09 0.08 0.06 0.04 0.04 0.03 0.03 0.02 0.02 0.02 0.02 0.01 0.02 0.03 0.02 0.02 0.03 0.04 0.05 0.09 0.09 0.06 0.05 0.05 0.06 0.08 0.09 0.10 0.11 0.12 0.12 0.12 0.09 0.08 0.08 0.09 0.10 0.12 0.15 0.19 0.25
0.11 0.08 0.07 0.07 0.05 0.03 0.02 0.03 0.02 0.03 0.02 0.02 0.02 0.01 0.01 0.01 0.03 0.02 0.02 0.03 0.06 0.10 0.13 0.15 0.10 0.08 0.07 0.07 0.09 0.10 0.10 0.11 0.12 0.13 0.14 0.11 0.09 0.09 0.08 0.08 0.11 0.15 0.22 0.28
0.09 0.07 0.06 0.05 0.04 0.02 0.02 0.01 0.02 0.02 0.01 0.01 0.01 0.01 0.01 0.02 0.02 0.02 0.02 0.03 0.05 0.10 0.12 0.12 0.12 0.12 0.10 0.10 0.09 0.09 0.09 0.11 0.11 0.14 0.15 0.12 0.09 0.08 0.09 0.09 0.12 0.18 0.21 0.25
0.08 0.05 0.05 0.04 0.03 0.03 0.03 0.02 0.02 0.03 0.02 0.01 0.01 0.02 0.01 0.02 0.02 0.02 0.02 0.02 0.03 0.06 0.07 0.09 0.11 0.12 0.10 0.10 0.09 0.09 0.10 0.10 0.10 0.10 0.10 0.11 0.11 0.09 0.09 0.09 0.10 0.12 0.13 0.16
0.06 0.06 0.05 0.04 0.03 0.03 0.04 0.02 0.01 0.02 0.03 0.02 0.02 0.02 0.02 0.02 0.03 0.03 0.02 0.02 0.02 0.03 0.04 0.05 0.08 0.08 0.08 0.07 0.07 0.06 0.07 0.08 0.08 0.08 0.07 0.08 0.10 0.14 0.15 0.12 0.09 0.08 0.09 0.13
0.04 0.06 0.06 0.05 0.03 0.03 0.03 0.03 0.02 0.02 0.02 0.02 0.02 0.02 0.02 0.03 0.03 0.03 0.02 0.02 0.03 0.03 0.03 0.03 0.05 0.06 0.06 0.05 0.05 0.06 0.06 0.05 0.07 0.10 0.10 0.09 0.10 0.15 0.26 0.31 0.26 0.15 0.12 0.13
0.03 0.04 0.05 0.06 0.05 0.04 0.03 0.03 0.02 0.02 0.02 0.02 0.02 0.02 0.03 0.03 0.03 0.03 0.02 0.03 0.03 0.02 0.02 0.03 0.04 0.05 0.05 0.04 0.04 0.05 0.06 0.07 0.10 0.13 0.13 0.12 0.12 0.19 0.25 0.19 0.18 0.20 0.18 0.15
0.02 0.02 0.04 0.06 0.06 0.05 0.05 0.04 0.03 0.03 0.03 0.02 0.03 0.03 0.04 0.05 0.04 0.03 0.03 0.03 0.02 0.02 0.03 0.03 0.05 0.06 0.06 0.05 0.05 0.04 0.04 0.07 0.10 0.16 0.17 0.12 0.13 0.17 0.16 0.15 0.18 0.20 0.20 0.19
0.02 0.02 0.03 0.06 0.06 0.06 0.06 0.05 0.05 0.04 0.03 0.04 0.04 0.05 0.04 0.04 0.03 0.03 0.03 0.03 0.03 0.03 0.03 0.03 0.04 0.06 0.08 0.08 0.07 0.06 0.05 0.06 0.08 0.12 0.15 0.13 0.14 0.16 0.15 0.16 0.18 0.18 0.18 0.19
0.03 0.03 0.03 0.05 0.07 0.07 0.07 0.06 0.06 0.04 0.04 0.05 0.05 0.05 0.03 0.02 0.02 0.03 0.04 0.03 0.03 0.03 0.04 0.04 0.05 0.06 0.07 0.07 0.07 0.06 0.06 0.06 0.07 0.10 0.12 0.13 0.13 0.16 0.18 0.16 0.15 0.17 0.18 0.19
0.04 0.04 0.04 0.06 0.08 0.08 0.07 0.07 0.06 0.05 0.04 0.04 0.04 0.03 0.03 0.02 0.02 0.02 0.04 0.04 0.03 0.03 0.03 0.04 0.06 0.06 0.06 0.07 0.08 0.08 0.07 0.07 0.07 0.09 0.10 0.10 0.10 0.12 0.16 0.18 0.17 0.18 0.19 0.19
0.07 0.06 0.06 0.07 0.08 0.08 0.07 0.07 0.06 0.06 0.05 0.04 0.04 0.03 0.03 0.03 0.02 0.02 0.04 0.04 0.03 0.04 0.04 0.05 0.05 0.06 0.06 0.06 0.08 0.09 0.08 0.07 0.08 0.09 0.10 0.11 0.11 0.12 0.14 0.15 0.18 0.22 0.22 0.21
0.11 0.10 0.09 0.08 0.08 0.09 0.08 0.07 0.07 0.06 0.05 0.05 0.04 0.04 0.04 0.04 0.04 0.04 0.04 0.05 0.05 0.05 0.06 0.07 0.06 0.06 0.08 0.10 0.11 0.11 0.10 0.09 0.09 0.11 0.14 0.15 0.16 0.18 0.18 0.18 0.21 0.25 0.24 0.24
0.12 0.11 0.10 0.10 0.10 0.11 0.10 0.09 0.08 0.08 0.07 0.06 0.05 0.05 0.05 0.05 0.05 0.06 0.06 0.07 0.07 0.09 0.10 0.09 0.08 0.10 0.15 0.17 0.14 0.13 0.13 0.14 0.15 0.16 0.18 0.20 0.21 0.22 0.23 0.24 0.24 0.24 0.23 0.25
0.10 0.10 0.12 0.12 0.11 0.11 0.11 0.10 0.09 0.09 0.09 0.08 0.07 0.06 0.06 0.06 0.07 0.07 0.07 0.08 0.09 0.12 0.12 0.12 0.13 0.16 0.22 0.19 0.16 0.16 0.17 0.19 0.20 0.19 0.22 0.25 0.27 0.29 0.30 0.31 0.30 0.28 0.27 0.29
0.11 0.12 0.13 0.13 0.12 0.13 0.14 0.12 0.10 0.10 0.10 0.09 0.08 0.08 0.09 0.10 0.10 0.10 0.10 0.11 0.13 0.14 0.12 0.14 0.17 0.21 0.23 0.19 0.17 0.17 0.18 0.20 0.22 0.22 0.25 0.29 0.31 0.31 0.31 0.32 0.32 0.31 0.31 0.32
0.13 0.14 0.14 0.15 0.15 0.16 0.15 0.14 0.13 0.12 0.12 0.12 0.11 0.10 0.11 0.12 0.14 0.15 0.17 0.17 0.17 0.17 0.16 0.18 0.20 0.21 0.20 0.20 0.20 0.20 0.21 0.23 0.27 0.29 0.29 0.30 0.32 0.33 0.34 0.35 0.36 0.37 0.37 0.37
0.16 0.16 0.16 0.15 0.17 0.19 0.18 0.20 0.20 0.17 0.18 0.18 0.16 0.14 0.15 0.15 0.15 0.16 0.18 0.20 0.22 0.23 0.22 0.23 0.24 0.25 0.23 0.24 0.24 0.24 0.25 0.27 0.29 0.30 0.31 0.33 0.34 0.35 0.36 0.37 0.38 0.40 0.42 0.43
0.19 0.18 0.18 0.19 0.20 0.22 0.24 0.25 0.26 0.25 0.24 0.23 0.20 0.19 0.20 0.21 0.21 0.20 0.20 0.22 0.25 0.26 0.26 0.27 0.28 0.30 0.31 0.32 0.33 0.32 0.31 0.31 0.31 0.32 0.35 0.37 0.39 0.39 0.39 0.39 0.40 0.42 0.44 0.44

GEFSNGP_prec_meanprecacc_228.txt.gz
Total_Precipitation_Accumulation
0.14 0.16 0.23 0.42 0.53 0.44 0.34 0.31 0.39 0.38 0.37 0.41 0.48 0.58 0.57 0.51 0.49 0.48 0.47 0.43 0.42 0.42 0.40 0.40 0.40 0.40 0.49 0.64 0.79 0.98 1.22 1.21 1.06 0.98 0.91 0.78 0.71 0.71 0.69 0.73 0.70 0.71 0.80 0.90
0.07 0.09 0.12 0.22 0.26 0.22 0.15 0.19 0.28 0.34 0.39 0.43 0.50 0.57 0.53 0.45 0.38 0.32 0.30 0.29 0.29 0.27 0.26 0.22 0.21 0.22 0.23 0.33 0.52 0.70 0.88 0.96 0.92 0.82 0.72 0.68 0.67 0.65 0.62 0.62 0.57 0.56 0.59 0.66
0.07 0.07 0.10 0.18 0.17 0.17 0.21 0.20 0.21 0.32 0.43 0.47 0.60 0.79 0.70 0.53 0.43 0.30 0.24 0.24 0.24 0.23 0.23 0.22 0.21 0.21 0.21 0.26 0.33 0.45 0.59 0.68 0.68 0.62 0.56 0.53 0.56 0.55 0.51 0.45 0.46 0.44 0.44 0.44
0.15 0.16 0.28 0.28 0.21 0.29 0.38 0.31 0.26 0.34 0.42 0.52 0.85 1.06 0.69 0.45 0.41 0.34 0.24 0.22 0.22 0.22 0.20 0.18 0.18 0.19 0.21 0.23 0.25 0.28 0.35 0.41 0.42 0.41 0.41 0.41 0.42 0.42 0.40 0.39 0.38 0.37 0.42 0.49
0.22 0.24 0.45 0.38 0.20 0.33 0.40 0.35 0.27 0.34 0.41 0.43 0.47 0.43 0.27 0.17 0.17 0.20 0.15 0.13 0.12 0.12 0.11 0.09 0.09 0.11 0.12 0.14 0.15 0.17 0.18 0.20 0.22 0.23 0.27 0.32 0.33 0.37 0.45 0.46 0.43 0.43 0.52 0.59
0.19 0.22 0.32 0.29 0.11 0.18 0.28 0.34 0.16 0.16 0.18 0.14 0.10 0.11 0.14 0.12 0.08 0.07 0.06 0.06 0.05 0.04 0.04 0.04 0.05 0.06 0.07 0.09 0.10 0.10 0.11 0.11 0.14 0.16 0.19 0.23 0.28 0.31 0.32 0.32 0.37 0.44 0.45 0.43
0.13 0.16 0.14 0.08 0.08 0.12 0.28 0.31 0.10 0.07 0.06 0.03 0.03 0.04 0.08 0.12 0.07 0.05 0.04 0.04 0.04 0.03 0.03 0.04 0.04 0.05 0.05 0.06 0.08 0.09 0.12 0.13 0.15 0.17 0.17 0.19 0.17 0.14 0.16 0.21 0.23 0.25 0.26 0.31
0.11 0.15 0.12 0.06 0.09 0.14 0.14 0.08 0.05 0.04 0.03 0.03 0.02 0.02 0.04 0.07 0.05 0.04 0.03 0.03 0.04 0.04 0.04 0.04 0.04 0.05 0.05 0.06 0.08 0.09 0.10 0.12 0.13 0.12 0.12 0.13 0.13 0.11 0.11 0.15 0.18 0.21 0.23 0.28
0.13 0.12 0.11 0.09 0.08 0.06 0.04 0.04 0.03 0.03 0.03 0.03 0.02 0.02 0.01 0.03 0.03 0.02 0.02 0.04 0.05 0.07 0.11 0.11 0.07 0.06 0.06 0.07 0.09 0.10 0.10 0.12 0.13 0.12 0.12 0.10 0.09 0.10 0.11 0.13 0.16 0.19 0.23 0.29
0.12 0.08 0.08 0.07 0.05 0.03 0.02 0.03 0.02 0.03 0.02 0.02 0.02 0.02 0.01 0.02 0.03 0.02 0.02 0.05 0.08 0.12 0.15 0.17 0.12 0.10 0.09 0.09 0.10 0.11 0.11 0.11 0.12 0.14 0.15 0.11 0.10 0.10 0.10 0.11 0.14 0.18 0.25 0.31
0.10 0.07 0.06 0.06 0.04 0.03 0.02 0.01 0.02 0.02 0.01 0.01 0.01 0.01 0.01 0.02 0.02 0.02 0.03 0.03 0.07 0.13 0.14 0.14 0.14 0.13 0.12 0.12 0.10 0.10 0.10 0.12 0.12 0.15 0.16 0.13 0.10 0.09 0.10 0.10 0.14 0.19 0.23 0.28
0.09 0.06 0.05 0.04 0.03 0.03 0.03 0.02 0.02 0.03 0.02 0.01 0.01 0.02 0.01 0.02 0.02 0.02 0.02 0.03 0.05 0.08 0.10 0.11 0.12 0.13 0.11 0.11 0.11 0.11 0.12 0.12 0.12 0.11 0.11 0.13 0.14 0.11 0.10 0.10 0.12 0.13 0.14 0.18
0.07 0.07 0.05 0.04 0.03 0.03 0.04 0.02 0.01 0.02 0.03 0.02 0.02 0.02 0.02 0.02 0.03 0.03 0.03 0.03 0.05 0.06 0.06 0.08 0.09 0.09 0.09 0.08 0.08 0.07 0.09 0.10 0.10 0.10 0.09 0.09 0.12 0.17 0.18 0.14 0.10 0.08 0.09 0.14
0.05 0.06 0.07 0.05 0.03 0.04 0.04 0.03 0.02 0.02 0.02 0.03 0.02 0.02 0.03 0.03 0.03 0.03 0.04 0.04 0.05 0.06 0.06 0.05 0.06 0.06 0.07 0.06 0.06 0.07 0.08 0.08 0.09 0.11 0.11 0.10 0.11 0.17 0.29 0.34 0.28 0.16 0.13 0.14
0.04 0.05 0.06 0.07 0.05 0.04 0.03 0.03 0.02 0.02 0.02 0.02 0.02 0.03 0.03 0.04 0.04 0.05 0.05 0.05 0.05 0.05 0.05 0.04 0.05 0.06 0.06 0.05 0.05 0.06 0.08 0.09 0.13 0.17 0.15 0.13 0.14 0.21 0.28 0.21 0.19 0.21 0.19 0.16
0.03 0.03 0.05 0.07 0.07 0.06 0.05 0.04 0.03 0.03 0.03 0.02 0.03 0.04 0.05 0.06 0.07 0.08 0.06 0.06 0.05 0.04 0.04 0.04 0.05 0.06 0.07 0.06 0.05 0.05 0.06 0.10 0.13 0.21 0.20 0.14 0.15 0.19 0.17 0.16 0.18 0.20 0.20 0.19
0.03 0.03 0.04 0.07 0.07 0.07 0.06 0.06 0.05 0.04 0.03 0.04 0.05 0.06 0.06 0.06 0.08 0.08 0.07 0.06 0.05 0.03 0.03 0.04 0.04 0.06 0.08 0.09 0.08 0.07 0.07 0.09 0.11 0.16 0.19 0.15 0.15 0.17 0.16 0.16 0.18 0.19 0.18 0.19
0.04 0.03 0.04 0.06 0.07 0.08 0.07 0.07 0.06 0.04 0.04 0.05 0.06 0.07 0.06 0.07 0.08 0.08 0.07 0.06 0.05 0.04 0.05 0.05 0.06 0.07 0.08 0.09 0.08 0.07 0.08 0.10 0.11 0.13 0.15 0.15 0.15 0.17 0.18 0.16 0.15 0.17 0.18 0.19
0.06 0.06 0.06 0.07 0.09 0.09 0.08 0.07 0.06 0.05 0.05 0.06 0.06 0.06 0.06 0.08 0.08 0.07 0.07 0.06 0.05 0.05 0.05 0.05 0.07 0.07 0.07 0.08 0.09 0.09 0.10 0.11 0.11 0.12 0.13 0.12 0.12 0.13 0.16 0.18 0.17 0.18 0.20 0.20
0.09 0.09 0.09 0.09 0.09 0.09 0.08 0.07 0.07 0.07 0.07 0.07 0.07 0.06 0.07 0.08 0.06 0.04 0.05 0.05 0.04 0.04 0.05 0.06 0.06 0.07 0.06 0.07 0.09 0.10 0.11 0.11 0.11 0.12 0.13 0.13 0.13 0.13 0.14 0.15 0.19 0.23 0.23 0.22
0.13 0.11 0.10 0.09 0.09 0.09 0.09 0.08 0.08 0.08 0.07 0.07 0.08 0.07 0.07 0.06 0.05 0.05 0.05 0.07 0.07 0.06 0.07 0.09 0.07 0.07 0.08 0.11 0.12 0.12 0.12 0.12 0.12 0.14 0.16 0.17 0.18 0.19 0.19 0.19 0.22 0.27 0.25 0.25
0.13 0.12 0.10 0.10 0.11 0.12 0.11 0.10 0.10 0.09 0.09 0.08 0.07 0.06 0.06 0.06 0.06 0.07 0.07 0.08 0.09 0.11 0.11 0.11 0.09 0.11 0.16 0.19 0.15 0.14 0.15 0.16 0.17 0.18 0.20 0.21 0.22 0.23 0.24 0.25 0.25 0.25 0.24 0.26
0.11 0.11 0.12 0.12 0.11 0.12 0.12 0.11 0.10 0.10 0.11 0.10 0.08 0.07 0.07 0.07 0.07 0.08 0.09 0.09 0.10 0.13 0.14 0.14 0.15 0.18 0.24 0.20 0.18 0.18 0.19 0.21 0.22 0.21 0.23 0.26 0.28 0.29 0.30 0.31 0.31 0.29 0.28 0.30
0.12 0.13 0.15 0.15 0.13 0.14 0.15 0.13 0.11 0.11 0.11 0.10 0.09 0.08 0.10 0.12 0.12 0.11 0.12 0.13 0.15 0.16 0.15 0.17 0.20 0.23 0.25 0.21 0.19 0.19 0.20 0.22 0.23 0.23 0.26 0.30 0.32 0.32 0.32 0.33 0.33 0.32 0.32 0.33
0.15 0.15 0.16 0.16 0.17 0.17 0.16 0.15 0.14 0.13 0.13 0.13 0.12 0.11 0.12 0.14 0.16 0.17 0.19 0.19 0.19 0.19 0.18 0.20 0.23 0.24 0.22 0.22 0.22 0.22 0.23 0.25 0.28 0.30 0.30 0.31 0.33 0.34 0.35 0.36 0.37 0.38 0.38 0.38
0.18 0.18 0.17 0.17 0.19 0.20 0.20 0.21 0.21 0.19 0.19 0.19 0.17 0.15 0.16 0.16 0.17 0.18 0.20 0.22 0.24 0.25 0.24 0.25 0.27 0.28 0.26 0.26 0.27 0.27 0.28 0.29 0.30 0.31 0.32 0.35 0.35 0.36 0.37 0.38 0.39 0.41 0.43 0.44
0.22 0.20 0.20 0.21 0.22 0.23 0.25 0.26 0.27 0.26 0.25 0.24 0.22 0.20 0.21 0.22 0.22 0.22 0.22 0.24 0.27 0.28 0.28 0.29 0.31 0.34 0.36 0.37 0.37 0.35 0.33 0.32 0.32 0.33 0.36 0.39 0.40 0.41 0.40 0.40 0.41 0.43 0.45 0.46

GEFSNGP_prec_meanprecacc_234.txt.gz
Total_Precipitation_Accumulation
0.14 0.16 0.23 0.42 0.53 0.44 0.34 0.31 0.39 0.38 0.37 0.41 0.49 0.59 0.57 0.51 0.50 0.49 0.48 0.43 0.43 0.42 0.40 0.41 0.41 0.41 0.50 0.65 0.80 1.00 1.23 1.22 1.07 0.99 0.93 0.79 0.72 0.71 0.69 0.73 0.71 0.72 0.81 0.91
0.07 0.09 0.13 0.22 0.26 0.22 0.15 0.19 0.28 0.34 0.39 0.43 0.50 0.57 0.53 0.45 0.38 0.32 0.30 0.30 0.30 0.28 0.26 0.22 0.21 0.23 0.24 0.34 0.53 0.71 0.88 0.96 0.92 0.83 0.73 0.69 0.68 0.66 0.63 0.62 0.58 0.57 0.60 0.66
0.08 0.07 0.10 0.18 0.17 0.17 0.21 0.20 0.21 0.32 0.43 0.47 0.60 0.79 0.70 0.53 0.43 0.31 0.25 0.24 0.24 0.23 0.23 0.22 0.22 0.21 0.22 0.26 0.34 0.45 0.59 0.69 0.68 0.63 0.56 0.54 0.57 0.55 0.51 0.46 0.47 0.44 0.44 0.45
0.15 0.17 0.28 0.28 0.21 0.29 0.38 0.31 0.26 0.34 0.42 0.52 0.85 1.06 0.69 0.45 0.41 0.34 0.25 0.23 0.22 0.23 0.20 0.19 0.19 0.19 0.21 0.23 0.25 0.28 0.35 0.41 0.43 0.42 0.41 0.41 0.42 0.42 0.41 0.40 0.39 0.38 0.43 0.50
0.22 0.24 0.45 0.38 0.20 0.33 0.40 0.35 0.27 0.34 0.41 0.43 0.47 0.43 0.27 0.17 0.18 0.20 0.16 0.14 0.13 0.13 0.11 0.09 0.09 0.11 0.12 0.14 0.16 0.17 0.18 0.21 0.22 0.23 0.27 0.32 0.33 0.37 0.45 0.47 0.44 0.44 0.54 0.61
0.19 0.22 0.33 0.29 0.11 0.18 0.28 0.35 0.16 0.16 0.18 0.14 0.10 0.11 0.14 0.13 0.09 0.08 0.07 0.06 0.06 0.05 0.05 0.04 0.05 0.06 0.07 0.09 0.10 0.11 0.11 0.11 0.15 0.17 0.19 0.23 0.28 0.31 0.32 0.33 0.39 0.46 0.47 0.45
0.14 0.16 0.14 0.08 0.08 0.12 0.28 0.31 0.10 0.07 0.06 0.03 0.03 0.04 0.08 0.12 0.08 0.06 0.05 0.05 0.05 0.03 0.03 0.04 0.04 0.05 0.05 0.06 0.08 0.10 0.13 0.14 0.16 0.17 0.18 0.20 0.17 0.15 0.17 0.22 0.25 0.26 0.28 0.33
0.12 0.15 0.12 0.07 0.09 0.14 0.14 0.08 0.05 0.04 0.04 0.03 0.03 0.02 0.04 0.07 0.06 0.04 0.04 0.05 0.05 0.05 0.05 0.05 0.04 0.05 0.05 0.06 0.08 0.10 0.11 0.13 0.14 0.13 0.12 0.14 0.13 0.11 0.12 0.15 0.19 0.22 0.25 0.29
0.13 0.13 0.11 0.09 0.08 0.06 0.04 0.04 0.03 0.03 0.03 0.03 0.03 0.02 0.02 0.03 0.04 0.03 0.03 0.06 0.07 0.09 0.12 0.11 0.08 0.06 0.06 0.07 0.09 0.10 0.11 0.13 0.14 0.14 0.13 0.11 0.09 0.10 0.11 0.13 0.16 0.20 0.24 0.30
0.13 0.09 0.08 0.07 0.05 0.03 0.02 0.03 0.02 0.03 0.02 0.03 0.03 0.04 0.03 0.02 0.03 0.03 0.03 0.06 0.10 0.14 0.16 0.17 0.13 0.10 0.09 0.09 0.10 0.11 0.11 0.12 0.13 0.15 0.16 0.12 0.11 0.11 0.10 0.11 0.14 0.19 0.26 0.32
0.12 0.08 0.07 0.06 0.04 0.03 0.02 0.01 0.02 0.02 0.01 0.01 0.02 0.02 0.02 0.02 0.02 0.03 0.03 0.04 0.08 0.14 0.15 0.15 0.14 0.14 0.12 0.12 0.10 0.10 0.11 0.13 0.13 0.16 0.18 0.14 0.11 0.10 0.11 0.11 0.16 0.21 0.25 0.30
0.11 0.07 0.06 0.05 0.04 0.03 0.03 0.02 0.02 0.03 0.02 0.01 0.01 0.02 0.01 0.02 0.02 0.03 0.03 0.03 0.05 0.08 0.10 0.11 0.12 0.14 0.11 0.11 0.11 0.11 0.12 0.13 0.13 0.12 0.13 0.14 0.15 0.12 0.11 0.11 0.13 0.15 0.16 0.19
0.09 0.09 0.07 0.05 0.04 0.04 0.04 0.03 0.02 0.02 0.03 0.02 0.02 0.02 0.02 0.03 0.03 0.03 0.03 0.04 0.05 0.06 0.06 0.09 0.10 0.10 0.09 0.09 0.08 0.08 0.09 0.10 0.11 0.11 0.09 0.10 0.13 0.18 0.18 0.15 0.11 0.10 0.10 0.15
0.08 0.09 0.09 0.07 0.05 0.04 0.04 0.03 0.02 0.02 0.02 0.03 0.02 0.03 0.03 0.03 0.03 0.04 0.04 0.05 0.05 0.07 0.06 0.06 0.07 0.08 0.08 0.07 0.07 0.07 0.08 0.08 0.10 0.12 0.11 0.11 0.12 0.18 0.30 0.35 0.28 0.17 0.13 0.14
0.06 0.07 0.08 0.09 0.07 0.05 0.04 0.03 0.03 0.03 0.03 0.03 0.03 0.03 0.04 0.04 0.05 0.05 0.05 0.06 0.06 0.06 0.06 0.06 0.06 0.07 0.07 0.06 0.06 0.07 0.09 0.10 0.14 0.18 0.16 0.14 0.15 0.23 0.29 0.23 0.22 0.23 0.20 0.17
0.03 0.04 0.06 0.09 0.09 0.07 0.06 0.05 0.04 0.04 0.03 0.03 0.04 0.05 0.05 0.06 0.08 0.09 0.07 0.07 0.06 0.05 0.06 0.06 0.06 0.08 0.08 0.07 0.07 0.06 0.07 0.10 0.15 0.22 0.22 0.15 0.16 0.20 0.19 0.19 0.22 0.24 0.23 0.22
0.03 0.03 0.04 0.07 0.08 0.08 0.08 0.07 0.06 0.05 0.04 0.04 0.06 0.06 0.07 0.07 0.08 0.08 0.08 0.08 0.06 0.05 0.06 0.07 0.06 0.08 0.10 0.10 0.09 0.08 0.09 0.10 0.13 0.19 0.22 0.17 0.16 0.18 0.17 0.17 0.21 0.22 0.21 0.22
0.05 0.04 0.04 0.06 0.08 0.09 0.09 0.08 0.07 0.05 0.05 0.06 0.06 0.07 0.07 0.07 0.09 0.09 0.10 0.09 0.07 0.07 0.08 0.10 0.10 0.09 0.10 0.10 0.09 0.08 0.10 0.11 0.12 0.15 0.18 0.17 0.16 0.18 0.19 0.18 0.17 0.18 0.20 0.21
0.08 0.08 0.08 0.09 0.11 0.10 0.09 0.08 0.07 0.06 0.06 0.06 0.07 0.07 0.07 0.09 0.10 0.09 0.11 0.10 0.08 0.08 0.09 0.10 0.11 0.10 0.09 0.09 0.10 0.10 0.11 0.13 0.13 0.14 0.15 0.15 0.15 0.15 0.18 0.19 0.18 0.19 0.21 0.21
0.13 0.13 0.12 0.12 0.13 0.11 0.10 0.09 0.08 0.08 0.08 0.08 0.08 0.08 0.09 0.10 0.09 0.10 0.11 0.10 0.08 0.08 0.08 0.08 0.08 0.08 0.08 0.08 0.10 0.11 0.12 0.13 0.14 0.14 0.15 0.15 0.16 0.16 0.17 0.17 0.20 0.24 0.24 0.23
0.17 0.15 0.13 0.12 0.12 0.12 0.11 0.10 0.11 0.10 0.09 0.10 0.11 0.11 0.12 0.12 0.12 0.11 0.11 0.11 0.10 0.09 0.09 0.10 0.09 0.08 0.10 0.12 0.14 0.13 0.13 0.14 0.15 0.16 0.18 0.19 0.20 0.21 0.21 0.21 0.23 0.28 0.26 0.25
0.16 0.15 0.14 0.13 0.13 0.14 0.13 0.12 0.12 0.12 0.11 0.11 0.11 0.11 0.12 0.13 0.12 0.11 0.10 0.11 0.12 0.13 0.13 0.12 0.11 0.13 0.17 0.20 0.17 0.16 0.16 0.18 0.19 0.20 0.22 0.23 0.24 0.25 0.26 0.26 0.26 0.25 0.25 0.27
0.14 0.14 0.15 0.15 0.14 0.14 0.15 0.14 0.13 0.13 0.13 0.13 0.11 0.11 0.11 0.11 0.11 0.10 0.11 0.11 0.12 0.16 0.16 0.16 0.17 0.20 0.26 0.22 0.20 0.20 0.20 0.22 0.23 0.23 0.25 0.28 0.29 0.31 0.31 0.32 0.32 0.29 0.29 0.31
0.15 0.15 0.17 0.17 0.15 0.16 0.17 0.15 0.13 0.12 0.13 0.12 0.11 0.10 0.12 0.13 0.13 0.13 0.13 0.15 0.16 0.18 0.16 0.19 0.22 0.25 0.27 0.22 0.21 0.20 0.21 0.23 0.25 0.25 0.28 0.31 0.33 0.33 0.33 0.33 0.33 0.33 0.33 0.34
0.16 0.17 0.17 0.18 0.18 0.18 0.17 0.17 0.16 0.15 0.14 0.14 0.13 0.12 0.13 0.15 0.17 0.19 0.20 0.20 0.20 0.20 0.19 0.22 0.25 0.26 0.23 0.23 0.24 0.24 0.24 0.26 0.30 0.32 0.33 0.34 0.34 0.35 0.35 0.37 0.38 0.39 0.39 0.39
0.18 0.18 0.18 0.18 0.19 0.21 0.20 0.21 0.22 0.19 0.19 0.19 0.17 0.16 0.17 0.17 0.18 0.19 0.21 0.23 0.25 0.27 0.25 0.26 0.28 0.29 0.28 0.28 0.28 0.29 0.29 0.31 0.33 0.33 0.35 0.37 0.38 0.38 0.38 0.39 0.40 0.42 0.44 0.45
0.22 0.21 0.20 0.21 0.22 0.24 0.25 0.26 0.27 0.26 0.26 0.25 0.23 0.21 0.22 0.23 0.23 0.23 0.23 0.25 0.28 0.29 0.29 0.30 0.32 0.35 0.37 0.38 0.38 0.37 0.36 0.34 0.34 0.35 0.38 0.41 0.43 0.43 0.42 0.42 0.43 0.44 0.47 0.48

GEFSNGP_prec_meanprecacc_240.txt.gz
Total_Precipitation_Accumulation
0.14 0.17 0.23 0.42 0.53 0.44 0.34 0.31 0.39 0.38 0.37 0.41 0.49 0.59 0.57 0.52 0.50 0.49 0.48 0.43 0.43 0.42 0.41 0.41 0.41 0.41 0.50 0.65 0.80 1.00 1.23 1.22 1.07 1.00 0.93 0.80 0.73 0.72 0.70 0.74 0.71 0.72 0.81 0.91
0.08 0.09 0.13 0.22 0.27 0.22 0.15 0.19 0.28 0.34 0.39 0.43 0.50 0.57 0.53 0.45 0.38 0.32 0.31 0.30 0.30 0.28 0.27 0.23 0.21 0.23 0.24 0.34 0.53 0.71 0.88 0.96 0.93 0.84 0.73 0.70 0.69 0.67 0.63 0.62 0.58 0.57 0.60 0.66
0.09 0.08 0.11 0.18 0.17 0.18 0.21 0.20 0.21 0.32 0.43 0.47 0.60 0.80 0.70 0.53 0.43 0.31 0.25 0.24 0.24 0.23 0.23 0.22 0.22 0.21 0.22 0.26 0.34 0.45 0.60 0.69 0.69 0.63 0.56 0.54 0.58 0.56 0.52 0.46 0.47 0.45 0.45 0.45
0.16 0.18 0.29 0.28 0.21 0.29 0.38 0.31 0.26 0.34 0.42 0.52 0.85 1.06 0.69 0.45 0.41 0.34 0.25 0.23 0.22 0.23 0.21 0.19 0.19 0.19 0.21 0.23 0.25 0.28 0.35 0.41 0.43 0.42 0.41 0.42 0.43 0.42 0.41 0.40 0.39 0.38 0.44 0.51
0.24 0.26 0.46 0.38 0.20 0.33 0.40 0.35 0.27 0.34 0.41 0.43 0.48 0.43 0.27 0.17 0.18 0.21 0.16 0.14 0.13 0.13 0.11 0.10 0.10 0.11 0.12 0.14 0.16 0.17 0.18 0.21 0.22 0.23 0.27 0.32 0.33 0.37 0.45 0.47 0.44 0.44 0.54 0.62
0.21 0.24 0.33 0.29 0.11 0.18 0.28 0.35 0.16 0.16 0.18 0.14 0.10 0.11 0.14 0.13 0.09 0.08 0.07 0.07 0.06 0.05 0.05 0.05 0.05 0.07 0.07 0.09 0.11 0.11 0.11 0.12 0.15 0.17 0.20 0.24 0.28 0.31 0.32 0.33 0.39 0.46 0.48 0.45
0.16 0.19 0.15 0.08 0.08 0.12 0.28 0.31 0.10 0.07 0.06 0.03 0.04 0.04 0.09 0.13 0.09 0.06 0.05 0.06 0.05 0.04 0.04 0.04 0.05 0.05 0.05 0.06 0.08 0.11 0.14 0.15 0.16 0.18 0.19 0.21 0.18 0.15 0.17 0.22 0.25 0.26 0.28 0.33
0.13 0.17 0.13 0.07 0.09 0.14 0.14 0.08 0.05 0.04 0.04 0.03 0.03 0.03 0.04 0.08 0.06 0.05 0.04 0.05 0.05 0.06 0.06 0.05 0.05 0.06 0.06 0.07 0.09 0.11 0.12 0.13 0.15 0.14 0.13 0.14 0.14 0.12 0.12 0.15 0.19 0.22 0.25 0.30
0.14 0.15 0.12 0.09 0.08 0.06 0.04 0.04 0.03 0.03 0.03 0.03 0.03 0.03 0.02 0.04 0.04 0.03 0.03 0.06 0.07 0.10 0.13 0.12 0.08 0.07 0.08 0.10 0.11 0.11 0.11 0.13 0.14 0.14 0.14 0.11 0.10 0.11 0.12 0.14 0.16 0.20 0.24 0.31
0.14 0.10 0.09 0.08 0.05 0.03 0.02 0.03 0.02 0.03 0.02 0.03 0.03 0.04 0.03 0.02 0.04 0.03 0.03 0.06 0.10 0.14 0.17 0.19 0.15 0.11 0.10 0.10 0.11 0.12 0.11 0.13 0.14 0.15 0.16 0.13 0.12 0.11 0.11 0.12 0.14 0.19 0.26 0.32
0.12 0.08 0.07 0.06 0.05 0.03 0.02 0.01 0.02 0.02 0.01 0.01 0.02 0.02 0.02 0.02 0.02 0.03 0.03 0.04 0.08 0.15 0.17 0.16 0.16 0.15 0.13 0.13 0.11 0.11 0.11 0.13 0.13 0.16 0.18 0.15 0.11 0.10 0.11 0.12 0.16 0.22 0.26 0.30
0.12 0.08 0.07 0.06 0.04 0.03 0.03 0.02 0.02 0.03 0.02 0.01 0.02 0.02 0.02 0.02 0.03 0.03 0.03 0.04 0.06 0.09 0.11 0.12 0.13 0.14 0.12 0.12 0.12 0.11 0.12 0.13 0.13 0.13 0.13 0.14 0.15 0.13 0.12 0.12 0.14 0.16 0.18 0.22
0.11 0.10 0.08 0.06 0.05 0.04 0.05 0.03 0.02 0.02 0.03 0.02 0.02 0.02 0.02 0.03 0.04 0.04 0.04 0.04 0.05 0.06 0.06 0.09 0.10 0.10 0.10 0.09 0.09 0.08 0.09 0.11 0.11 0.11 0.10 0.10 0.13 0.18 0.19 0.15 0.12 0.11 0.11 0.16
0.08 0.10 0.10 0.08 0.07 0.06 0.05 0.04 0.03 0.03 0.03 0.04 0.03 0.03 0.03 0.04 0.04 0.05 0.05 0.05 0.06 0.07 0.06 0.06 0.07 0.08 0.08 0.07 0.07 0.08 0.09 0.09 0.10 0.12 0.12 0.11 0.12 0.19 0.30 0.35 0.28 0.17 0.14 0.15
0.06 0.08 0.09 0.10 0.09 0.07 0.06 0.04 0.04 0.04 0.04 0.04 0.03 0.04 0.04 0.05 0.05 0.06 0.06 0.06 0.07 0.06 0.06 0.06 0.06 0.07 0.07 0.06 0.07 0.07 0.09 0.11 0.14 0.18 0.17 0.14 0.15 0.23 0.30 0.24 0.22 0.23 0.20 0.17
0.04 0.05 0.06 0.09 0.09 0.08 0.07 0.06 0.05 0.05 0.05 0.05 0.05 0.05 0.06 0.07 0.08 0.09 0.07 0.07 0.07 0.06 0.06 0.06 0.06 0.08 0.08 0.07 0.07 0.07 0.07 0.11 0.15 0.23 0.22 0.15 0.16 0.20 0.20 0.19 0.23 0.25 0.24 0.23
0.05 0.04 0.05 0.08 0.09 0.09 0.09 0.08 0.07 0.07 0.06 0.07 0.07 0.07 0.08 0.07 0.09 0.09 0.08 0.08 0.06 0.06 0.07 0.07 0.06 0.08 0.10 0.10 0.09 0.08 0.09 0.11 0.14 0.20 0.23 0.17 0.17 0.19 0.17 0.18 0.21 0.22 0.23 0.24
0.07 0.06 0.06 0.08 0.10 0.11 0.11 0.10 0.09 0.07 0.06 0.07 0.08 0.08 0.08 0.08 0.10 0.10 0.10 0.10 0.07 0.07 0.09 0.10 0.10 0.10 0.11 0.10 0.09 0.09 0.10 0.12 0.13 0.17 0.19 0.18 0.16 0.18 0.20 0.18 0.17 0.19 0.21 0.22
0.10 0.10 0.09 0.11 0.13 0.13 0.11 0.10 0.08 0.07 0.08 0.08 0.09 0.09 0.08 0.10 0.11 0.10 0.12 0.11 0.09 0.09 0.11 0.12 0.13 0.13 0.12 0.11 0.11 0.11 0.12 0.14 0.14 0.15 0.16 0.16 0.15 0.15 0.19 0.20 0.19 0.19 0.21 0.22
0.15 0.15 0.14 0.14 0.15 0.14 0.13 0.11 0.10 0.10 0.09 0.10 0.11 0.10 0.11 0.11 0.11 0.11 0.12 0.12 0.11 0.11 0.13 0.14 0.12 0.12 0.12 0.11 0.12 0.12 0.12 0.14 0.15 0.15 0.16 0.17 0.17 0.17 0.18 0.18 0.20 0.24 0.25 0.24
0.19 0.17 0.15 0.14 0.14 0.15 0.14 0.13 0.13 0.13 0.12 0.12 0.13 0.14 0.15 0.15 0.16 0.16 0.15 0.16 0.15 0.15 0.15 0.15 0.12 0.12 0.14 0.15 0.16 0.15 0.15 0.16 0.17 0.17 0.19 0.21 0.22 0.23 0.22 0.22 0.25 0.29 0.26 0.26
0.18 0.18 0.17 0.16 0.16 0.16 0.15 0.15 0.15 0.16 0.16 0.16 0.16 0.16 0.17 0.19 0.19 0.18 0.17 0.18 0.19 0.20 0.18 0.16 0.14 0.16 0.21 0.23 0.19 0.18 0.18 0.20 0.21 0.22 0.23 0.25 0.27 0.27 0.28 0.28 0.28 0.27 0.26 0.28
0.16 0.16 0.18 0.18 0.17 0.17 0.17 0.17 0.16 0.16 0.18 0.18 0.18 0.17 0.17 0.17 0.16 0.16 0.18 0.19 0.19 0.22 0.20 0.20 0.20 0.23 0.28 0.24 0.22 0.22 0.22 0.24 0.25 0.25 0.27 0.30 0.31 0.32 0.33 0.34 0.33 0.30 0.30 0.32
0.17 0.18 0.19 0.19 0.18 0.19 0.20 0.18 0.16 0.16 0.17 0.16 0.15 0.16 0.17 0.18 0.18 0.17 0.19 0.22 0.22 0.22 0.20 0.23 0.25 0.27 0.29 0.24 0.22 0.22 0.23 0.25 0.27 0.27 0.29 0.33 0.34 0.34 0.34 0.34 0.35 0.34 0.34 0.35
0.18 0.18 0.19 0.19 0.20 0.20 0.19 0.19 0.18 0.17 0.17 0.16 0.16 0.16 0.17 0.18 0.19 0.21 0.22 0.22 0.23 0.23 0.21 0.24 0.27 0.27 0.25 0.24 0.25 0.25 0.26 0.28 0.31 0.34 0.34 0.35 0.36 0.37 0.37 0.38 0.40 0.41 0.41 0.41
0.19 0.19 0.18 0.18 0.20 0.21 0.21 0.22 0.22 0.20 0.21 0.21 0.19 0.18 0.20 0.21 0.21 0.21 0.23 0.26 0.27 0.28 0.26 0.27 0.29 0.30 0.29 0.28 0.29 0.30 0.30 0.32 0.34 0.34 0.36 0.38 0.39 0.39 0.40 0.41 0.43 0.44 0.46 0.47
0.23 0.21 0.20 0.21 0.22 0.24 0.26 0.27 0.28 0.27 0.27 0.25 0.24 0.22 0.25 0.29 0.27 0.25 0.25 0.27 0.30 0.31 0.30 0.31 0.33 0.35 0.38 0.39 0.40 0.38 0.37 0.35 0.35 0.36 0.39 0.42 0.44 0.44 0.44 0.44 0.45 0.46 0.49 0.50

GEFSNGP_prec_meanprecacc_246.txt.gz
Total_Precipitation_Accumulation
0.15 0.18 0.25 0.43 0.54 0.44 0.34 0.33 0.41 0.39 0.37 0.41 0.49 0.59 0.57 0.52 0.50 0.49 0.48 0.43 0.43 0.42 0.41 0.41 0.42 0.42 0.50 0.65 0.81 1.00 1.23 1.23 1.09 1.03 0.96 0.81 0.75 0.73 0.70 0.74 0.71 0.73 0.82 0.91
0.09 0.10 0.14 0.24 0.28 0.23 0.15 0.19 0.28 0.34 0.40 0.43 0.50 0.57 0.53 0.45 0.38 0.32 0.31 0.30 0.30 0.28 0.27 0.23 0.22 0.24 0.25 0.34 0.53 0.71 0.89 0.97 0.94 0.85 0.75 0.71 0.71 0.67 0.63 0.62 0.58 0.57 0.60 0.67
0.10 0.09 0.12 0.19 0.18 0.19 0.21 0.20 0.21 0.32 0.43 0.48 0.60 0.80 0.70 0.53 0.44 0.31 0.25 0.24 0.24 0.24 0.23 0.22 0.22 0.22 0.22 0.27 0.34 0.46 0.60 0.69 0.69 0.64 0.58 0.56 0.58 0.56 0.52 0.47 0.48 0.46 0.45 0.46
0.19 0.20 0.31 0.29 0.21 0.29 0.38 0.31 0.26 0.34 0.42 0.52 0.85 1.06 0.69 0.46 0.41 0.34 0.25 0.23 0.23 0.23 0.21 0.19 0.19 0.19 0.21 0.23 0.26 0.29 0.35 0.42 0.43 0.43 0.43 0.43 0.44 0.43 0.42 0.41 0.41 0.40 0.44 0.51
0.28 0.29 0.47 0.38 0.20 0.33 0.40 0.35 0.27 0.34 0.41 0.43 0.48 0.44 0.27 0.17 0.18 0.21 0.16 0.15 0.14 0.13 0.11 0.10 0.10 0.11 0.12 0.15 0.17 0.18 0.18 0.21 0.23 0.24 0.28 0.33 0.34 0.38 0.47 0.49 0.46 0.46 0.56 0.63
0.25 0.27 0.34 0.30 0.12 0.18 0.28 0.35 0.16 0.16 0.18 0.14 0.10 0.11 0.14 0.13 0.09 0.08 0.07 0.07 0.07 0.05 0.05 0.05 0.06 0.07 0.07 0.09 0.11 0.12 0.12 0.12 0.15 0.18 0.21 0.25 0.30 0.33 0.33 0.35 0.40 0.47 0.48 0.46
0.19 0.21 0.16 0.09 0.08 0.12 0.28 0.32 0.10 0.07 0.06 0.03 0.04 0.04 0.09 0.13 0.09 0.06 0.05 0.06 0.06 0.04 0.04 0.05 0.05 0.06 0.06 0.07 0.09 0.11 0.14 0.15 0.17 0.18 0.20 0.23 0.21 0.17 0.19 0.23 0.25 0.27 0.28 0.34
0.16 0.19 0.14 0.07 0.09 0.14 0.14 0.08 0.05 0.04 0.04 0.03 0.03 0.03 0.04 0.08 0.06 0.05 0.05 0.05 0.05 0.06 0.06 0.05 0.05 0.06 0.07 0.08 0.10 0.12 0.14 0.15 0.16 0.15 0.14 0.15 0.15 0.13 0.13 0.16 0.19 0.23 0.25 0.30
0.16 0.17 0.13 0.10 0.08 0.06 0.05 0.04 0.03 0.03 0.03 0.03 0.03 0.03 0.02 0.04 0.04 0.03 0.04 0.06 0.07 0.10 0.13 0.13 0.09 0.07 0.09 0.10 0.12 0.13 0.13 0.14 0.16 0.16 0.15 0.11 0.10 0.13 0.14 0.15 0.17 0.20 0.25 0.31
0.15 0.11 0.10 0.09 0.06 0.04 0.02 0.03 0.02 0.03 0.02 0.03 0.03 0.04 0.03 0.02 0.04 0.03 0.03 0.06 0.10 0.15 0.17 0.19 0.15 0.12 0.10 0.11 0.12 0.13 0.13 0.14 0.16 0.16 0.17 0.13 0.12 0.12 0.13 0.13 0.15 0.20 0.26 0.33
0.13 0.10 0.08 0.07 0.05 0.03 0.02 0.02 0.02 0.03 0.02 0.01 0.02 0.02 0.02 0.02 0.03 0.03 0.03 0.04 0.08 0.15 0.17 0.16 0.16 0.15 0.14 0.13 0.12 0.11 0.12 0.14 0.14 0.17 0.19 0.15 0.12 0.11 0.12 0.13 0.17 0.23 0.27 0.31
0.14 0.10 0.11 0.09 0.07 0.05 0.04 0.02 0.02 0.03 0.02 0.02 0.02 0.02 0.02 0.02 0.03 0.03 0.04 0.04 0.06 0.09 0.11 0.12 0.13 0.15 0.12 0.12 0.12 0.12 0.13 0.14 0.14 0.13 0.14 0.15 0.16 0.13 0.12 0.13 0.15 0.17 0.19 0.23
0.14 0.14 0.12 0.09 0.07 0.06 0.06 0.03 0.02 0.02 0.03 0.03 0.02 0.02 0.02 0.03 0.04 0.04 0.05 0.05 0.06 0.07 0.07 0.09 0.10 0.10 0.10 0.09 0.09 0.08 0.10 0.11 0.12 0.12 0.11 0.11 0.14 0.18 0.19 0.16 0.12 0.11 0.12 0.17
0.11 0.13 0.12 0.09 0.07 0.07 0.06 0.04 0.03 0.03 0.03 0.04 0.03 0.04 0.04 0.05 0.05 0.05 0.05 0.06 0.07 0.08 0.07 0.08 0.08 0.09 0.08 0.07 0.07 0.08 0.09 0.09 0.11 0.13 0.13 0.13 0.13 0.19 0.30 0.35 0.29 0.17 0.14 0.15
0.07 0.09 0.11 0.11 0.09 0.08 0.06 0.05 0.04 0.04 0.04 0.04 0.04 0.05 0.05 0.06 0.06 0.07 0.06 0.07 0.07 0.07 0.07 0.08 0.08 0.09 0.08 0.07 0.08 0.08 0.09 0.11 0.15 0.19 0.18 0.16 0.16 0.24 0.30 0.24 0.22 0.23 0.20 0.17
0.06 0.06 0.07 0.10 0.10 0.09 0.07 0.07 0.06 0.06 0.06 0.06 0.06 0.06 0.06 0.07 0.08 0.09 0.08 0.08 0.07 0.07 0.07 0.07 0.07 0.09 0.09 0.08 0.08 0.07 0.08 0.12 0.16 0.24 0.23 0.16 0.17 0.21 0.20 0.19 0.23 0.25 0.24 0.23
0.07 0.06 0.07 0.09 0.10 0.10 0.10 0.09 0.08 0.08 0.06 0.08 0.08 0.08 0.08 0.08 0.09 0.09 0.08 0.09 0.07 0.06 0.07 0.08 0.07 0.08 0.11 0.11 0.10 0.09 0.10 0.12 0.15 0.20 0.24 0.19 0.18 0.20 0.18 0.18 0.21 0.23 0.23 0.25
0.09 0.08 0.07 0.09 0.10 0.12 0.12 0.11 0.10 0.08 0.08 0.09 0.09 0.09 0.09 0.10 0.11 0.10 0.11 0.11 0.08 0.08 0.09 0.11 0.11 0.11 0.11 0.11 0.10 0.10 0.11 0.12 0.14 0.17 0.20 0.19 0.18 0.20 0.21 0.19 0.18 0.19 0.21 0.23
0.11 0.11 0.11 0.12 0.14 0.14 0.13 0.12 0.11 0.10 0.10 0.10 0.11 0.11 0.10 0.12 0.13 0.11 0.12 0.12 0.10 0.11 0.12 0.14 0.15 0.14 0.13 0.12 0.12 0.12 0.12 0.14 0.14 0.15 0.17 0.17 0.16 0.16 0.20 0.21 0.20 0.20 0.22 0.23
0.16 0.16 0.15 0.16 0.16 0.16 0.14 0.13 0.12 0.12 0.13 0.14 0.14 0.14 0.14 0.13 0.13 0.14 0.14 0.13 0.12 0.13 0.16 0.17 0.15 0.16 0.15 0.14 0.15 0.15 0.16 0.17 0.17 0.18 0.18 0.19 0.18 0.18 0.19 0.19 0.22 0.25 0.26 0.25
0.19 0.17 0.16 0.15 0.15 0.16 0.16 0.16 0.16 0.16 0.16 0.17 0.19 0.19 0.19 0.19 0.19 0.18 0.17 0.18 0.17 0.17 0.18 0.19 0.17 0.17 0.18 0.18 0.19 0.19 0.19 0.20 0.20 0.20 0.22 0.23 0.24 0.24 0.23 0.24 0.26 0.29 0.27 0.27
0.19 0.18 0.18 0.16 0.17 0.18 0.17 0.17 0.18 0.20 0.21 0.23 0.23 0.23 0.23 0.23 0.23 0.23 0.22 0.23 0.23 0.24 0.22 0.20 0.19 0.21 0.24 0.25 0.20 0.19 0.20 0.22 0.23 0.24 0.25 0.27 0.28 0.28 0.28 0.28 0.28 0.28 0.27 0.29
0.16 0.17 0.19 0.19 0.18 0.17 0.18 0.18 0.18 0.19 0.21 0.23 0.23 0.24 0.24 0.22 0.21 0.21 0.24 0.26 0.24 0.26 0.24 0.24 0.24 0.26 0.30 0.26 0.23 0.23 0.23 0.25 0.27 0.26 0.28 0.31 0.32 0.33 0.34 0.34 0.34 0.31 0.31 0.32
0.17 0.18 0.20 0.20 0.19 0.20 0.21 0.19 0.18 0.18 0.19 0.19 0.19 0.20 0.22 0.24 0.23 0.22 0.25 0.29 0.29 0.27 0.24 0.26 0.28 0.30 0.31 0.25 0.24 0.23 0.24 0.27 0.28 0.28 0.31 0.34 0.35 0.35 0.35 0.36 0.36 0.35 0.35 0.36
0.18 0.18 0.19 0.19 0.20 0.21 0.20 0.19 0.19 0.19 0.18 0.18 0.18 0.18 0.20 0.22 0.25 0.27 0.28 0.28 0.28 0.28 0.26 0.28 0.30 0.30 0.27 0.26 0.27 0.26 0.27 0.29 0.33 0.36 0.36 0.37 0.37 0.38 0.39 0.40 0.41 0.42 0.42 0.42
0.19 0.19 0.18 0.18 0.20 0.22 0.22 0.23 0.23 0.21 0.22 0.21 0.20 0.20 0.23 0.26 0.26 0.27 0.29 0.31 0.32 0.32 0.29 0.29 0.31 0.32 0.30 0.31 0.32 0.32 0.32 0.33 0.35 0.36 0.37 0.40 0.41 0.41 0.42 0.43 0.44 0.46 0.48 0.49
0.23 0.21 0.20 0.21 0.22 0.24 0.26 0.28 0.29 0.28 0.28 0.26 0.25 0.24 0.28 0.33 0.32 0.30 0.31 0.33 0.35 0.36 0.35 0.35 0.36 0.38 0.41 0.41 0.41 0.40 0.38 0.36 0.36 0.37 0.40 0.43 0.45 0.46 0.45 0.45 0.46 0.48 0.50 0.52

GEFSNGP_prec_meanprecacc_252.txt.gz
Total_Precipitation_Accumulation
0.18 0.20 0.27 0.45 0.56 0.47 0.36 0.35 0.44 0.40 0.38 0.43 0.50 0.60 0.58 0.52 0.50 0.49 0.48 0.44 0.43 0.43 0.42 0.42 0.43 0.43 0.51 0.66 0.81 1.00 1.23 1.23 1.10 1.04 0.97 0.82 0.76 0.75 0.71 0.74 0.72 0.74 0.83 0.92
0.11 0.12 0.16 0.26 0.31 0.25 0.18 0.22 0.32 0.36 0.41 0.44 0.52 0.58 0.54 0.45 0.38 0.32 0.31 0.30 0.30 0.28 0.27 0.24 0.23 0.25 0.26 0.36 0.55 0.71 0.89 0.97 0.95 0.86 0.76 0.72 0.72 0.68 0.64 0.63 0.59 0.58 0.61 0.67
0.12 0.11 0.14 0.22 0.22 0.22 0.24 0.25 0.26 0.36 0.46 0.49 0.61 0.80 0.71 0.53 0.44 0.31 0.25 0.25 0.24 0.24 0.23 0.22 0.22 0.22 0.24 0.30 0.37 0.47 0.61 0.70 0.70 0.65 0.59 0.57 0.59 0.57 0.52 0.48 0.49 0.46 0.46 0.47
0.21 0.24 0.35 0.32 0.24 0.31 0.40 0.33 0.31 0.39 0.46 0.55 0.86 1.06 0.69 0.46 0.41 0.34 0.25 0.23 0.23 0.23 0.21 0.19 0.19 0.19 0.21 0.24 0.27 0.30 0.37 0.43 0.44 0.44 0.44 0.45 0.45 0.44 0.43 0.42 0.41 0.41 0.45 0.52
0.30 0.33 0.52 0.43 0.23 0.34 0.40 0.36 0.28 0.36 0.43 0.44 0.48 0.44 0.27 0.17 0.18 0.21 0.16 0.15 0.14 0.13 0.12 0.10 0.10 0.11 0.13 0.15 0.18 0.18 0.19 0.23 0.24 0.26 0.30 0.35 0.36 0.39 0.47 0.49 0.47 0.48 0.58 0.64
0.27 0.30 0.39 0.35 0.15 0.20 0.29 0.36 0.16 0.17 0.19 0.14 0.10 0.11 0.14 0.13 0.09 0.08 0.07 0.08 0.08 0.07 0.06 0.06 0.07 0.07 0.08 0.10 0.12 0.12 0.13 0.13 0.17 0.19 0.22 0.27 0.32 0.34 0.35 0.36 0.41 0.48 0.51 0.48
0.22 0.23 0.19 0.12 0.10 0.13 0.30 0.33 0.11 0.08 0.06 0.03 0.04 0.04 0.09 0.13 0.09 0.06 0.05 0.06 0.06 0.06 0.06 0.07 0.07 0.07 0.06 0.07 0.09 0.12 0.15 0.16 0.19 0.22 0.23 0.26 0.23 0.19 0.21 0.25 0.27 0.29 0.30 0.36
0.17 0.21 0.16 0.09 0.11 0.15 0.15 0.09 0.05 0.04 0.04 0.03 0.03 0.03 0.05 0.08 0.06 0.05 0.05 0.05 0.06 0.07 0.09 0.07 0.08 0.08 0.08 0.09 0.11 0.13 0.15 0.16 0.17 0.17 0.17 0.18 0.18 0.16 0.15 0.17 0.21 0.25 0.27 0.31
0.18 0.18 0.15 0.12 0.10 0.07 0.05 0.05 0.03 0.03 0.04 0.03 0.03 0.03 0.02 0.04 0.04 0.03 0.04 0.07 0.08 0.10 0.14 0.15 0.11 0.10 0.10 0.12 0.14 0.14 0.15 0.15 0.17 0.17 0.17 0.14 0.13 0.16 0.17 0.17 0.19 0.21 0.26 0.33
0.17 0.13 0.12 0.10 0.07 0.04 0.03 0.03 0.03 0.03 0.03 0.03 0.04 0.04 0.03 0.02 0.04 0.03 0.03 0.07 0.10 0.15 0.18 0.21 0.17 0.13 0.12 0.12 0.13 0.14 0.14 0.15 0.17 0.18 0.19 0.15 0.15 0.15 0.15 0.15 0.17 0.21 0.27 0.34
0.14 0.11 0.10 0.09 0.07 0.05 0.04 0.03 0.02 0.03 0.02 0.02 0.02 0.02 0.02 0.02 0.03 0.03 0.04 0.05 0.09 0.16 0.18 0.17 0.17 0.16 0.15 0.14 0.12 0.12 0.13 0.15 0.16 0.19 0.20 0.17 0.14 0.13 0.14 0.15 0.20 0.25 0.29 0.33
0.15 0.12 0.13 0.11 0.08 0.06 0.06 0.04 0.03 0.03 0.03 0.02 0.02 0.02 0.02 0.02 0.03 0.03 0.04 0.05 0.08 0.10 0.13 0.14 0.15 0.16 0.13 0.13 0.12 0.12 0.14 0.14 0.15 0.14 0.15 0.16 0.17 0.14 0.14 0.15 0.18 0.21 0.23 0.26
0.16 0.16 0.14 0.11 0.08 0.07 0.08 0.05 0.03 0.03 0.03 0.03 0.02 0.02 0.02 0.03 0.05 0.05 0.05 0.06 0.07 0.09 0.09 0.11 0.12 0.12 0.11 0.11 0.10 0.09 0.11 0.12 0.12 0.13 0.12 0.12 0.16 0.20 0.20 0.17 0.14 0.13 0.15 0.21
0.13 0.14 0.14 0.10 0.08 0.07 0.07 0.05 0.04 0.03 0.03 0.04 0.03 0.04 0.04 0.05 0.05 0.05 0.06 0.07 0.08 0.09 0.09 0.09 0.10 0.10 0.10 0.09 0.09 0.09 0.11 0.11 0.12 0.15 0.15 0.15 0.16 0.22 0.32 0.36 0.30 0.19 0.16 0.18
0.08 0.10 0.12 0.11 0.09 0.08 0.07 0.06 0.05 0.04 0.05 0.04 0.05 0.05 0.06 0.06 0.06 0.07 0.07 0.07 0.08 0.08 0.08 0.09 0.09 0.11 0.10 0.09 0.09 0.10 0.11 0.13 0.17 0.21 0.21 0.19 0.19 0.26 0.32 0.25 0.23 0.24 0.21 0.19
0.07 0.07 0.08 0.11 0.10 0.09 0.08 0.07 0.07 0.06 0.06 0.07 0.07 0.07 0.07 0.08 0.08 0.09 0.08 0.08 0.08 0.07 0.08 0.08 0.08 0.11 0.10 0.09 0.09 0.09 0.09 0.13 0.18 0.25 0.25 0.19 0.20 0.23 0.22 0.21 0.24 0.26 0.25 0.24
0.08 0.07 0.09 0.10 0.10 0.11 0.11 0.10 0.09 0.08 0.07 0.08 0.09 0.09 0.08 0.08 0.09 0.09 0.09 0.09 0.07 0.07 0.08 0.08 0.07 0.09 0.11 0.11 0.11 0.10 0.11 0.13 0.16 0.22 0.25 0.21 0.21 0.23 0.21 0.21 0.24 0.25 0.25 0.27
0.09 0.09 0.09 0.11 0.12 0.13 0.13 0.12 0.11 0.09 0.09 0.09 0.10 0.10 0.09 0.10 0.12 0.11 0.11 0.11 0.08 0.08 0.10 0.11 0.11 0.11 0.12 0.12 0.11 0.11 0.12 0.14 0.15 0.19 0.21 0.21 0.20 0.22 0.25 0.23 0.22 0.23 0.25 0.27
0.11 0.12 0.12 0.13 0.15 0.15 0.14 0.13 0.12 0.11 0.11 0.11 0.12 0.12 0.11 0.12 0.13 0.12 0.13 0.12 0.11 0.12 0.12 0.14 0.15 0.14 0.13 0.13 0.13 0.13 0.14 0.16 0.16 0.17 0.19 0.19 0.18 0.18 0.22 0.24 0.23 0.23 0.25 0.25
0.16 0.16 0.16 0.17 0.17 0.16 0.15 0.14 0.13 0.14 0.14 0.15 0.16 0.16 0.15 0.15 0.14 0.15 0.15 0.14 0.13 0.14 0.17 0.18 0.16 0.16 0.16 0.15 0.16 0.16 0.17 0.18 0.19 0.20 0.21 0.21 0.21 0.21 0.22 0.21 0.24 0.28 0.28 0.27
0.20 0.18 0.16 0.16 0.17 0.17 0.17 0.17 0.17 0.17 0.17 0.19 0.20 0.22 0.22 0.21 0.20 0.19 0.18 0.19 0.18 0.18 0.19 0.20 0.18 0.19 0.20 0.21 0.22 0.21 0.21 0.22 0.23 0.23 0.25 0.26 0.26 0.26 0.26 0.25 0.27 0.31 0.28 0.28
0.19 0.19 0.18 0.18 0.18 0.19 0.18 0.18 0.19 0.21 0.22 0.24 0.25 0.25 0.25 0.25 0.25 0.24 0.23 0.24 0.24 0.26 0.24 0.21 0.21 0.25 0.29 0.29 0.24 0.22 0.23 0.25 0.26 0.27 0.28 0.29 0.30 0.30 0.30 0.29 0.29 0.28 0.28 0.30
0.17 0.17 0.19 0.19 0.19 0.18 0.19 0.19 0.19 0.20 0.22 0.24 0.25 0.25 0.26 0.25 0.23 0.23 0.25 0.28 0.28 0.30 0.28 0.26 0.29 0.32 0.35 0.29 0.27 0.26 0.26 0.28 0.29 0.28 0.30 0.33 0.34 0.35 0.35 0.35 0.34 0.32 0.31 0.33
0.18 0.18 0.20 0.20 0.19 0.20 0.21 0.20 0.19 0.20 0.20 0.20 0.20 0.21 0.24 0.26 0.26 0.24 0.27 0.32 0.34 0.34 0.29 0.32 0.34 0.35 0.35 0.28 0.26 0.26 0.26 0.29 0.30 0.30 0.33 0.36 0.37 0.36 0.36 0.36 0.36 0.36 0.36 0.37
0.18 0.18 0.19 0.20 0.20 0.21 0.21 0.20 0.19 0.19 0.19 0.19 0.18 0.19 0.22 0.24 0.28 0.29 0.30 0.32 0.35 0.37 0.34 0.35 0.36 0.34 0.29 0.29 0.30 0.29 0.29 0.31 0.35 0.37 0.38 0.39 0.39 0.40 0.40 0.40 0.42 0.43 0.42 0.42
0.20 0.19 0.19 0.19 0.20 0.22 0.22 0.23 0.24 0.22 0.22 0.22 0.21 0.21 0.25 0.27 0.28 0.30 0.33 0.36 0.37 0.39 0.36 0.34 0.35 0.35 0.33 0.34 0.35 0.34 0.34 0.36 0.38 0.38 0.40 0.42 0.42 0.43 0.43 0.44 0.45 0.47 0.49 0.50
0.23 0.21 0.21 0.21 0.23 0.25 0.27 0.28 0.29 0.29 0.29 0.27 0.26 0.25 0.29 0.35 0.34 0.33 0.34 0.37 0.40 0.41 0.40 0.40 0.41 0.43 0.45 0.45 0.45 0.43 0.40 0.39 0.37 0.39 0.42 0.45 0.47 0.47 0.47 0.46 0.47 0.49 0.51 0.53

GEFSNGP_prec_meanprecacc_258.txt.gz
Total_Precipitation_Accumulation
0.18 0.21 0.28 0.46 0.57 0.48 0.37 0.36 0.45 0.42 0.40 0.45 0.52 0.61 0.58 0.52 0.51 0.50 0.48 0.44 0.43 0.44 0.43 0.43 0.43 0.44 0.52 0.66 0.82 1.00 1.24 1.24 1.11 1.05 0.98 0.84 0.77 0.77 0.73 0.75 0.73 0.74 0.83 0.93
0.12 0.12 0.16 0.27 0.31 0.26 0.19 0.23 0.33 0.38 0.45 0.50 0.56 0.62 0.56 0.47 0.39 0.33 0.31 0.30 0.30 0.29 0.27 0.24 0.24 0.25 0.27 0.38 0.56 0.72 0.90 0.99 0.98 0.89 0.78 0.74 0.74 0.70 0.66 0.65 0.61 0.59 0.62 0.69
0.13 0.11 0.15 0.23 0.22 0.22 0.24 0.25 0.28 0.40 0.52 0.55 0.67 0.84 0.74 0.56 0.45 0.32 0.26 0.25 0.25 0.24 0.24 0.22 0.22 0.22 0.24 0.31 0.39 0.48 0.63 0.74 0.75 0.69 0.62 0.60 0.63 0.60 0.54 0.49 0.50 0.47 0.47 0.47
0.23 0.25 0.36 0.33 0.25 0.31 0.41 0.34 0.33 0.43 0.50 0.59 0.90 1.10 0.72 0.48 0.43 0.35 0.25 0.23 0.23 0.23 0.21 0.19 0.19 0.19 0.22 0.25 0.28 0.32 0.39 0.47 0.48 0.47 0.48 0.49 0.50 0.48 0.46 0.43 0.42 0.41 0.46 0.52
0.33 0.35 0.53 0.44 0.24 0.35 0.42 0.38 0.30 0.39 0.46 0.48 0.52 0.46 0.29 0.19 0.19 0.21 0.16 0.15 0.14 0.14 0.12 0.11 0.11 0.12 0.13 0.16 0.19 0.19 0.21 0.25 0.27 0.29 0.35 0.41 0.42 0.45 0.52 0.52 0.49 0.49 0.59 0.65
0.29 0.31 0.39 0.37 0.17 0.21 0.30 0.38 0.18 0.19 0.22 0.18 0.13 0.14 0.15 0.14 0.10 0.09 0.08 0.08 0.08 0.07 0.06 0.06 0.07 0.08 0.08 0.10 0.12 0.13 0.13 0.15 0.19 0.21 0.26 0.34 0.40 0.42 0.41 0.40 0.45 0.52 0.53 0.49
0.23 0.24 0.19 0.14 0.12 0.15 0.32 0.34 0.14 0.11 0.09 0.06 0.06 0.06 0.09 0.13 0.09 0.07 0.06 0.06 0.06 0.06 0.06 0.07 0.07 0.08 0.07 0.07 0.09 0.12 0.15 0.17 0.20 0.22 0.25 0.29 0.28 0.25 0.28 0.31 0.32 0.32 0.33 0.38
0.18 0.21 0.17 0.10 0.12 0.16 0.17 0.10 0.08 0.07 0.06 0.06 0.05 0.04 0.05 0.08 0.07 0.05 0.05 0.05 0.06 0.07 0.09 0.08 0.08 0.09 0.09 0.10 0.12 0.14 0.16 0.17 0.18 0.17 0.18 0.19 0.20 0.20 0.21 0.24 0.27 0.29 0.31 0.34
0.20 0.20 0.17 0.13 0.12 0.09 0.07 0.07 0.05 0.05 0.05 0.05 0.04 0.03 0.03 0.04 0.04 0.03 0.04 0.07 0.08 0.10 0.15 0.16 0.12 0.10 0.11 0.13 0.15 0.16 0.16 0.16 0.18 0.18 0.18 0.15 0.14 0.18 0.23 0.24 0.26 0.27 0.30 0.35
0.19 0.15 0.14 0.12 0.10 0.07 0.05 0.05 0.04 0.04 0.03 0.03 0.04 0.04 0.03 0.03 0.04 0.04 0.04 0.07 0.11 0.15 0.18 0.22 0.18 0.14 0.13 0.13 0.14 0.15 0.14 0.16 0.18 0.18 0.19 0.16 0.15 0.16 0.18 0.20 0.22 0.26 0.31 0.36
0.17 0.14 0.13 0.12 0.10 0.07 0.05 0.03 0.03 0.04 0.02 0.02 0.02 0.03 0.03 0.03 0.03 0.03 0.04 0.05 0.09 0.16 0.18 0.18 0.18 0.18 0.16 0.15 0.13 0.13 0.14 0.16 0.16 0.19 0.21 0.17 0.14 0.14 0.16 0.18 0.24 0.30 0.33 0.36
0.18 0.14 0.15 0.13 0.10 0.08 0.07 0.04 0.03 0.04 0.03 0.02 0.02 0.02 0.02 0.03 0.03 0.04 0.04 0.06 0.09 0.11 0.14 0.15 0.15 0.17 0.15 0.15 0.14 0.13 0.14 0.15 0.15 0.15 0.15 0.17 0.17 0.15 0.15 0.17 0.21 0.26 0.29 0.31
0.17 0.16 0.14 0.12 0.10 0.09 0.09 0.06 0.03 0.03 0.04 0.03 0.03 0.02 0.03 0.04 0.05 0.06 0.06 0.06 0.08 0.09 0.10 0.12 0.13 0.13 0.13 0.12 0.12 0.10 0.12 0.13 0.13 0.13 0.12 0.13 0.16 0.20 0.21 0.19 0.16 0.17 0.20 0.27
0.13 0.14 0.14 0.11 0.09 0.09 0.09 0.06 0.04 0.03 0.04 0.04 0.04 0.04 0.05 0.05 0.06 0.06 0.07 0.07 0.08 0.10 0.09 0.09 0.11 0.12 0.12 0.11 0.11 0.11 0.13 0.12 0.13 0.15 0.16 0.16 0.17 0.23 0.33 0.38 0.32 0.21 0.21 0.23
0.08 0.10 0.12 0.12 0.11 0.10 0.09 0.07 0.05 0.05 0.05 0.05 0.05 0.05 0.06 0.06 0.07 0.07 0.07 0.08 0.09 0.09 0.09 0.09 0.10 0.12 0.11 0.10 0.11 0.11 0.13 0.15 0.18 0.23 0.22 0.20 0.20 0.28 0.33 0.27 0.25 0.26 0.25 0.23
0.07 0.07 0.09 0.11 0.12 0.11 0.10 0.09 0.07 0.07 0.06 0.07 0.07 0.07 0.07 0.08 0.09 0.10 0.08 0.08 0.08 0.08 0.08 0.09 0.09 0.12 0.12 0.10 0.10 0.10 0.10 0.15 0.19 0.26 0.26 0.19 0.21 0.25 0.24 0.23 0.26 0.28 0.27 0.26
0.08 0.08 0.10 0.12 0.13 0.12 0.13 0.12 0.10 0.09 0.08 0.09 0.09 0.09 0.09 0.09 0.10 0.10 0.09 0.09 0.07 0.07 0.08 0.08 0.08 0.10 0.12 0.12 0.11 0.11 0.12 0.15 0.17 0.23 0.25 0.21 0.21 0.24 0.23 0.23 0.26 0.28 0.28 0.31
0.09 0.09 0.11 0.13 0.14 0.15 0.16 0.15 0.12 0.10 0.09 0.10 0.10 0.11 0.10 0.11 0.12 0.11 0.11 0.11 0.09 0.08 0.10 0.11 0.11 0.11 0.12 0.12 0.12 0.12 0.13 0.15 0.16 0.19 0.22 0.21 0.21 0.23 0.26 0.24 0.24 0.25 0.28 0.30
0.12 0.13 0.14 0.15 0.17 0.16 0.16 0.16 0.14 0.12 0.12 0.12 0.13 0.13 0.11 0.13 0.14 0.12 0.13 0.12 0.11 0.12 0.12 0.14 0.15 0.14 0.14 0.14 0.13 0.14 0.15 0.17 0.17 0.18 0.20 0.20 0.19 0.19 0.23 0.25 0.24 0.25 0.27 0.27
0.17 0.17 0.18 0.20 0.19 0.17 0.17 0.16 0.15 0.15 0.15 0.16 0.18 0.17 0.16 0.15 0.14 0.15 0.16 0.15 0.13 0.15 0.17 0.18 0.16 0.17 0.17 0.16 0.17 0.16 0.18 0.19 0.20 0.21 0.22 0.22 0.23 0.23 0.24 0.23 0.26 0.29 0.30 0.28
0.21 0.19 0.18 0.19 0.19 0.18 0.18 0.17 0.18 0.18 0.18 0.20 0.23 0.24 0.24 0.22 0.22 0.21 0.20 0.20 0.19 0.19 0.20 0.21 0.18 0.19 0.21 0.21 0.22 0.21 0.22 0.23 0.24 0.25 0.27 0.28 0.28 0.29 0.28 0.28 0.30 0.33 0.30 0.29
0.20 0.19 0.19 0.19 0.20 0.20 0.18 0.18 0.19 0.21 0.23 0.25 0.27 0.26 0.26 0.27 0.27 0.26 0.25 0.26 0.26 0.28 0.25 0.22 0.22 0.26 0.30 0.30 0.25 0.24 0.24 0.26 0.28 0.29 0.30 0.32 0.32 0.31 0.32 0.31 0.31 0.31 0.30 0.31
0.18 0.18 0.20 0.21 0.20 0.19 0.20 0.20 0.20 0.21 0.23 0.25 0.26 0.26 0.27 0.26 0.25 0.24 0.27 0.29 0.30 0.33 0.30 0.29 0.32 0.35 0.37 0.31 0.28 0.28 0.28 0.30 0.31 0.31 0.33 0.35 0.36 0.36 0.36 0.37 0.36 0.34 0.34 0.35
0.18 0.19 0.20 0.20 0.20 0.22 0.23 0.21 0.20 0.21 0.21 0.22 0.22 0.23 0.25 0.28 0.27 0.25 0.28 0.33 0.37 0.37 0.32 0.34 0.37 0.38 0.37 0.30 0.28 0.27 0.28 0.31 0.32 0.32 0.34 0.37 0.38 0.38 0.38 0.38 0.38 0.38 0.38 0.38
0.18 0.19 0.19 0.20 0.21 0.22 0.22 0.21 0.20 0.20 0.20 0.21 0.21 0.21 0.23 0.26 0.30 0.31 0.32 0.34 0.38 0.41 0.37 0.38 0.39 0.36 0.31 0.30 0.31 0.30 0.30 0.33 0.37 0.39 0.39 0.40 0.41 0.41 0.41 0.42 0.43 0.44 0.44 0.44
0.20 0.20 0.19 0.19 0.21 0.23 0.23 0.24 0.24 0.22 0.23 0.24 0.23 0.23 0.27 0.30 0.30 0.32 0.35 0.39 0.41 0.43 0.40 0.38 0.37 0.36 0.33 0.34 0.36 0.36 0.36 0.37 0.39 0.40 0.41 0.43 0.44 0.44 0.45 0.46 0.47 0.48 0.50 0.51
0.23 0.21 0.21 0.22 0.23 0.25 0.27 0.29 0.30 0.30 0.30 0.29 0.28 0.27 0.32 0.38 0.36 0.35 0.36 0.40 0.43 0.44 0.44 0.44 0.43 0.44 0.46 0.46 0.46 0.44 0.42 0.40 0.38 0.40 0.43 0.46 0.48 0.48 0.48 0.48 0.49 0.51 0.53 0.54

GEFSNGP_prec_meanprecacc_264.txt.gz
Total_Precipitation_Accumulation
0.19 0.21 0.28 0.46 0.57 0.48 0.38 0.37 0.46 0.42 0.41 0.47 0.56 0.64 0.60 0.53 0.51 0.50 0.49 0.45 0.44 0.44 0.43 0.44 0.44 0.44 0.52 0.67 0.83 1.01 1.25 1.24 1.11 1.06 1.00 0.86 0.78 0.79 0.75 0.76 0.73 0.75 0.84 0.93
0.13 0.13 0.17 0.27 0.32 0.26 0.19 0.23 0.33 0.38 0.46 0.51 0.58 0.64 0.58 0.48 0.40 0.34 0.32 0.31 0.31 0.29 0.28 0.25 0.24 0.26 0.27 0.38 0.57 0.73 0.91 1.00 0.98 0.90 0.80 0.76 0.75 0.72 0.67 0.66 0.62 0.60 0.63 0.69
0.13 0.12 0.15 0.24 0.23 0.23 0.25 0.26 0.28 0.40 0.52 0.56 0.68 0.86 0.76 0.57 0.46 0.33 0.27 0.25 0.25 0.24 0.24 0.23 0.23 0.23 0.25 0.32 0.39 0.49 0.64 0.75 0.76 0.70 0.63 0.61 0.64 0.61 0.56 0.50 0.51 0.48 0.48 0.48
0.24 0.26 0.37 0.34 0.25 0.32 0.41 0.34 0.33 0.44 0.50 0.60 0.91 1.11 0.74 0.50 0.45 0.36 0.27 0.24 0.24 0.24 0.22 0.20 0.20 0.20 0.23 0.25 0.29 0.32 0.40 0.47 0.49 0.49 0.49 0.50 0.51 0.49 0.49 0.46 0.44 0.43 0.47 0.54
0.35 0.36 0.53 0.45 0.26 0.36 0.43 0.38 0.30 0.40 0.47 0.48 0.52 0.47 0.30 0.20 0.21 0.23 0.18 0.16 0.15 0.14 0.12 0.11 0.11 0.12 0.14 0.17 0.20 0.20 0.22 0.26 0.28 0.31 0.36 0.42 0.43 0.46 0.55 0.55 0.51 0.51 0.61 0.67
0.31 0.33 0.40 0.38 0.20 0.22 0.31 0.39 0.20 0.21 0.23 0.18 0.14 0.15 0.17 0.15 0.11 0.10 0.09 0.09 0.09 0.07 0.07 0.07 0.07 0.08 0.08 0.11 0.13 0.15 0.15 0.16 0.20 0.23 0.28 0.35 0.42 0.43 0.43 0.43 0.47 0.54 0.56 0.52
0.25 0.26 0.21 0.15 0.14 0.17 0.34 0.37 0.16 0.13 0.11 0.07 0.08 0.08 0.12 0.16 0.10 0.08 0.06 0.07 0.07 0.06 0.07 0.07 0.07 0.08 0.07 0.08 0.10 0.13 0.16 0.19 0.22 0.25 0.28 0.31 0.30 0.27 0.30 0.34 0.34 0.34 0.35 0.39
0.21 0.24 0.19 0.12 0.14 0.20 0.20 0.13 0.12 0.11 0.10 0.09 0.08 0.07 0.09 0.11 0.09 0.06 0.05 0.06 0.06 0.07 0.10 0.09 0.08 0.09 0.10 0.11 0.12 0.15 0.17 0.18 0.20 0.20 0.21 0.21 0.22 0.22 0.22 0.26 0.28 0.30 0.32 0.36
0.24 0.23 0.19 0.15 0.15 0.13 0.12 0.13 0.12 0.11 0.10 0.09 0.09 0.08 0.07 0.07 0.06 0.04 0.05 0.07 0.08 0.10 0.15 0.17 0.12 0.11 0.12 0.14 0.16 0.17 0.17 0.18 0.20 0.19 0.20 0.17 0.16 0.20 0.24 0.25 0.27 0.28 0.31 0.37
0.22 0.18 0.16 0.15 0.13 0.11 0.10 0.10 0.08 0.08 0.07 0.08 0.09 0.08 0.06 0.05 0.05 0.04 0.04 0.07 0.11 0.15 0.18 0.22 0.19 0.15 0.13 0.14 0.15 0.16 0.15 0.17 0.19 0.19 0.20 0.17 0.16 0.18 0.19 0.21 0.23 0.28 0.33 0.38
0.20 0.16 0.15 0.14 0.13 0.10 0.07 0.05 0.05 0.06 0.05 0.05 0.04 0.04 0.03 0.04 0.04 0.04 0.05 0.06 0.10 0.16 0.19 0.19 0.19 0.19 0.17 0.16 0.14 0.14 0.14 0.16 0.17 0.20 0.21 0.18 0.15 0.15 0.17 0.19 0.25 0.31 0.35 0.38
0.21 0.16 0.16 0.14 0.12 0.09 0.07 0.05 0.04 0.05 0.04 0.03 0.03 0.03 0.03 0.04 0.04 0.05 0.05 0.06 0.09 0.12 0.14 0.15 0.16 0.18 0.16 0.15 0.14 0.14 0.15 0.15 0.15 0.15 0.16 0.17 0.18 0.15 0.16 0.17 0.22 0.27 0.30 0.33
0.18 0.17 0.15 0.12 0.11 0.10 0.10 0.06 0.04 0.04 0.04 0.03 0.03 0.04 0.04 0.04 0.05 0.06 0.07 0.07 0.09 0.10 0.10 0.12 0.13 0.14 0.14 0.13 0.12 0.11 0.12 0.13 0.13 0.14 0.13 0.13 0.16 0.21 0.22 0.19 0.17 0.17 0.21 0.28
0.13 0.15 0.14 0.11 0.09 0.10 0.10 0.07 0.05 0.04 0.04 0.04 0.05 0.05 0.06 0.06 0.06 0.07 0.08 0.08 0.09 0.11 0.10 0.10 0.11 0.13 0.13 0.12 0.12 0.12 0.13 0.13 0.14 0.16 0.16 0.16 0.17 0.23 0.34 0.38 0.32 0.22 0.21 0.24
0.08 0.10 0.12 0.12 0.11 0.10 0.09 0.07 0.06 0.05 0.05 0.05 0.05 0.06 0.07 0.07 0.08 0.09 0.08 0.09 0.10 0.10 0.09 0.10 0.11 0.13 0.12 0.11 0.12 0.13 0.14 0.16 0.19 0.24 0.23 0.20 0.21 0.28 0.34 0.27 0.25 0.27 0.26 0.24
0.07 0.07 0.09 0.12 0.12 0.11 0.10 0.09 0.08 0.07 0.07 0.07 0.07 0.07 0.08 0.10 0.10 0.11 0.09 0.09 0.09 0.09 0.09 0.09 0.10 0.12 0.12 0.11 0.12 0.12 0.12 0.16 0.20 0.27 0.27 0.20 0.22 0.26 0.25 0.24 0.27 0.29 0.29 0.27
0.08 0.08 0.10 0.13 0.13 0.13 0.14 0.13 0.11 0.10 0.08 0.09 0.10 0.10 0.10 0.09 0.10 0.10 0.10 0.10 0.08 0.07 0.08 0.09 0.08 0.10 0.13 0.14 0.13 0.12 0.13 0.15 0.18 0.24 0.27 0.22 0.23 0.25 0.24 0.24 0.27 0.29 0.30 0.32
0.10 0.10 0.12 0.14 0.15 0.16 0.17 0.17 0.14 0.11 0.10 0.10 0.11 0.11 0.11 0.11 0.13 0.11 0.11 0.11 0.09 0.08 0.10 0.12 0.12 0.12 0.13 0.13 0.13 0.14 0.14 0.15 0.16 0.20 0.23 0.23 0.22 0.24 0.27 0.25 0.25 0.27 0.29 0.32
0.13 0.15 0.16 0.17 0.18 0.18 0.18 0.19 0.17 0.14 0.12 0.12 0.14 0.13 0.12 0.13 0.14 0.13 0.13 0.13 0.11 0.12 0.13 0.14 0.15 0.14 0.14 0.14 0.15 0.15 0.16 0.18 0.17 0.18 0.21 0.21 0.20 0.20 0.24 0.26 0.25 0.26 0.28 0.29
0.20 0.20 0.22 0.23 0.22 0.21 0.21 0.20 0.18 0.18 0.18 0.18 0.18 0.18 0.17 0.16 0.15 0.15 0.16 0.15 0.14 0.15 0.18 0.18 0.17 0.17 0.17 0.16 0.17 0.17 0.19 0.20 0.21 0.22 0.23 0.23 0.23 0.23 0.24 0.24 0.26 0.30 0.31 0.30
0.23 0.21 0.21 0.22 0.22 0.21 0.22 0.23 0.22 0.20 0.20 0.22 0.25 0.25 0.24 0.23 0.23 0.21 0.20 0.20 0.19 0.19 0.20 0.21 0.19 0.20 0.21 0.22 0.23 0.22 0.22 0.24 0.24 0.25 0.27 0.28 0.29 0.29 0.28 0.28 0.30 0.33 0.31 0.31
0.23 0.22 0.22 0.22 0.24 0.23 0.22 0.23 0.24 0.24 0.25 0.26 0.28 0.27 0.27 0.28 0.27 0.27 0.25 0.26 0.26 0.29 0.26 0.23 0.22 0.27 0.30 0.30 0.25 0.24 0.25 0.26 0.28 0.29 0.31 0.32 0.32 0.32 0.32 0.32 0.32 0.32 0.31 0.33
0.22 0.20 0.22 0.24 0.23 0.22 0.22 0.23 0.23 0.24 0.25 0.27 0.28 0.28 0.29 0.28 0.26 0.25 0.28 0.30 0.31 0.34 0.31 0.29 0.32 0.35 0.37 0.31 0.29 0.28 0.29 0.31 0.32 0.31 0.33 0.36 0.37 0.37 0.37 0.38 0.37 0.35 0.34 0.36
0.20 0.21 0.22 0.23 0.22 0.23 0.24 0.23 0.22 0.24 0.24 0.23 0.23 0.24 0.26 0.29 0.28 0.26 0.29 0.34 0.38 0.39 0.34 0.36 0.38 0.40 0.39 0.31 0.29 0.28 0.29 0.32 0.34 0.34 0.36 0.38 0.39 0.39 0.39 0.39 0.39 0.39 0.39 0.40
0.20 0.20 0.20 0.21 0.22 0.23 0.23 0.22 0.22 0.23 0.24 0.23 0.22 0.21 0.23 0.27 0.31 0.32 0.33 0.35 0.40 0.43 0.40 0.40 0.41 0.39 0.34 0.33 0.33 0.32 0.32 0.35 0.38 0.40 0.41 0.41 0.41 0.42 0.42 0.43 0.44 0.46 0.45 0.46
0.21 0.20 0.19 0.19 0.21 0.23 0.24 0.25 0.26 0.24 0.26 0.26 0.24 0.24 0.27 0.30 0.31 0.33 0.36 0.41 0.43 0.46 0.43 0.41 0.40 0.40 0.37 0.37 0.38 0.38 0.38 0.39 0.41 0.41 0.42 0.44 0.45 0.45 0.46 0.47 0.48 0.49 0.51 0.53
0.23 0.22 0.21 0.22 0.23 0.26 0.28 0.30 0.31 0.32 0.32 0.31 0.29 0.29 0.33 0.38 0.37 0.36 0.38 0.42 0.45 0.46 0.46 0.46 0.46 0.47 0.49 0.50 0.49 0.47 0.45 0.43 0.41 0.42 0.45 0.47 0.49 0.50 0.50 0.50 0.51 0.52 0.54 0.56

GEFSNGP_prec_meanprecacc_270.txt.gz
Total_Precipitation_Accumulation
0.19 0.22 0.29 0.47 0.58 0.49 0.40 0.39 0.48 0.44 0.43 0.48 0.56 0.65 0.61 0.54 0.52 0.51 0.50 0.46 0.47 0.48 0.46 0.45 0.44 0.44 0.53 0.68 0.83 1.02 1.25 1.25 1.12 1.07 1.01 0.87 0.79 0.79 0.76 0.78 0.75 0.76 0.85 0.94
0.13 0.14 0.18 0.28 0.32 0.27 0.20 0.24 0.34 0.39 0.47 0.52 0.59 0.65 0.59 0.49 0.41 0.35 0.33 0.32 0.32 0.32 0.31 0.27 0.25 0.26 0.28 0.39 0.58 0.73 0.91 1.00 0.99 0.90 0.80 0.77 0.76 0.72 0.69 0.68 0.64 0.61 0.64 0.70
0.14 0.12 0.17 0.25 0.23 0.23 0.25 0.26 0.29 0.40 0.53 0.56 0.68 0.86 0.76 0.58 0.47 0.35 0.28 0.27 0.27 0.26 0.27 0.27 0.25 0.24 0.26 0.33 0.41 0.50 0.65 0.75 0.76 0.70 0.64 0.62 0.65 0.62 0.58 0.51 0.52 0.50 0.49 0.49
0.24 0.27 0.38 0.35 0.25 0.32 0.41 0.35 0.34 0.44 0.51 0.60 0.91 1.11 0.74 0.51 0.45 0.37 0.28 0.26 0.26 0.25 0.23 0.22 0.22 0.22 0.25 0.28 0.30 0.33 0.40 0.48 0.49 0.49 0.50 0.51 0.51 0.50 0.50 0.46 0.45 0.44 0.50 0.57
0.36 0.38 0.54 0.45 0.26 0.37 0.43 0.39 0.31 0.40 0.47 0.49 0.52 0.47 0.31 0.21 0.21 0.24 0.19 0.18 0.17 0.16 0.14 0.13 0.13 0.14 0.16 0.20 0.21 0.21 0.23 0.27 0.29 0.31 0.37 0.43 0.44 0.47 0.56 0.56 0.53 0.52 0.62 0.69
0.33 0.36 0.42 0.40 0.21 0.23 0.33 0.41 0.22 0.22 0.24 0.19 0.14 0.15 0.17 0.16 0.12 0.11 0.10 0.10 0.11 0.09 0.09 0.09 0.09 0.10 0.11 0.13 0.15 0.16 0.17 0.18 0.22 0.25 0.29 0.37 0.43 0.44 0.44 0.44 0.48 0.54 0.57 0.53
0.28 0.29 0.23 0.17 0.16 0.19 0.37 0.40 0.18 0.14 0.12 0.08 0.08 0.08 0.13 0.16 0.11 0.09 0.07 0.07 0.08 0.08 0.08 0.10 0.10 0.11 0.10 0.10 0.12 0.15 0.18 0.21 0.24 0.27 0.30 0.33 0.32 0.28 0.31 0.35 0.35 0.34 0.36 0.40
0.25 0.28 0.23 0.14 0.16 0.22 0.23 0.16 0.13 0.12 0.11 0.09 0.08 0.07 0.09 0.11 0.09 0.07 0.06 0.06 0.06 0.08 0.10 0.09 0.10 0.11 0.12 0.12 0.14 0.17 0.18 0.19 0.21 0.22 0.23 0.25 0.25 0.24 0.24 0.28 0.30 0.32 0.33 0.38
0.28 0.27 0.22 0.19 0.19 0.17 0.16 0.16 0.14 0.13 0.11 0.10 0.09 0.08 0.07 0.08 0.07 0.06 0.06 0.08 0.08 0.10 0.15 0.17 0.13 0.13 0.14 0.16 0.18 0.18 0.18 0.18 0.20 0.20 0.22 0.20 0.20 0.23 0.27 0.27 0.29 0.29 0.32 0.39
0.24 0.20 0.18 0.19 0.17 0.16 0.16 0.15 0.12 0.11 0.10 0.10 0.11 0.10 0.08 0.07 0.07 0.07 0.06 0.08 0.11 0.16 0.19 0.23 0.20 0.18 0.15 0.15 0.17 0.17 0.16 0.18 0.20 0.20 0.21 0.19 0.19 0.21 0.23 0.24 0.26 0.30 0.35 0.40
0.21 0.17 0.17 0.16 0.15 0.12 0.10 0.09 0.10 0.11 0.09 0.08 0.08 0.08 0.08 0.07 0.07 0.07 0.07 0.07 0.10 0.17 0.19 0.20 0.21 0.22 0.20 0.17 0.15 0.15 0.15 0.17 0.17 0.20 0.22 0.19 0.16 0.17 0.20 0.22 0.28 0.35 0.38 0.40
0.22 0.17 0.17 0.15 0.12 0.10 0.08 0.06 0.07 0.09 0.08 0.07 0.07 0.07 0.07 0.07 0.08 0.07 0.08 0.08 0.10 0.13 0.16 0.17 0.19 0.21 0.19 0.17 0.15 0.15 0.16 0.17 0.17 0.16 0.16 0.18 0.19 0.17 0.18 0.20 0.26 0.31 0.34 0.36
0.19 0.17 0.15 0.13 0.11 0.11 0.10 0.06 0.04 0.05 0.06 0.06 0.06 0.07 0.07 0.07 0.08 0.08 0.08 0.08 0.10 0.11 0.12 0.14 0.16 0.16 0.15 0.14 0.13 0.12 0.13 0.14 0.14 0.14 0.13 0.14 0.17 0.21 0.23 0.20 0.18 0.20 0.24 0.31
0.13 0.15 0.14 0.11 0.09 0.10 0.10 0.07 0.05 0.04 0.04 0.05 0.05 0.06 0.07 0.07 0.08 0.09 0.09 0.10 0.11 0.12 0.11 0.12 0.14 0.15 0.14 0.13 0.13 0.13 0.14 0.14 0.15 0.17 0.17 0.17 0.17 0.23 0.34 0.39 0.33 0.23 0.22 0.26
0.08 0.10 0.12 0.12 0.11 0.10 0.09 0.07 0.06 0.06 0.06 0.06 0.06 0.07 0.08 0.09 0.10 0.11 0.09 0.10 0.11 0.11 0.11 0.11 0.13 0.15 0.14 0.12 0.13 0.14 0.16 0.18 0.21 0.25 0.24 0.22 0.22 0.29 0.35 0.28 0.27 0.28 0.26 0.25
0.07 0.07 0.09 0.12 0.12 0.11 0.10 0.09 0.08 0.07 0.07 0.07 0.08 0.08 0.09 0.11 0.12 0.12 0.10 0.10 0.10 0.09 0.10 0.10 0.11 0.13 0.13 0.12 0.13 0.13 0.13 0.18 0.22 0.29 0.28 0.22 0.24 0.28 0.26 0.26 0.29 0.31 0.30 0.28
0.09 0.08 0.11 0.13 0.13 0.13 0.14 0.13 0.11 0.10 0.08 0.09 0.10 0.10 0.10 0.10 0.11 0.11 0.10 0.10 0.09 0.08 0.09 0.09 0.09 0.11 0.13 0.15 0.14 0.13 0.14 0.17 0.20 0.25 0.28 0.24 0.25 0.27 0.26 0.26 0.30 0.32 0.32 0.33
0.11 0.11 0.13 0.14 0.15 0.16 0.18 0.17 0.14 0.11 0.10 0.11 0.11 0.12 0.11 0.12 0.13 0.12 0.12 0.12 0.09 0.09 0.10 0.12 0.12 0.12 0.13 0.14 0.14 0.14 0.15 0.17 0.18 0.21 0.25 0.25 0.24 0.27 0.29 0.27 0.27 0.29 0.31 0.34
0.15 0.16 0.17 0.18 0.19 0.19 0.19 0.20 0.18 0.15 0.13 0.13 0.14 0.14 0.12 0.13 0.15 0.13 0.14 0.13 0.12 0.13 0.13 0.15 0.16 0.15 0.15 0.15 0.16 0.16 0.16 0.18 0.18 0.19 0.22 0.22 0.22 0.22 0.27 0.29 0.27 0.28 0.30 0.31
0.22 0.23 0.24 0.25 0.24 0.22 0.22 0.21 0.19 0.19 0.18 0.19 0.19 0.18 0.17 0.16 0.15 0.16 0.17 0.16 0.15 0.16 0.18 0.19 0.17 0.18 0.18 0.17 0.18 0.18 0.19 0.20 0.21 0.22 0.24 0.24 0.24 0.25 0.26 0.26 0.28 0.32 0.32 0.31
0.25 0.24 0.23 0.24 0.24 0.23 0.23 0.24 0.23 0.21 0.21 0.24 0.26 0.26 0.25 0.23 0.23 0.22 0.20 0.21 0.20 0.20 0.21 0.22 0.19 0.20 0.22 0.22 0.23 0.22 0.22 0.24 0.25 0.25 0.28 0.29 0.30 0.30 0.29 0.29 0.31 0.35 0.32 0.32
0.27 0.24 0.24 0.24 0.25 0.24 0.23 0.24 0.25 0.25 0.25 0.27 0.29 0.29 0.28 0.28 0.28 0.27 0.26 0.26 0.26 0.29 0.26 0.24 0.23 0.27 0.31 0.31 0.26 0.25 0.25 0.27 0.28 0.30 0.32 0.33 0.33 0.33 0.33 0.33 0.33 0.33 0.32 0.34
0.25 0.24 0.25 0.26 0.25 0.23 0.23 0.24 0.25 0.25 0.26 0.28 0.28 0.29 0.30 0.28 0.26 0.26 0.28 0.30 0.31 0.34 0.31 0.30 0.33 0.36 0.38 0.32 0.30 0.29 0.30 0.32 0.33 0.32 0.34 0.37 0.39 0.39 0.39 0.39 0.38 0.36 0.36 0.38
0.22 0.23 0.25 0.25 0.24 0.25 0.26 0.24 0.24 0.25 0.25 0.24 0.24 0.25 0.28 0.30 0.29 0.27 0.30 0.35 0.39 0.40 0.35 0.37 0.40 0.41 0.40 0.33 0.31 0.30 0.31 0.34 0.35 0.34 0.36 0.39 0.41 0.41 0.41 0.41 0.40 0.40 0.40 0.41
0.21 0.21 0.22 0.23 0.24 0.25 0.24 0.24 0.24 0.25 0.25 0.24 0.22 0.22 0.24 0.28 0.33 0.34 0.34 0.37 0.42 0.44 0.41 0.42 0.42 0.40 0.35 0.34 0.35 0.33 0.34 0.36 0.39 0.41 0.41 0.42 0.42 0.43 0.43 0.44 0.45 0.47 0.46 0.47
0.22 0.22 0.21 0.21 0.23 0.25 0.25 0.27 0.28 0.27 0.28 0.28 0.26 0.25 0.28 0.31 0.32 0.34 0.37 0.42 0.44 0.47 0.44 0.41 0.41 0.40 0.38 0.38 0.39 0.39 0.39 0.40 0.41 0.42 0.43 0.45 0.46 0.46 0.46 0.48 0.48 0.50 0.52 0.54
0.24 0.22 0.22 0.23 0.24 0.26 0.29 0.32 0.35 0.35 0.35 0.34 0.31 0.30 0.34 0.39 0.38 0.37 0.39 0.43 0.46 0.47 0.47 0.47 0.47 0.48 0.50 0.51 0.51 0.48 0.46 0.44 0.41 0.43 0.46 0.49 0.50 0.51 0.51 0.51 0.52 0.53 0.55 0.57

GEFSNGP_prec_meanprecacc_276.txt.gz
Total_Precipitation_Accumulation
0.20 0.22 0.29 0.48 0.59 0.51 0.42 0.41 0.51 0.46 0.47 0.51 0.58 0.66 0.62 0.56 0.54 0.53 0.53 0.52 0.53 0.57 0.55 0.49 0.46 0.46 0.55 0.70 0.86 1.04 1.28 1.28 1.15 1.09 1.04 0.90 0.81 0.81 0.78 0.79 0.76 0.77 0.86 0.95
0.13 0.14 0.19 0.29 0.33 0.28 0.21 0.25 0.35 0.40 0.48 0.52 0.59 0.65 0.59 0.50 0.43 0.36 0.34 0.36 0.38 0.39 0.44 0.36 0.29 0.29 0.30 0.41 0.61 0.76 0.94 1.03 1.02 0.93 0.83 0.80 0.79 0.75 0.70 0.69 0.65 0.62 0.65 0.71
0.14 0.13 0.17 0.26 0.24 0.24 0.27 0.27 0.30 0.42 0.53 0.56 0.69 0.87 0.77 0.59 0.48 0.36 0.29 0.29 0.31 0.32 0.35 0.35 0.32 0.28 0.29 0.35 0.44 0.53 0.67 0.77 0.79 0.73 0.66 0.65 0.68 0.65 0.60 0.53 0.54 0.51 0.50 0.49
0.25 0.28 0.39 0.35 0.26 0.33 0.42 0.36 0.35 0.45 0.52 0.61 0.92 1.12 0.74 0.51 0.46 0.38 0.29 0.28 0.28 0.29 0.28 0.27 0.28 0.28 0.29 0.30 0.32 0.36 0.43 0.49 0.51 0.51 0.52 0.53 0.53 0.53 0.53 0.49 0.47 0.46 0.51 0.58
0.37 0.39 0.55 0.47 0.27 0.38 0.45 0.40 0.32 0.42 0.49 0.49 0.53 0.47 0.31 0.21 0.21 0.24 0.19 0.19 0.18 0.18 0.16 0.16 0.17 0.19 0.21 0.24 0.25 0.24 0.26 0.29 0.31 0.34 0.39 0.46 0.47 0.49 0.58 0.59 0.55 0.53 0.63 0.70
0.34 0.38 0.43 0.41 0.23 0.25 0.35 0.43 0.22 0.23 0.25 0.19 0.15 0.15 0.17 0.16 0.12 0.11 0.10 0.11 0.12 0.10 0.09 0.10 0.12 0.14 0.15 0.18 0.21 0.21 0.22 0.22 0.25 0.27 0.31 0.39 0.45 0.46 0.46 0.47 0.51 0.56 0.58 0.55
0.29 0.30 0.24 0.20 0.18 0.22 0.41 0.42 0.18 0.14 0.13 0.09 0.09 0.09 0.13 0.16 0.11 0.09 0.07 0.08 0.09 0.09 0.09 0.11 0.12 0.14 0.15 0.17 0.18 0.20 0.24 0.26 0.27 0.29 0.31 0.35 0.33 0.29 0.33 0.38 0.37 0.37 0.38 0.42
0.26 0.30 0.25 0.17 0.19 0.25 0.25 0.17 0.14 0.13 0.12 0.11 0.09 0.08 0.10 0.12 0.09 0.07 0.07 0.07 0.07 0.08 0.11 0.10 0.11 0.13 0.16 0.20 0.19 0.21 0.23 0.23 0.23 0.24 0.25 0.26 0.27 0.25 0.26 0.31 0.33 0.34 0.37 0.41
0.30 0.29 0.24 0.22 0.22 0.19 0.19 0.18 0.15 0.14 0.12 0.11 0.10 0.09 0.08 0.08 0.08 0.07 0.07 0.08 0.09 0.11 0.16 0.19 0.15 0.15 0.18 0.22 0.24 0.21 0.21 0.21 0.22 0.22 0.23 0.22 0.22 0.26 0.29 0.31 0.33 0.33 0.35 0.41
0.26 0.21 0.19 0.20 0.19 0.18 0.19 0.18 0.13 0.12 0.11 0.11 0.11 0.10 0.08 0.07 0.08 0.08 0.07 0.08 0.11 0.16 0.20 0.24 0.21 0.20 0.21 0.23 0.23 0.21 0.20 0.20 0.21 0.21 0.22 0.20 0.20 0.23 0.25 0.27 0.28 0.33 0.38 0.42
0.22 0.18 0.17 0.16 0.15 0.14 0.13 0.13 0.13 0.12 0.09 0.08 0.08 0.08 0.08 0.07 0.09 0.09 0.08 0.07 0.11 0.18 0.20 0.21 0.22 0.24 0.27 0.25 0.21 0.20 0.19 0.20 0.18 0.21 0.23 0.20 0.17 0.18 0.21 0.24 0.31 0.37 0.41 0.44
0.22 0.17 0.18 0.16 0.12 0.10 0.11 0.10 0.10 0.11 0.10 0.08 0.07 0.07 0.07 0.09 0.10 0.09 0.09 0.09 0.11 0.13 0.16 0.18 0.19 0.22 0.24 0.25 0.21 0.18 0.19 0.20 0.19 0.18 0.18 0.19 0.21 0.19 0.20 0.23 0.29 0.34 0.38 0.41
0.19 0.17 0.15 0.13 0.11 0.11 0.11 0.09 0.07 0.08 0.09 0.08 0.08 0.08 0.08 0.09 0.12 0.11 0.10 0.10 0.11 0.12 0.13 0.16 0.17 0.18 0.20 0.21 0.18 0.15 0.16 0.17 0.18 0.18 0.17 0.17 0.19 0.23 0.25 0.23 0.21 0.23 0.28 0.35
0.13 0.15 0.15 0.11 0.10 0.10 0.11 0.08 0.07 0.07 0.07 0.08 0.08 0.09 0.10 0.11 0.14 0.12 0.11 0.11 0.13 0.14 0.13 0.14 0.17 0.18 0.19 0.20 0.20 0.18 0.17 0.16 0.17 0.19 0.20 0.20 0.21 0.25 0.36 0.42 0.37 0.26 0.26 0.30
0.09 0.11 0.13 0.13 0.11 0.11 0.10 0.08 0.07 0.07 0.08 0.08 0.09 0.10 0.11 0.12 0.15 0.14 0.12 0.12 0.12 0.13 0.13 0.13 0.16 0.18 0.19 0.19 0.21 0.18 0.18 0.19 0.22 0.26 0.25 0.24 0.25 0.31 0.36 0.31 0.29 0.31 0.29 0.28
0.09 0.08 0.10 0.12 0.13 0.12 0.11 0.09 0.08 0.08 0.08 0.09 0.09 0.10 0.11 0.14 0.16 0.15 0.12 0.12 0.11 0.11 0.11 0.12 0.14 0.17 0.17 0.17 0.19 0.16 0.15 0.20 0.24 0.31 0.30 0.24 0.26 0.30 0.29 0.28 0.31 0.34 0.32 0.30
0.12 0.11 0.12 0.14 0.14 0.13 0.14 0.13 0.11 0.10 0.08 0.10 0.11 0.11 0.12 0.11 0.13 0.12 0.12 0.11 0.10 0.09 0.09 0.10 0.11 0.13 0.17 0.18 0.18 0.17 0.16 0.18 0.22 0.27 0.30 0.26 0.27 0.30 0.28 0.28 0.31 0.35 0.35 0.35
0.14 0.13 0.15 0.15 0.16 0.16 0.18 0.17 0.15 0.12 0.10 0.11 0.12 0.12 0.12 0.12 0.14 0.12 0.12 0.12 0.10 0.09 0.11 0.13 0.13 0.13 0.15 0.16 0.17 0.18 0.16 0.17 0.18 0.22 0.26 0.26 0.26 0.29 0.31 0.30 0.29 0.31 0.34 0.37
0.17 0.19 0.19 0.19 0.20 0.20 0.19 0.20 0.18 0.15 0.13 0.13 0.15 0.14 0.12 0.14 0.15 0.14 0.14 0.13 0.12 0.13 0.14 0.16 0.17 0.16 0.16 0.16 0.18 0.19 0.18 0.19 0.19 0.20 0.23 0.24 0.24 0.25 0.29 0.32 0.31 0.32 0.35 0.35
0.24 0.24 0.26 0.27 0.26 0.23 0.22 0.21 0.19 0.19 0.19 0.19 0.19 0.18 0.17 0.17 0.16 0.16 0.17 0.16 0.15 0.17 0.20 0.20 0.18 0.19 0.19 0.18 0.21 0.21 0.21 0.22 0.23 0.24 0.25 0.26 0.26 0.27 0.28 0.28 0.31 0.35 0.35 0.34
0.26 0.24 0.25 0.26 0.26 0.25 0.25 0.24 0.23 0.21 0.21 0.24 0.26 0.26 0.26 0.24 0.23 0.22 0.21 0.21 0.20 0.21 0.22 0.23 0.20 0.21 0.23 0.24 0.26 0.25 0.24 0.26 0.26 0.27 0.30 0.31 0.32 0.32 0.31 0.31 0.33 0.37 0.34 0.33
0.28 0.25 0.25 0.25 0.26 0.25 0.25 0.26 0.26 0.25 0.25 0.27 0.30 0.30 0.30 0.30 0.29 0.28 0.26 0.28 0.28 0.31 0.28 0.25 0.24 0.29 0.32 0.32 0.27 0.26 0.26 0.28 0.30 0.31 0.33 0.35 0.35 0.35 0.35 0.35 0.35 0.35 0.34 0.36
0.26 0.25 0.26 0.27 0.26 0.24 0.24 0.25 0.25 0.25 0.26 0.28 0.29 0.30 0.31 0.30 0.28 0.27 0.30 0.32 0.33 0.37 0.33 0.32 0.35 0.39 0.41 0.34 0.31 0.31 0.31 0.34 0.34 0.33 0.36 0.38 0.40 0.40 0.41 0.41 0.40 0.39 0.38 0.39
0.23 0.24 0.26 0.25 0.25 0.25 0.26 0.25 0.24 0.25 0.25 0.24 0.24 0.25 0.28 0.31 0.30 0.28 0.30 0.36 0.40 0.41 0.36 0.39 0.41 0.42 0.42 0.35 0.32 0.31 0.32 0.36 0.37 0.36 0.38 0.41 0.42 0.42 0.43 0.42 0.42 0.42 0.42 0.43
0.22 0.22 0.23 0.23 0.24 0.26 0.25 0.24 0.24 0.25 0.25 0.24 0.23 0.22 0.24 0.29 0.34 0.35 0.35 0.37 0.42 0.45 0.42 0.43 0.44 0.41 0.36 0.35 0.36 0.35 0.36 0.38 0.42 0.44 0.44 0.44 0.44 0.44 0.44 0.45 0.46 0.48 0.48 0.48
0.22 0.23 0.22 0.21 0.24 0.26 0.26 0.27 0.29 0.27 0.29 0.29 0.26 0.25 0.28 0.31 0.33 0.36 0.38 0.43 0.45 0.48 0.45 0.43 0.42 0.41 0.38 0.39 0.40 0.40 0.41 0.43 0.44 0.45 0.46 0.47 0.47 0.47 0.47 0.48 0.49 0.51 0.53 0.55
0.24 0.23 0.23 0.23 0.25 0.27 0.30 0.32 0.35 0.36 0.35 0.34 0.32 0.31 0.34 0.40 0.38 0.38 0.40 0.44 0.47 0.48 0.48 0.49 0.48 0.49 0.51 0.52 0.52 0.50 0.48 0.46 0.43 0.44 0.47 0.50 0.51 0.52 0.52 0.52 0.52 0.53 0.56 0.58